[[{"header":{"parameterUnit":"m.s-1","parameterCategory":1,"la1":31.0,"la2":29.5877,"lo1":-88.7671,"lo2":-86.6584,"dy":0.0162,"dx":0.0185,"nx":115,"ny":88,"refTime":"2023-07-10T12:00:00:Z","depth":0,"parameterNumber":2,"parameterNumberName":"U-component_of_WINDS"},"data":[0.0,0.0,0.0,0.0,0.0,0.0,0.0,0.0,0.0,0.0,0.0,0.0,0.0,0.0,0.0,0.0,0.0,0.0,0.0,0.0,0.0,0.0,0.0,0.0,0.0,0.0,0.0,0.0,0.0,0.0,0.0,0.0,0.0,0.0,0.0,0.0,0.0,0.0,0.0,0.0,0.0,0.0,0.0,0.0,0.0,0.0,0.0,0.0,0.0,0.0,0.0,0.0,0.0,0.0,0.0,0.0,0.0,0.0,0.0,0.0,0.0,0.0,0.0,0.0,0.0,0.0,0.0,0.0,0.0,0.0,0.0,0.0,0.0,0.0,0.0,0.0,0.0,0.0,0.0,0.0,0.0,0.0,0.0,0.0,0.0,0.0,0.0,0.0,0.0,0.0,0.0,0.0,0.0,0.0,0.0,0.0,0.0,0.0,0.0,0.0,0.0,0.0,0.0,0.0,0.0,0.0,0.0,0.0,0.0,0.0,0.0,0.0,0.0,0.0,0.0,0.0,0.0,0.0,0.0,0.0,0.0,0.0,0.0,0.0,0.0,0.0,0.0,0.0,0.0,0.0,0.0,0.0,0.0,0.0,0.0,0.0,0.0,0.0,0.0,0.0,0.0,0.0,0.0,0.0,0.0,0.0,0.0,0.0,0.0,0.0,0.0,0.0,0.0,0.0,0.0,0.0,0.0,0.0,0.0,0.0,0.0,0.0,0.0,0.0,0.0,0.0,0.0,0.0,0.0,0.0,0.0,0.0,0.0,0.0,0.0,0.0,0.0,0.0,0.0,0.0,0.0,0.0,0.0,0.0,0.0,0.0,0.0,0.0,0.0,0.0,0.0,0.0,0.0,0.0,0.0,0.0,0.0,0.0,0.0,0.0,0.0,0.0,0.0,0.0,0.0,0.0,0.0,0.0,0.0,0.0,0.0,0.0,0.0,0.0,0.0,0.0,0.0,0.0,0.0,0.0,0.0,0.0,0.0,0.0,0.0,0.0,0.0,0.0,0.0,0.0,0.0,0.0,0.0,0.0,0.0,0.0,0.0,0.0,0.0,0.0,0.0,0.0,0.0,0.0,0.0,0.0,0.0,0.0,0.0,0.0,0.0,0.0,0.0,0.0,0.0,0.0,0.0,0.0,0.0,0.0,0.0,0.0,0.0,0.0,0.0,0.0,0.0,0.0,0.0,0.0,0.0,0.0,0.0,0.0,0.0,0.0,0.0,0.0,0.0,0.0,0.0,0.0,0.0,0.0,0.0,0.0,0.0,0.0,0.0,0.0,0.0,0.0,0.0,0.0,0.0,0.0,0.0,0.0,0.0,0.0,0.0,0.0,0.0,0.0,0.0,0.0,0.0,0.0,0.0,0.0,0.0,0.0,0.0,0.0,0.0,0.0,0.0,0.0,0.0,0.0,0.0,0.0,0.0,0.0,0.0,0.0,0.0,0.0,0.0,0.0,0.0,0.0,0.0,0.0,0.0,0.0,0.0,0.0,0.0,0.0,0.0,0.0,0.0,0.0,0.0,0.0,0.0,0.0,0.0,0.0,0.0,0.0,0.0,0.0,0.0,0.0,0.0,0.0,0.0,0.0,0.0,0.0,0.0,0.0,0.0,0.0,0.0,0.0,0.0,0.0,0.0,0.0,0.0,0.0,0.0,0.0,0.0,0.0,0.0,0.0,0.0,0.0,0.0,0.0,0.0,0.0,0.0,0.0,0.0,0.0,0.0,0.0,0.0,0.0,0.0,0.0,0.0,0.0,0.0,0.0,0.0,0.0,0.0,0.0,0.0,0.0,0.0,0.0,0.0,0.0,0.0,0.0,0.0,0.0,0.0,0.0,0.0,0.0,0.0,0.0,0.0,0.0,0.0,0.0,0.0,0.0,0.0,0.0,0.0,0.0,0.0,0.0,0.0,0.0,0.0,0.0,0.0,0.0,0.0,0.0,0.0,0.0,0.0,0.0,0.0,0.0,0.0,0.0,0.0,0.0,0.0,0.0,0.0,0.0,0.0,0.0,0.0,0.0,0.0,0.0,0.0,0.0,0.0,0.0,0.0,0.0,0.0,0.0,0.0,0.0,0.0,0.0,0.0,0.0,0.0,0.0,0.0,0.0,0.0,0.0,0.0,0.0,0.0,0.0,0.0,0.0,0.0,0.0,0.0,0.0,0.0,0.0,0.0,0.0,0.0,0.0,0.0,0.0,0.0,0.0,0.0,0.0,0.0,0.0,0.0,0.0,0.0,0.0,0.0,0.0,0.0,0.0,0.0,0.0,0.0,0.0,0.0,0.0,0.0,0.0,0.0,0.0,0.0,0.0,0.0,0.0,0.0,0.0,0.0,0.0,0.0,0.0,0.0,0.0,0.0,0.0,0.0,0.0,0.0,0.0,0.0,0.0,0.0,0.0,0.0,0.0,0.0,0.0,0.0,0.0,0.0,0.0,0.0,0.0,0.0,0.0,0.0,0.0,0.0,0.0,0.0,0.0,0.0,0.0,0.0,0.0,0.0,0.0,0.0,0.0,0.0,0.0,0.0,0.0,0.0,0.0,0.0,0.0,0.0,0.0,0.0,0.0,0.0,0.0,0.0,0.0,0.0,0.0,0.0,0.0,0.0,0.0,0.0,0.0,0.0,0.0,0.0,0.0,0.0,0.0,0.0,0.0,0.0,0.0,0.0,0.0,0.0,0.0,0.0,0.0,0.0,0.0,0.0,0.0,0.0,0.0,0.0,0.0,0.0,0.0,0.0,0.0,0.0,0.0,0.0,0.0,0.0,0.0,0.0,0.0,0.0,0.0,0.0,0.0,0.0,0.0,0.0,0.0,0.0,0.0,0.0,0.0,0.0,0.0,0.0,0.0,0.0,0.0,0.0,0.0,0.0,0.0,0.0,0.0,0.0,0.0,0.0,0.0,0.0,0.0,0.0,0.0,0.0,0.0,0.0,0.0,0.0,0.0,0.0,0.0,0.0,0.0,0.0,0.0,0.0,0.0,0.0,0.0,0.0,0.0,0.0,0.0,0.0,0.0,0.0,0.0,0.0,0.0,0.0,0.0,0.0,0.0,0.0,0.0,0.0,0.0,0.0,0.0,0.0,0.0,0.0,0.0,0.0,0.0,0.0,0.0,0.0,0.0,0.0,0.0,0.0,0.0,0.0,0.0,0.0,0.0,0.0,0.0,0.0,0.0,0.0,0.0,0.0,0.0,0.0,0.0,0.0,0.0,0.0,0.0,0.0,0.0,0.0,0.0,0.0,0.0,0.0,0.0,0.0,0.0,0.0,0.0,0.0,0.0,0.0,0.0,0.0,0.0,0.0,0.0,0.0,0.0,0.0,0.0,0.0,0.0,0.0,0.0,0.0,0.0,0.0,0.0,0.0,0.0,0.0,0.0,0.0,0.0,0.0,0.0,0.0,0.0,0.0,0.0,0.0,0.0,0.0,0.0,0.0,0.0,0.0,0.0,0.0,0.0,0.0,0.0,0.0,0.0,0.0,0.0,0.0,0.0,0.0,0.0,0.0,0.0,0.0,0.0,0.0,0.0,0.0,0.0,0.0,0.0,0.0,0.0,0.0,0.0,0.0,0.0,0.0,0.0,0.0,0.0,0.0,0.0,0.0,0.0,0.0,0.0,0.0,0.0,0.0,0.0,0.0,0.0,0.0,0.0,0.0,0.0,0.0,0.0,0.0,0.0,0.0,0.0,0.0,0.0,0.0,0.0,0.0,0.0,0.0,0.0,0.0,0.0,0.0,0.0,0.0,0.0,0.0,0.0,0.0,0.0,0.0,0.0,0.0,0.0,0.0,0.0,0.0,0.0,0.0,0.0,0.0,0.0,0.0,0.0,0.0,0.0,0.0,0.0,0.0,0.0,0.0,0.0,0.0,0.0,0.0,0.0,0.0,0.0,0.0,0.0,0.0,0.0,0.0,0.0,0.0,0.0,0.0,0.0,0.0,0.0,0.0,0.0,0.0,0.0,0.0,0.0,0.0,0.0,0.0,0.0,0.0,0.0,0.0,0.0,0.0,0.0,0.0,0.0,0.0,0.0,0.0,0.0,0.0,0.0,0.0,0.0,0.0,0.0,0.0,0.0,0.0,0.0,0.0,0.0,0.0,0.0,0.0,0.0,0.0,0.0,0.0,0.0,0.0,0.0,0.0,0.0,0.0,0.0,0.0,0.0,0.0,0.0,0.0,0.0,0.0,0.0,0.0,0.0,0.0,0.0,0.0,0.0,0.0,0.0,0.0,0.0,0.0,0.0,0.0,0.0,0.0,0.0,1.1047,0.0,0.0,0.0,0.0,0.0,0.0,0.0,0.0,0.0,0.0,0.0,0.0,0.0,0.0,0.0,0.0,0.0,0.0,0.0,0.0,0.0,0.0,0.0,0.0,0.0,0.0,0.0,0.0,0.0,0.0,0.0,0.0,0.0,0.0,0.0,0.0,0.0,0.0,0.0,0.0,0.0,0.0,0.0,0.0,0.0,0.0,0.0,0.0,0.0,0.0,0.0,0.0,0.0,0.0,0.0,0.0,0.0,0.0,0.0,0.0,0.0,0.0,0.0,0.0,0.0,0.0,0.0,0.0,0.0,0.0,0.0,0.0,0.0,0.0,0.0,0.0,0.0,0.0,0.0,0.0,0.0,0.0,0.0,0.0,0.0,0.0,0.0,0.0,0.0,0.0,0.0,0.0,0.0,0.0,0.0,0.0,0.0,0.0,0.0,0.0,0.0,0.0,0.0,0.0,0.0,0.0,0.0,0.0,0.0,0.0,1.1277,0.992,1.0522,1.0663,1.0196,0.0,0.0,0.0,0.0,0.0,0.0,0.0,0.0,0.0,0.0,0.0,0.0,0.0,0.0,0.0,0.0,0.0,0.0,0.0,0.0,0.0,0.0,0.0,0.0,0.0,0.0,0.0,0.0,0.0,0.0,0.0,0.0,0.0,0.0,0.0,0.0,0.0,0.0,0.0,0.0,0.0,0.0,0.0,0.0,0.0,0.0,0.0,0.0,0.0,0.0,0.0,0.0,0.0,0.0,0.0,0.0,0.0,0.0,0.0,0.0,0.0,0.0,0.0,0.0,0.0,0.0,0.0,0.0,0.0,0.0,0.0,0.0,0.0,0.0,0.0,0.0,0.0,0.0,0.0,0.0,0.0,0.0,0.0,0.0,0.0,0.0,0.0,0.0,0.0,0.0,0.0,0.0,0.0,0.0,0.0,0.0,0.0,0.0,0.0,0.0,0.0,0.0,0.0,0.0,0.0,0.0,0.0,0.0,0.0,0.0,0.0,0.0,1.0274,1.021,0.9267,0.0,0.0,0.0,0.0,0.0,0.0,0.0,0.0,0.0,0.0,0.0,0.0,0.0,0.0,0.0,0.0,0.0,0.0,0.0,0.0,0.0,0.0,0.0,0.0,0.0,0.0,0.0,0.0,0.0,0.0,0.0,0.0,0.0,0.0,0.0,0.0,0.0,0.0,0.0,0.0,0.0,0.0,0.0,0.0,0.0,0.0,0.0,0.0,0.0,0.0,0.0,0.0,0.0,0.0,0.0,0.0,0.0,0.0,0.0,0.0,0.0,0.0,0.0,0.0,0.0,0.0,0.0,0.0,0.0,0.0,0.0,0.0,0.0,0.0,0.0,0.0,0.0,0.0,0.0,0.0,0.0,0.0,0.0,0.0,0.0,0.0,0.0,0.0,0.0,0.0,0.0,0.0,0.0,0.0,0.0,0.0,0.0,0.0,0.0,0.0,0.0,0.0,0.0,0.0,0.0,0.0,0.0,0.0,0.0,0.0,1.1065,0.9902,0.9962,0.0,0.8514,0.0,0.0,0.0,0.0,0.0,0.0,0.0,0.0,0.0,0.0,0.0,0.0,0.0,0.0,0.0,0.0,0.0,0.0,0.0,0.0,0.0,0.0,0.0,0.0,0.0,0.0,0.0,0.0,0.0,0.0,0.0,0.0,0.0,0.0,0.0,0.0,0.0,0.0,0.0,0.0,0.0,0.0,0.0,0.0,0.0,0.0,0.0,0.0,0.0,0.0,0.0,0.0,0.0,0.0,0.0,0.0,0.0,0.0,0.0,0.0,0.0,0.0,0.0,0.0,0.0,0.0,0.0,0.0,0.0,0.0,0.0,0.0,0.0,0.0,0.0,0.0,0.0,0.0,0.0,0.0,0.0,0.0,0.0,0.0,0.0,0.0,0.0,0.0,0.0,0.0,0.0,0.0,0.0,0.0,0.0,0.0,0.0,0.0,0.0,0.0,0.0,0.0,0.0,0.0,0.0,0.0,0.0,0.0,0.0,0.0,1.0017,0.9212,0.9354,0.8985,0.0,0.0,0.0,0.0,0.0,0.0,0.0,0.0,0.0,0.0,0.0,0.0,0.0,0.0,0.0,0.0,0.0,0.0,0.0,0.0,0.0,0.0,0.0,0.0,0.0,0.0,0.0,0.0,0.0,0.0,0.0,0.0,0.0,0.0,0.0,0.0,0.0,0.0,0.0,0.0,0.0,0.0,0.0,0.0,0.0,0.0,0.0,0.0,0.0,0.0,0.0,0.0,0.0,0.0,0.0,0.0,0.0,0.0,0.0,0.0,0.0,0.0,0.0,0.0,0.0,0.0,0.0,0.0,0.0,0.0,0.0,0.0,0.0,0.0,0.0,0.0,0.0,0.0,0.0,0.0,0.0,0.0,0.0,0.0,0.0,0.0,0.0,0.0,0.0,0.0,0.0,0.0,0.0,0.0,0.0,0.0,0.0,0.0,0.0,0.0,0.0,0.0,0.0,0.0,0.0,0.0,0.0,0.0,0.0,0.0,0.9392,0.9279,0.8654,0.8854,0.8601,0.7786,0.0,0.0,0.0,0.0,0.0,0.0,0.0,0.0,0.0,0.0,0.0,0.0,0.0,0.0,0.0,0.0,0.0,0.0,0.0,0.0,0.0,0.0,0.0,0.0,0.0,0.0,0.0,0.0,0.0,0.0,0.0,0.0,0.0,0.0,0.0,0.0,0.0,0.0,0.0,0.0,0.0,0.0,0.0,0.0,0.0,0.0,0.0,0.0,0.0,0.0,0.0,0.0,0.0,0.0,0.0,0.0,0.0,0.0,0.0,0.0,0.0,0.0,0.0,0.0,0.0,0.0,0.0,0.0,0.0,0.0,0.0,0.0,0.0,0.0,0.0,0.0,0.0,0.0,0.0,0.0,0.0,0.0,0.0,0.0,0.0,0.0,0.0,0.0,0.0,0.0,0.0,0.0,0.0,0.0,0.0,0.0,0.0,0.0,0.0,0.0,0.0,0.0,0.0,0.0,0.0,0.0,0.0,0.0,0.8301,0.9144,0.9193,0.8386,0.8564,0.8349,0.0,0.0,0.0,0.0,0.0,0.0,0.0,0.0,0.0,0.0,0.0,0.0,0.0,0.0,0.0,0.0,0.0,0.0,0.0,0.0,0.0,0.0,0.0,0.0,0.0,0.0,0.0,0.0,0.0,0.0,0.0,0.0,0.0,0.0,0.0,0.0,0.0,0.0,0.0,0.0,0.0,0.0,0.0,0.0,0.0,0.0,0.0,0.0,0.0,0.0,0.0,0.0,0.0,0.0,0.0,0.0,0.0,0.0,0.0,0.0,0.0,0.0,0.0,0.0,0.0,0.0,0.0,0.0,0.0,0.0,0.0,0.0,0.0,0.0,0.0,0.0,0.0,0.0,0.0,0.0,0.0,0.0,0.0,0.0,0.0,0.0,0.0,0.0,0.0,0.0,0.0,0.0,0.0,0.0,0.0,0.0,0.0,0.0,0.0,0.0,0.0,0.0,0.0,0.0,0.0,0.0,0.0,0.0,0.0,0.9315,0.9399,0.9298,0.8941,0.8625,0.8218,0.0,0.0,0.0,0.0,0.0,0.0,0.0,0.0,0.0,0.0,0.0,0.0,0.0,0.0,0.0,0.0,0.0,0.0,0.0,0.0,0.0,0.0,0.0,0.0,0.0,0.0,0.0,0.0,0.0,0.0,0.0,0.0,0.0,0.0,0.0,0.0,0.0,0.0,0.0,0.0,0.0,0.0,0.0,0.0,0.0,0.0,0.0,0.0,0.0,0.0,0.0,0.0,0.0,0.0,0.0,0.0,0.0,0.0,0.0,0.0,0.0,0.0,0.0,0.0,0.0,0.0,0.0,0.0,0.0,0.0,0.0,0.0,0.0,0.0,0.0,0.0,0.0,0.0,0.0,0.0,0.0,0.0,0.0,0.0,0.0,0.0,0.0,0.0,0.0,0.0,0.0,0.0,0.0,0.0,0.0,0.0,0.0,0.0,0.0,0.0,0.0,0.0,0.0,0.0,0.0,0.0,0.0,0.0,0.0,0.9853,0.0,0.8639,0.8707,0.8297,0.8077,0.0,0.0,0.0,0.0,0.0,0.0,0.0,0.0,0.0,0.0,0.0,0.0,0.0,0.0,0.0,0.0,0.0,0.0,0.0,0.0,0.0,0.0,0.0,0.0,0.0,0.0,0.0,0.0,0.0,0.0,0.0,0.0,0.0,0.0,0.0,0.0,0.0,0.0,0.0,0.0,0.0,0.0,0.0,0.0,0.0,0.0,0.0,0.0,0.0,0.0,0.0,0.0,0.0,0.0,0.0,0.0,0.0,0.0,0.0,0.0,0.0,0.0,0.0,0.0,0.0,0.0,0.0,0.0,0.0,0.0,0.0,0.0,0.0,0.0,0.0,0.0,0.0,0.0,0.0,0.0,0.0,0.0,0.0,0.0,0.0,0.0,0.0,0.0,0.0,0.0,0.0,0.0,0.0,0.0,0.0,0.0,0.0,0.0,0.0,0.0,0.0,0.0,0.0,0.0,0.0,0.0,0.0,0.0,0.9175,0.9736,0.8019,0.7301,0.75,0.7558,0.7906,0.0,0.0,0.0,0.0,0.0,0.0,0.0,0.0,0.0,0.0,0.0,0.0,0.0,0.0,0.0,0.0,0.0,0.0,0.0,0.0,0.0,0.0,0.0,0.0,0.0,0.0,0.0,0.0,0.0,0.0,0.0,0.0,0.0,0.0,0.0,0.0,0.0,0.0,0.0,0.0,0.0,0.0,0.0,0.0,0.0,0.0,0.0,0.0,0.0,0.0,0.0,0.0,0.0,0.0,0.0,0.0,0.0,0.0,0.0,0.0,0.0,0.0,0.0,0.0,0.0,0.0,0.0,0.0,0.0,0.0,0.0,0.0,0.0,0.0,0.0,0.0,0.0,0.0,0.0,0.0,0.0,0.0,0.0,0.0,0.0,0.0,0.0,0.0,0.0,0.0,0.0,0.0,0.0,0.0,0.0,0.0,0.0,0.0,0.0,0.0,0.0,0.0,0.0,0.0,0.0,0.0,0.0,0.0,0.0,0.849,0.7811,0.7916,0.8913,0.7652,0.7373,0.0,0.0,0.0,0.0,0.0,0.0,0.0,0.0,0.0,0.0,0.0,0.0,0.0,0.0,0.0,0.0,0.0,0.0,0.0,0.0,0.0,0.0,0.0,0.0,0.0,0.0,0.0,0.0,0.0,0.0,0.0,0.0,0.0,0.0,0.0,0.0,0.0,0.0,0.0,0.0,0.0,0.0,0.0,0.0,0.0,0.0,0.0,0.0,0.0,0.0,0.0,0.0,0.0,0.0,0.0,0.0,0.0,0.0,0.0,0.0,0.0,0.0,0.0,0.0,0.0,0.0,0.0,0.0,0.0,0.0,0.0,0.0,0.0,0.0,0.0,0.0,0.0,0.0,0.0,0.0,0.0,0.0,0.0,0.0,0.0,0.0,0.0,0.0,0.0,0.0,0.0,0.0,0.0,0.0,0.0,0.0,0.0,0.0,0.0,0.0,0.0,0.0,0.0,0.0,0.0,0.0,0.0,0.0,0.0,0.9354,0.8458,0.8416,0.9418,0.8022,0.7589,0.8332,0.0,0.0,0.0,0.0,0.0,0.0,0.0,0.0,0.0,0.0,0.0,0.0,0.0,0.0,0.0,0.0,0.0,0.0,0.0,0.0,0.0,0.0,0.0,0.0,0.0,0.0,0.0,0.0,0.0,0.0,0.0,0.0,0.0,0.0,0.0,0.0,0.0,0.0,0.0,0.0,0.0,0.0,0.0,0.0,0.0,0.0,0.0,0.0,0.0,0.0,0.0,0.0,0.0,0.0,0.0,0.0,0.0,0.0,0.0,0.0,0.0,0.0,0.0,0.0,0.0,0.0,0.0,0.0,0.0,0.0,0.0,0.0,0.0,0.0,0.0,0.0,0.0,0.0,0.0,0.0,0.0,0.0,0.0,0.0,0.0,0.0,0.0,0.0,0.0,0.0,0.0,0.0,0.0,0.0,0.0,0.0,0.0,0.0,0.0,0.0,0.0,0.0,0.0,0.0,0.0,0.0,0.0,0.0,1.2063,0.9853,0.8878,0.9158,0.8545,0.8346,0.0,0.0,0.0,0.0,0.0,0.0,0.0,0.0,0.0,0.0,0.0,0.0,0.0,0.0,0.0,0.0,0.0,0.0,0.0,0.0,0.0,0.0,0.0,0.0,0.0,0.0,0.0,0.0,0.0,0.0,0.0,0.0,0.0,0.0,0.0,0.0,0.0,0.0,0.0,0.0,0.0,0.0,0.0,0.0,0.0,0.0,0.0,0.0,0.0,0.0,0.0,0.0,0.0,0.0,0.0,0.0,0.0,0.0,0.0,0.0,0.0,0.0,0.0,0.0,0.0,0.0,0.0,0.0,0.0,0.0,0.0,0.0,0.0,0.0,0.0,0.0,0.0,0.0,0.0,0.0,0.0,0.0,0.0,0.0,0.0,0.0,0.0,0.0,0.0,0.0,0.0,0.0,0.0,0.0,0.0,0.0,0.0,0.0,0.0,0.0,0.0,0.0,0.0,0.0,0.0,0.0,0.0,0.0,0.0,1.4944,1.262,1.1095,1.0661,0.8693,0.8134,0.0,0.0,0.0,0.0,0.0,0.0,0.0,0.0,0.0,0.0,0.0,0.0,0.0,0.0,0.0,0.0,0.0,0.0,0.0,0.0,0.0,0.0,0.0,0.0,0.0,0.0,0.0,0.0,0.0,0.0,0.0,0.0,0.0,0.0,0.0,0.0,0.0,0.0,0.0,0.0,0.0,0.0,0.0,0.0,0.0,0.0,0.0,0.0,0.0,0.0,0.0,0.0,0.0,0.0,0.0,0.0,0.0,0.0,0.0,0.0,0.0,0.0,0.0,0.0,0.0,0.0,0.0,0.0,0.0,0.0,0.0,0.0,0.0,0.0,0.0,0.0,0.0,0.0,0.0,0.0,0.0,0.0,0.0,0.0,0.0,0.0,0.0,0.0,0.0,0.0,0.0,0.0,0.0,0.0,0.0,0.0,0.0,0.0,0.0,0.0,0.0,0.0,0.0,0.0,0.0,0.0,0.0,0.0,1.2476,1.6239,1.4608,1.3467,1.3103,0.9947,0.8319,0.0,0.0,0.0,0.0,0.0,0.0,0.0,0.0,0.0,0.0,0.0,0.0,0.0,0.0,0.0,0.0,0.0,0.0,0.0,0.0,0.0,0.0,0.0,0.0,0.0,0.0,0.0,0.0,0.0,0.0,0.0,0.0,0.0,0.0,0.0,0.0,0.0,0.0,0.0,0.0,0.0,0.0,0.0,0.0,0.0,0.0,0.0,0.0,0.0,0.0,0.0,0.0,0.0,0.0,0.0,0.0,0.0,0.0,0.0,0.0,0.0,0.0,0.0,0.0,0.0,0.0,0.0,0.0,0.0,0.0,0.0,0.0,0.0,0.0,0.0,0.0,0.0,0.0,0.0,0.0,0.0,0.0,0.0,0.0,0.0,0.0,0.0,0.0,0.0,0.0,0.0,0.0,0.0,0.0,0.0,0.0,0.0,0.0,0.0,0.0,0.0,0.0,0.0,0.0,0.0,0.0,0.0,0.0,1.2193,1.6391,1.5862,1.5484,1.5306,1.1386,0.8813,0.0,0.0,0.0,0.0,0.0,0.0,0.0,0.0,0.0,0.0,0.0,0.0,0.0,0.0,0.0,0.0,0.0,0.0,0.0,0.0,0.0,0.0,0.0,0.0,0.0,0.0,0.0,0.0,0.0,0.0,0.0,0.0,0.0,0.0,0.0,0.0,0.0,0.0,0.0,0.0,0.0,0.0,0.0,0.0,0.0,0.0,0.0,0.0,0.0,0.0,0.0,0.0,0.0,0.0,0.0,0.0,0.0,0.0,0.0,0.0,0.0,0.0,0.0,0.0,0.0,0.0,0.0,0.0,0.0,0.0,0.0,0.0,0.0,0.0,0.0,0.0,0.0,0.0,0.0,0.0,0.0,0.0,0.0,0.0,0.0,0.0,0.0,0.0,0.0,0.0,0.0,0.0,0.0,0.0,0.0,0.0,0.0,0.0,0.0,0.0,0.0,0.0,0.0,0.0,0.0,0.0,0.0,0.0,1.2175,1.6342,1.5913,1.5217,1.4405,1.062,0.9279,0.0,0.0,0.0,0.0,0.0,0.0,0.0,0.0,0.0,0.0,0.0,0.0,0.0,0.0,0.0,0.0,0.0,0.0,0.0,0.0,0.0,0.0,0.0,0.0,0.0,0.0,0.0,0.0,0.0,0.0,0.0,0.0,0.0,0.0,0.0,0.0,0.0,0.0,0.0,0.0,0.0,0.0,0.0,0.0,0.0,0.0,0.0,0.0,1.7015,0.0,0.0,0.0,0.0,0.0,0.0,0.0,0.0,0.0,0.0,0.0,0.0,0.0,0.0,0.0,0.0,0.0,0.0,0.0,0.0,0.0,0.0,0.0,0.0,0.0,0.0,0.0,0.0,0.0,0.0,0.0,0.0,0.0,0.0,0.0,0.0,0.0,0.0,0.0,0.0,0.0,0.0,0.0,0.0,0.0,0.0,0.0,0.0,0.0,0.0,0.0,0.0,0.0,0.0,0.0,0.0,0.0,0.0,0.0,1.474,1.6397,1.6134,1.5768,1.5126,1.1752,0.9963,0.0,0.0,0.0,0.0,0.0,0.0,0.0,0.0,0.0,0.0,0.0,0.0,0.0,0.0,0.0,0.0,0.0,0.0,0.0,0.0,0.0,0.0,0.0,0.0,0.0,0.0,0.0,0.0,0.0,0.0,0.0,0.0,0.0,0.0,0.0,0.0,0.0,0.0,0.0,0.0,0.0,0.0,0.0,0.0,0.0,0.0,0.0,0.0,0.0,0.0,0.0,0.0,0.0,0.0,0.0,0.0,0.0,0.0,0.0,0.0,0.0,0.0,0.0,0.0,0.0,0.0,0.0,0.0,0.0,0.0,0.0,0.0,0.0,0.0,0.0,0.0,0.0,0.0,0.0,0.0,0.0,0.0,0.0,0.0,0.0,0.0,0.0,0.0,0.0,0.0,0.0,0.0,0.0,0.0,0.0,0.0,0.0,0.0,0.0,0.0,0.0,0.0,0.0,0.0,0.0,0.0,0.0,1.4655,1.752,1.6729,1.6508,1.6459,1.6436,1.3339,1.0737,0.882,0.0,0.0,0.0,0.0,0.0,0.0,0.0,0.0,0.0,0.0,0.0,0.0,0.0,0.0,0.0,0.0,0.0,0.0,0.0,0.0,0.0,0.0,0.0,0.0,0.0,0.0,0.0,0.0,0.0,0.0,0.0,0.0,0.0,0.0,0.0,0.0,0.0,0.0,1.4534,1.3054,0.0,0.0,0.0,0.0,0.0,0.0,0.0,0.0,1.4536,0.0,0.0,0.0,0.0,0.0,0.0,0.0,0.0,0.0,0.0,0.0,0.0,0.0,0.0,0.0,0.0,0.0,0.0,0.0,0.0,0.0,0.0,0.0,0.0,0.0,0.0,0.0,0.0,0.0,0.0,0.0,0.0,0.0,0.0,0.0,0.0,0.0,0.0,0.0,0.0,0.0,0.0,0.0,0.0,0.0,0.0,0.0,0.0,0.0,0.0,0.0,0.0,0.0,0.0,0.0,0.0,0.8897,1.4063,1.6968,1.7415,1.6785,1.6467,1.6411,1.374,1.1685,1.0446,0.0,0.0,0.0,0.0,0.0,0.0,0.0,0.0,0.0,0.0,0.0,0.0,0.0,0.0,0.0,0.0,0.0,0.0,0.0,0.0,0.0,0.0,0.0,0.0,0.0,0.0,0.0,0.0,0.0,0.0,0.0,0.0,0.0,0.0,0.0,0.0,0.0,0.0,0.0,1.4855,1.3689,0.0,0.0,0.0,0.0,0.0,0.0,0.0,0.0,1.601,0.0,0.0,0.0,0.0,0.0,0.0,0.0,0.0,0.0,0.0,0.0,0.0,0.0,0.0,0.0,0.0,0.0,0.0,0.0,0.0,0.0,0.0,0.0,0.0,0.0,0.0,0.0,0.0,0.0,0.0,0.0,0.0,0.0,0.0,0.0,0.0,0.0,0.0,0.0,0.0,0.0,0.0,0.0,0.0,0.0,0.0,0.0,0.0,0.0,0.0,0.0,0.0,0.0,0.0,0.0,1.1233,1.5252,1.7567,1.7874,1.7551,1.7275,1.6999,1.4743,1.2942,0.0,0.0,0.0,0.0,0.0,0.0,0.0,0.0,0.0,0.0,0.0,0.0,0.0,0.0,0.0,0.0,0.0,0.0,0.0,0.0,0.0,0.0,0.0,0.0,0.0,0.0,0.0,0.0,0.0,0.0,0.0,0.0,0.0,0.0,0.0,0.0,0.0,0.0,0.0,0.0,1.5265,1.443,1.5274,0.0,0.0,0.0,0.0,0.0,0.0,1.5518,1.5423,0.0,0.0,0.0,0.0,0.0,0.0,0.0,0.0,0.0,0.0,0.0,0.0,0.0,0.0,0.0,0.0,0.0,0.0,0.0,0.0,0.0,0.0,0.0,0.0,0.0,0.0,0.0,0.0,0.0,0.0,0.0,0.0,0.0,0.0,0.0,0.0,0.0,0.0,0.0,0.0,0.0,0.0,0.0,0.0,0.0,0.0,0.0,0.0,0.0,0.0,0.0,0.0,0.0,0.0,0.0,1.3212,1.6971,1.8646,1.8163,1.8159,1.8075,1.7789,1.5233,1.3283,0.0,0.0,0.0,0.0,0.0,0.0,0.0,0.0,0.0,0.0,0.0,0.0,0.0,0.0,0.0,0.0,0.0,0.0,0.0,0.0,0.0,0.0,0.0,0.0,0.0,0.0,0.0,0.0,0.0,0.0,0.0,0.0,0.0,0.0,0.0,0.0,0.0,0.0,0.0,0.0,0.0,1.524,1.6241,1.4327,0.0,0.0,0.0,0.0,1.4167,1.463,0.0,0.0,0.0,0.0,0.0,0.0,0.0,0.0,0.0,0.0,0.0,0.0,0.0,0.0,0.0,0.0,0.0,0.0,0.0,0.0,0.0,0.0,0.0,0.0,0.0,0.0,0.0,0.0,0.0,0.0,0.0,0.0,0.0,0.0,0.0,0.0,0.0,0.0,0.0,0.0,0.0,0.0,0.0,0.0,0.0,0.0,0.0,0.0,0.0,0.0,0.0,0.0,0.0,0.0,0.0,0.0,1.3273,1.843,2.0062,1.8061,1.8092,1.8324,1.8516,1.402,1.1407,0.0,0.0,0.0,0.0,0.0,0.0,0.0,0.0,0.0,0.0,0.0,0.0,0.0,0.0,0.0,0.0,0.0,0.0,0.0,0.0,0.0,0.0,0.0,0.0,0.0,0.0,0.0,0.0,0.0,0.0,0.0,0.0,0.0,0.0,0.0,0.0,0.0,0.0,0.0,0.0,0.0,1.6407,1.7003,1.4953,1.3173,0.0,0.0,1.5717,1.5908,1.6625,0.0,0.0,0.0,0.0,0.0,0.0,0.0,0.0,0.0,0.0,0.0,0.0,0.0,0.0,0.0,0.0,0.0,0.0,0.0,0.0,0.0,0.0,0.0,0.0,0.0,0.0,0.0,0.0,0.0,0.0,0.0,0.0,0.0,0.0,0.0,0.0,0.0,0.0,0.0,0.0,0.0,0.0,0.0,0.0,0.0,0.0,0.0,0.0,0.0,0.0,0.0,0.0,0.0,0.0,0.0,1.0409,1.3681,1.7996,1.9658,1.8458,1.9152,1.951,1.9308,1.5058,1.2782,0.0,0.0,0.0,0.0,0.0,0.0,0.0,0.0,0.0,0.0,0.0,0.0,0.0,0.0,0.0,0.0,0.0,0.0,0.0,0.0,0.0,0.0,0.0,0.0,0.0,0.0,0.0,0.0,0.0,0.0,0.0,0.0,0.0,0.0,0.0,0.0,0.0,0.0,0.0,0.0,0.0,0.0,1.8155,1.6314,0.0,0.0,0.0,1.3949,1.2606,0.0,0.0,0.0,0.0,0.0,0.0,0.0,0.0,0.0,0.0,0.0,0.0,0.0,0.0,0.0,0.0,0.0,0.0,0.0,0.0,0.0,0.0,0.0,0.0,0.0,0.0,0.0,0.0,0.0,0.0,0.0,0.0,0.0,0.0,0.0,0.0,0.0,0.0,0.0,0.0,0.0,0.0,0.0,0.0,0.0,0.0,0.0,0.0,0.0,0.0,0.0,0.0,0.0,0.0,0.0,0.0,0.0,1.3923,1.7486,1.9138,1.8846,2.0182,2.0665,2.016,1.6819,0.0,0.0,0.0,0.0,0.0,0.0,0.0,0.0,0.0,0.0,0.0,0.0,0.0,0.0,0.0,0.0,0.0,0.0,0.0,0.0,0.0,0.0,0.0,0.0,0.0,0.0,0.0,1.015,0.0,0.0,0.0,0.0,0.0,0.0,0.0,0.0,0.0,0.0,0.0,0.0,0.0,0.0,1.9669,1.897,1.7548,1.6041,0.0,0.0,1.2933,1.1631,1.3654,1.4467,0.0,0.0,0.0,0.0,0.0,0.0,0.0,0.0,0.0,0.0,0.0,0.0,0.0,0.0,0.0,0.0,0.0,0.0,0.0,0.0,0.0,0.0,0.0,0.0,0.0,0.0,0.0,0.0,0.0,0.0,0.0,0.0,0.0,0.0,0.0,0.0,0.0,0.0,0.0,0.0,0.0,0.0,0.0,0.0,0.0,0.0,0.0,0.0,0.0,0.0,0.0,0.0,0.0,0.0,0.0,1.3809,1.7435,1.9268,1.9095,2.0637,2.1418,2.1368,1.8815,1.6028,0.0,0.0,0.0,0.0,0.0,0.0,0.0,0.0,0.0,0.0,0.0,0.0,0.0,0.0,0.0,0.0,0.0,0.0,0.0,0.0,0.0,0.0,0.0,0.0,0.0,0.0,0.0,0.0,0.0,0.0,0.0,0.0,0.0,0.0,0.0,0.0,0.0,0.0,0.0,0.0,0.0,1.9782,1.9239,1.8497,1.802,0.0,0.0,1.4213,1.6465,1.6678,1.5708,1.3215,0.0,0.0,0.0,0.0,0.0,0.0,0.0,0.0,0.0,0.0,0.0,0.0,0.0,0.0,0.0,0.0,0.0,0.0,0.0,0.0,0.0,0.0,0.0,0.0,0.0,0.0,0.0,0.0,0.0,0.0,0.0,0.0,0.0,0.0,0.0,0.0,0.0,0.0,0.0,0.0,0.0,0.0,0.0,0.0,0.0,0.0,0.0,0.0,0.0,0.0,0.0,0.0,0.0,1.1272,1.3807,1.7917,1.975,1.9194,2.1281,2.2347,2.202,1.9506,1.6696,0.0,0.0,0.0,0.0,0.0,0.0,0.0,0.0,0.0,0.0,0.0,0.0,0.0,0.0,0.0,0.0,0.0,0.0,0.0,0.0,0.0,0.0,0.0,0.0,0.0,0.0,0.0,0.0,1.366,1.3176,1.1378,0.0,0.0,0.0,0.0,0.0,0.0,0.0,0.0,0.0,0.0,2.151,2.3092,2.2473,0.0,0.0,1.8114,1.6018,1.5431,1.5507,1.4508,1.1264,0.9952,0.0,0.0,0.0,0.0,0.0,0.0,0.0,0.0,0.0,0.0,0.0,0.0,0.0,0.0,0.0,0.0,0.0,0.0,0.0,0.0,0.0,0.0,0.0,0.0,0.0,0.0,0.0,0.0,0.0,0.0,0.0,0.0,0.0,0.0,0.0,0.0,0.0,0.0,0.0,0.0,0.0,0.0,0.0,0.0,0.0,0.0,0.0,0.0,0.0,0.0,0.0,0.0,1.2315,1.3972,1.817,2.0038,1.956,2.168,2.2685,2.2489,2.0783,1.8401,0.0,0.0,0.0,0.0,0.0,0.0,0.0,0.0,0.0,0.0,0.0,0.0,0.0,0.0,0.0,0.0,0.0,0.0,0.0,0.0,0.0,0.0,0.0,0.0,0.0,0.0,0.0,0.0,1.3952,1.3195,1.1469,0.0,0.0,0.0,0.0,0.0,0.0,0.0,0.0,0.0,0.0,2.3002,2.4223,2.3857,2.2759,2.085,1.8247,1.6087,1.4798,1.4344,1.3391,1.102,0.0,0.0,0.0,0.0,0.0,0.0,0.0,0.0,0.0,0.0,0.0,0.0,0.0,0.0,0.0,0.0,0.0,0.0,0.0,0.0,0.0,0.0,0.0,0.0,0.0,0.0,0.0,0.0,0.0,0.0,0.8767,0.0,0.0,0.0,0.0,0.0,0.0,0.0,0.0,0.0,0.0,0.0,0.0,0.0,0.0,0.0,0.0,0.0,0.0,0.0,0.0,0.0,0.0,1.3535,1.4392,1.7864,1.9982,2.0523,2.1479,2.231,2.298,2.3015,2.1512,1.8401,0.0,0.0,0.0,0.0,0.0,0.0,0.0,0.0,0.0,0.0,0.0,0.0,0.0,0.0,0.0,0.0,0.0,0.0,0.0,0.0,0.0,0.0,0.0,0.0,0.0,0.0,0.9813,1.0151,1.0647,0.0,0.0,0.0,0.0,0.0,0.0,0.0,0.0,0.0,0.0,2.0429,2.3959,2.1396,2.1439,2.0896,1.8405,1.5464,1.3961,1.5462,1.3951,1.274,0.0,0.0,0.0,0.0,0.0,0.0,0.0,0.0,0.0,0.0,0.0,0.0,0.0,0.0,0.0,0.0,0.0,0.0,0.0,0.0,0.0,0.0,0.0,0.0,0.0,0.0,0.0,0.9199,0.752,0.0,0.0,0.0,0.0,0.0,0.0,0.0,0.0,0.0,0.0,0.0,0.9703,1.0187,0.0,0.0,0.0,0.0,0.0,0.0,0.0,0.0,0.0,0.0,0.0,0.0,1.2501,1.4451,1.7144,1.8956,1.9727,2.1164,2.2002,2.231,2.2823,2.1402,1.7864,0.0,0.0,0.0,0.0,0.0,0.0,0.0,0.0,0.0,0.0,0.0,0.0,0.0,0.0,0.0,0.0,0.0,0.0,0.0,0.0,0.0,0.0,0.0,0.0,0.0,1.2249,0.0,0.0,0.0,0.0,0.0,0.0,0.0,0.0,0.0,0.0,0.0,1.3219,1.6569,1.7434,1.8253,1.9698,2.039,2.0785,0.0,0.0,0.0,0.0,0.0,0.0,0.0,0.0,0.0,0.0,0.0,0.0,0.0,0.0,0.3952,0.4065,0.3278,0.3464,0.6086,0.0,0.0,0.0,0.0,0.0,0.0,0.0,0.0,0.0,0.0,0.0,0.0,0.0,0.0,1.0912,0.0,1.0755,0.0,0.0,0.0,0.0,0.0,0.0,0.0,0.0,1.0952,1.0953,1.1694,1.1992,1.2373,0.0,1.2679,1.243,0.0,0.0,0.0,0.0,0.0,0.0,0.0,0.0,1.201,1.37,1.6562,1.8441,1.9333,2.0523,2.1346,2.1877,2.2702,2.18,1.9061,1.6002,1.2711,0.0,0.0,0.0,0.0,0.0,0.0,0.0,0.0,0.0,0.0,0.0,0.0,0.0,0.0,0.0,0.0,0.0,0.0,0.0,0.0,0.0,0.0,0.0,1.2755,0.0,0.0,0.0,0.0,0.0,0.0,0.0,0.0,0.0,1.3879,1.3324,1.3755,1.719,1.7339,1.7306,1.7712,0.0,0.0,0.0,0.0,0.0,0.0,0.0,1.4482,1.2045,1.2364,1.2497,1.1345,0.9292,0.756,0.7019,0.0,0.0,0.0822,0.0191,0.0065,0.0521,-0.2849,-0.6053,-0.7104,-0.6647,-0.5942,0.0,0.0,0.0,0.0,0.0,0.0,0.0,0.0,1.5267,1.4237,0.0,1.3811,0.0,0.0,0.0,0.0,0.0,1.3896,0.0,0.0,1.4889,1.3966,1.3249,1.3111,1.304,1.2979,1.2539,1.3678,1.6249,1.7552,0.0,0.0,0.0,0.0,0.0,0.0,1.1904,1.2704,1.6196,1.8414,1.9243,1.9511,2.0389,2.1854,2.2702,2.2702,2.183,1.8997,1.7031,1.5991,1.1395,0.0,0.0,0.0,0.0,0.0,0.0,0.0,0.0,0.0,0.0,0.0,0.0,0.0,0.0,0.0,0.0,0.0,0.0,0.0,0.0,1.333,0.0,0.0,0.0,0.0,0.0,0.0,0.0,0.0,0.0,0.0,1.6877,1.6203,1.507,1.5794,0.0,0.0,0.0,0.0,1.8626,1.3023,1.4148,1.4791,1.1809,1.4241,1.6275,1.5538,0.0,0.0,1.5856,1.2243,0.9407,0.8209,0.6163,0.2889,-0.1077,-0.1137,-0.2006,-0.5299,-0.6125,-0.7061,-0.8491,-0.8322,-0.8026,1.1094,0.0,0.0,0.0,0.0,0.8713,1.0567,1.3673,1.6157,1.6386,1.5124,1.7291,0.0,0.0,0.0,0.0,0.0,0.0,1.72,1.8148,1.7532,1.7169,1.7148,1.6996,1.729,1.7899,1.7254,1.8726,2.2178,2.2911,1.9894,1.3528,0.0,0.0,0.0,0.0,1.115,1.696,1.782,1.8121,1.8395,1.842,1.9555,2.1877,2.2702,2.2702,2.1939,2.043,1.857,1.6178,1.4427,0.0,0.0,0.0,0.0,0.0,0.0,0.0,0.0,0.0,0.0,0.0,0.0,0.0,0.0,0.0,0.0,0.0,0.0,0.0,1.2517,1.474,1.4189,0.0,0.0,0.0,0.0,0.0,0.0,0.0,0.0,0.0,1.6189,1.6649,1.5876,0.0,0.0,1.0725,1.0258,1.3559,1.6107,1.6484,1.6802,0.0,1.9352,2.0832,2.0886,1.8408,1.8879,1.9186,1.8004,1.6021,1.4428,1.3961,1.0645,0.7997,0.7978,0.2911,-0.1395,-0.3165,-0.3743,-0.3657,-0.2921,-0.422,-0.5649,1.8791,1.396,1.2797,1.2089,1.1604,1.0071,1.1941,1.6275,1.8915,1.9146,1.7792,2.0692,2.0176,1.6924,1.2253,0.0,0.0,0.0,2.0852,2.2398,2.178,2.1558,2.1642,2.0886,2.1018,2.1838,2.1554,2.2901,2.5613,2.4638,2.181,1.7222,0.0,0.0,1.5652,1.2695,1.3657,1.8563,1.8338,1.8029,1.7986,1.8639,1.9964,2.1815,2.2702,2.2884,2.2372,2.1227,1.9727,1.7926,1.6374,1.4033,0.0,0.0,0.0,0.0,0.0,0.0,0.0,0.0,0.0,0.0,0.0,1.2112,1.1075,0.0,0.0,0.0,1.417,1.3995,1.3374,1.4291,0.0,0.0,0.0,0.0,0.0,0.0,0.0,0.9603,1.276,1.5198,1.5742,1.7287,1.7821,1.6461,1.409,1.2439,1.2158,0.0,1.8362,1.9374,1.8107,1.8293,2.2141,2.3623,2.3925,2.336,2.2952,2.2413,2.1536,2.0389,1.9375,1.8623,1.5843,1.378,1.5093,0.9979,0.4509,0.1625,0.0663,0.0952,0.2478,0.0802,-0.0805,2.7968,2.212,1.7867,1.6497,1.6717,1.2789,1.4355,1.9709,2.2708,2.2377,1.999,2.3905,2.2937,1.8206,1.8433,0.0,2.7573,2.4148,2.4395,2.7614,2.675,2.6345,2.6237,2.4645,2.4325,2.5101,2.5459,2.6155,2.7059,2.4554,2.3599,2.4268,2.3492,2.1865,1.9469,1.8248,1.8155,1.91,1.8699,1.838,1.8207,1.9749,2.0955,2.1753,2.2494,2.2884,2.2823,2.1353,2.0526,2.0398,1.7483,1.5209,1.3935,0.0,0.0,0.0,0.0,0.0,0.0,0.0,0.0,0.0,0.0,0.0,0.0,0.0,0.0,0.0,1.5845,0.0,1.5872,1.3318,0.0,0.0,0.0,1.0441,1.2827,1.1808,1.26,1.6973,0.0,0.0,1.6699,1.8953,2.0932,2.2415,2.2287,2.1032,1.8261,2.1146,2.3364,2.1875,1.9347,1.8869,2.3093,2.4654,2.6338,2.8562,2.8646,2.7225,2.5846,2.4734,2.3882,2.3306,2.1216,1.9635,1.9836,1.8141,1.5137,0.8559,0.6879,0.6794,0.7564,0.6688,0.6079,2.8569,2.4076,2.374,2.3352,2.2472,1.8771,1.8955,2.2034,2.5298,2.627,2.5766,2.77,2.7758,2.6565,2.7552,2.8381,2.91,2.8195,2.8257,2.9025,2.8277,2.7855,2.7825,2.7352,2.7201,2.7414,2.8302,2.8983,2.9497,2.9387,2.9482,2.9573,2.8556,2.5985,2.1918,1.7312,1.9425,2.8226,2.4065,2.1257,2.0049,2.0044,2.0313,2.091,2.1101,2.1164,2.1164,2.0204,1.9617,1.9573,1.8854,1.7009,1.4053,1.2896,0.0,0.0,0.0,0.0,0.0,0.0,0.0,0.0,0.0,1.1735,0.9475,0.0,1.1647,0.0,1.6478,1.9651,1.9794,1.8596,0.0,0.0,1.3108,1.2425,1.3388,1.4587,1.5869,1.7353,2.0053,2.3028,2.6101,2.5845,2.6022,2.7417,2.2047,1.8079,1.846,2.1536,2.4298,2.5414,2.6621,2.8261,2.9467,2.9956,2.9949,3.0269,3.0083,2.9546,2.8512,2.7543,2.6992,2.7211,2.5506,2.4167,2.4216,2.3603,2.238,1.9961,1.6825,1.4261,1.4504,1.413,1.3884,3.0478,2.8993,2.9109,2.8961,2.8429,2.4173,2.3278,2.4958,2.7152,2.7931,2.7731,2.9826,3.0815,3.11,3.1825,3.1531,3.0481,3.0176,3.0008,2.9983,2.9537,2.9516,2.9752,2.9311,2.9302,2.9631,2.9936,3.0444,3.1334,3.1747,3.2135,3.2407,3.1777,2.8643,2.3128,1.7816,1.8682,2.5718,2.2268,2.0823,2.1823,2.1039,2.0223,1.9533,1.9319,1.8743,1.7836,1.6954,1.6515,1.6468,1.6296,1.5088,1.2708,1.1892,1.049,0.0,0.0,0.0,0.0,0.0,0.0,0.0,0.0,0.0,0.0,0.0,1.2683,1.2586,1.7649,2.0817,2.0289,1.9833,1.8947,1.7554,1.6399,1.598,1.664,1.7752,1.8714,1.9442,2.2193,2.5111,2.7802,2.7612,2.7591,2.8846,2.4613,2.1761,2.2644,2.4804,2.689,2.8473,3.0212,3.1819,3.2793,3.2994,3.2611,3.1789,3.2013,3.1934,3.0537,3.0104,2.99,2.9602,2.8264,2.7187,2.7428,2.6914,2.6394,2.6098,2.4177,2.1938,2.089,2.0068,1.935,3.2758,3.4248,3.3208,3.3203,3.359,2.9069,2.7413,2.7929,2.8883,2.8858,2.8306,3.1366,3.2923,3.3345,3.3741,3.3339,3.2274,3.1677,3.1331,3.1157,3.1041,3.1343,3.1829,3.1131,3.1102,3.1709,3.1043,3.139,3.268,3.2765,3.302,3.3646,3.3637,3.0776,2.5149,2.026,1.7636,1.7333,1.7376,1.9121,2.248,2.1081,1.9406,1.7671,1.6999,1.5854,1.4039,1.3235,1.281,1.2825,1.2463,1.1992,1.139,1.0317,0.9499,0.0,0.7427,0.0,0.0,0.0,0.0,0.0,0.0,0.0,0.0,1.4922,1.4883,1.5796,1.9083,2.0849,2.0191,2.0073,2.0414,2.1403,2.0508,2.0134,2.1013,2.1091,2.1298,2.2264,2.3136,2.4422,2.6511,2.6934,2.7468,2.8454,2.8047,2.7351,2.7799,2.8556,2.9546,3.0554,3.1344,3.2399,3.3324,3.4119,3.4023,3.2972,3.3278,3.3609,3.1571,3.1627,3.1726,3.0578,2.969,2.9219,2.9368,2.8677,2.8445,2.8873,2.8213,2.722,2.5816,2.4386,2.3522,3.3607,3.4306,3.3712,3.4165,3.5136,3.3077,3.1276,2.9862,3.139,3.1819,3.1667,3.4145,3.5021,3.4719,3.6392,3.6977,3.6645,3.586,3.5286,3.48,3.4175,3.3963,3.4026,3.3297,3.3045,3.3182,3.3045,3.3098,3.3391,3.3391,3.363,3.4057,3.4061,3.382,3.2989,0.0,0.0,0.0,1.6336,1.9469,1.7781,1.5602,1.4339,1.4158,1.3266,0.0,1.2225,1.204,1.1921,1.1935,1.215,0.0,0.0,0.0,0.0,0.0,0.0,0.0,0.0,0.0,0.0,0.0,1.0719,1.0224,1.1859,1.2787,1.4837,1.854,2.0428,2.2713,2.5901,2.5585,2.5698,2.6893,2.4814,2.3525,2.4084,2.3416,2.3305,2.4348,2.4636,2.5648,2.7866,2.8091,2.8408,2.9662,2.9545,2.9235,2.9175,2.9358,2.9962,3.11,3.2297,3.3246,3.354,3.4105,3.4023,3.2976,3.2684,3.2392,3.1062,3.0388,3.0226,2.9744,2.9584,2.9295,2.8888,2.8556,2.8473,2.8685,2.8222,2.781,2.7849,2.7238,2.6515,3.3195,0.0,3.5862,3.6583,0.0,3.6537,3.4982,3.2884,3.2733,3.2649,3.2872,3.5545,3.6186,3.5377,3.7415,3.8912,3.9705,3.7702,3.6411,3.5808,3.5433,3.5273,3.5241,3.4835,3.4675,3.4675,3.4675,3.4482,3.4162,3.4162,3.4257,3.4414,3.4667,3.5413,3.6353,3.38,2.6238,1.3618,1.9341,2.0514,1.686,1.7423,1.7602,1.7154,0.0,0.0,0.0,0.0,0.0,0.0,0.0,0.0,0.0,0.0,0.0,1.3092,1.1453,1.0868,1.1949,1.0828,1.0998,1.3074,1.2734,1.282,1.3617,1.5389,1.7946,2.1582,2.2912,2.487,2.8201,2.8274,2.8198,2.86,2.6764,2.5256,2.4709,2.3974,2.3745,2.4181,2.4707,2.5742,2.7433,2.7568,2.8091,2.958,2.9369,2.9182,2.951,2.9803,3.04,3.1373,3.2363,3.2929,3.2772,3.347,3.3645,3.238,3.2342,3.2006,3.0752,3.0299,2.9924,2.9335,2.91,2.8951,2.8656,2.8517,2.8606,2.8842,2.8432,2.8125,2.8415,2.8008,2.7357,3.31,3.6001,3.768,3.8603,3.8924,3.921,3.8261,3.6424,0.0,0.0,0.0,3.6103,3.6681,3.5776,3.8044,4.0114,4.158,3.9044,3.7436,3.6698,3.6568,3.6482,3.6356,3.6226,3.6097,3.5999,3.6129,3.5699,3.4897,3.4993,3.4931,3.4832,3.5256,3.6137,3.7272,3.7524,3.2925,2.3852,2.4374,2.2809,1.8757,2.0636,2.1274,2.0292,1.834,1.6455,1.4755,1.4477,1.3948,1.2999,1.2971,1.323,1.3575,1.2643,1.2438,1.3175,1.2038,1.1522,1.1886,1.1907,1.2439,1.3837,1.5057,1.604,1.6703,1.8648,2.0948,2.3533,2.4935,2.6734,2.8991,2.9376,2.9378,2.9369,2.7903,2.6502,2.5627,2.4821,2.466,2.4539,2.537,2.5926,2.6561,2.7,2.7615,2.8848,2.8915,2.8797,2.9555,3.0188,3.0659,3.1409,3.2026,3.2204,3.1873,3.256,3.2783,3.1529,3.1817,3.1715,3.0554,3.0134,2.9613,2.8591,2.8427,2.8414,2.8327,2.8301,2.8559,2.9166,2.8764,2.8367,2.8415,2.7879,2.7203,3.523,3.7456,3.7297,3.7938,3.9075,4.0246,4.0562,3.9951,3.6659,3.4742,3.4162,3.5805,3.6199,3.5795,3.9368,4.1288,4.1796,4.1848,4.1251,0.0,3.9512,3.899,3.8522,3.7917,3.7278,3.674,3.7312,3.687,3.5694,3.6102,3.6055,3.5443,3.5486,3.5859,3.6556,3.6103,3.4836,3.27,3.0677,2.8199,2.5154,2.0038,1.7153,1.6808,1.6482,1.6043,1.5701,1.4947,1.384,1.2586,1.2799,1.3667,1.4997,1.4223,1.4789,1.704,1.5514,1.4126,1.3613,1.3274,1.3368,1.3933,1.5045,1.6317,1.749,1.8771,2.0159,2.1636,2.4429,2.6816,2.7997,2.859,2.95,3.0815,2.9389,2.8585,2.9411,2.8719,2.8027,2.7841,2.8239,2.8103,2.7736,2.8244,2.8789,2.9226,2.9203,2.9406,3.0093,3.0432,3.0761,3.1327,3.1595,3.1595,3.1414,3.2124,3.2013,3.0866,3.0783,3.0479,2.9211,2.8583,2.8173,2.782,2.785,2.781,2.776,2.771,2.8008,2.8511,2.8174,2.7959,2.8319,2.753,2.6602,3.6348,3.8965,3.9834,4.0352,4.0929,4.2997,4.3048,4.1626,4.0849,3.8683,3.6128,3.8031,3.8649,3.8261,4.0237,4.1717,4.2732,4.2376,4.1768,4.0932,4.0539,3.9884,3.9023,3.9009,3.8672,3.8037,3.8722,3.8137,3.6409,3.6583,3.5875,3.4349,3.4877,3.5363,3.5712,3.6248,3.5568,3.3545,3.1982,2.9921,2.7409,2.2979,2.1178,2.2143,2.0815,2.0323,2.0813,2.0393,1.9433,1.7934,1.7917,1.8006,1.8217,1.7502,1.7416,1.8099,1.6936,1.5521,1.3945,1.3767,1.3743,1.3957,1.5045,1.6021,1.6574,1.8395,2.0025,2.1194,2.3394,2.5378,2.6966,2.7449,2.8456,3.0429,2.9889,2.9671,2.9954,3.0156,2.9904,2.952,2.9838,2.9961,2.9628,2.9905,3.0186,3.0366,2.993,2.9668,3.0192,2.9755,2.9609,3.0396,3.069,3.0514,3.0105,3.0365,3.0508,3.0012,2.9695,2.9296,2.8583,2.8008,2.769,2.756,2.759,2.756,2.759,2.756,2.776,2.786,2.786,2.776,2.778,2.6916,2.5851,3.7571,4.0483,4.2194,4.2855,4.2925,4.4804,4.4561,4.3152,4.4095,4.233,3.909,4.0306,4.0629,4.0188,4.0638,4.1858,4.3215,4.2455,4.1753,4.1359,4.1139,4.0431,3.9268,3.9659,3.9354,3.8602,3.9196,3.8525,3.6741,3.6667,3.5703,3.3901,3.467,3.5136,3.5165,3.6315,3.5554,3.2775,3.1721,3.0103,2.7748,2.5774,2.5503,2.6648,2.4987,2.4368,2.5229,2.5158,2.4487,2.3479,2.2594,2.1788,2.0938,1.9916,1.9091,1.8365,1.7445,1.6188,1.4518,1.4064,1.4076,1.4364,1.5235,1.5927,1.6386,1.8211,1.9861,2.0836,2.2561,2.4382,2.6108,2.6653,2.7519,2.9605,3.0215,3.0475,3.0389,3.1015,3.1293,3.0704,3.1143,3.1468,3.107,3.1132,3.1183,3.0953,3.0192,2.9638,2.9721,2.8866,2.8591,2.8965,2.9643,2.9675,2.8785,2.8907,2.9144,2.9191,2.8892,2.8651,2.8475,2.8223,2.809,2.8128,2.815,2.818,2.812,2.7919,2.794,2.7961,2.779,2.756,2.7306,2.6361,2.5245,3.9632,4.1358,4.2617,4.3538,4.4165,4.3707,4.4141,4.5044,4.477,4.3999,4.2584,4.0983,4.0257,4.0188,4.0707,4.189,4.3365,4.2889,4.2655,4.2564,4.2043,4.1056,3.9908,3.9292,3.8275,3.7191,3.7762,3.7355,3.5851,3.6257,3.6105,3.54,3.5389,3.5413,3.5466,3.5613,3.4683,3.2621,3.0846,2.8892,2.683,2.6453,2.6127,2.5777,2.5583,2.5685,2.6332,2.5441,2.5372,2.5849,2.3886,2.2405,2.1719,1.9954,1.8853,1.8742,1.697,1.5805,1.5534,1.4555,1.4459,1.5439,1.5724,1.6292,1.7311,1.8688,1.9497,2.0206,2.2678,2.4957,2.6356,2.6932,2.7956,2.9825,3.0599,3.1277,3.2302,3.3059,3.293,3.2083,3.2547,3.2507,3.0906,3.1233,3.1565,3.071,2.984,2.9057,2.8624,2.8144,2.7639,2.7543,2.8211,2.8955,2.8761,2.8518,2.8355,2.8368,2.8477,2.8462,2.8568,2.8959,2.9385,2.9026,2.9235,2.9175,2.9116,2.8966,2.8517,2.8308,2.7957,2.7467,2.6788,2.6181,2.5438,4.1225,4.3008,4.3164,4.417,4.5511,4.5082,4.5329,4.6081,4.5601,4.4948,4.3956,4.2189,4.0909,4.0202,4.1606,4.2484,4.2835,4.327,4.3289,4.2987,4.1856,4.0577,3.9414,3.8602,3.7687,3.6825,3.743,3.7255,3.6168,3.5446,3.509,3.5175,3.4815,3.4815,3.5166,3.5379,3.4368,3.2088,3.0555,2.8946,2.7278,2.6479,2.6511,2.7184,2.5995,2.5887,2.6986,2.6939,2.6724,2.6467,2.4934,2.3588,2.2656,2.09,1.957,1.8791,1.6936,1.5832,1.5832,1.5343,1.5248,1.5832,1.5832,1.6008,1.6574,1.8303,1.9497,1.9861,2.2082,2.4467,2.6213,2.6689,2.7696,2.9631,3.1119,3.1778,3.1361,3.2844,3.3347,3.2178,3.2967,3.3187,3.1718,3.1521,3.1538,3.0736,2.9711,2.8464,2.7671,2.6818,2.6112,2.5845,2.6155,2.6839,2.7397,2.7471,2.7387,2.7551,2.7997,2.8392,2.8531,2.9109,2.9564,2.9624,2.9684,2.9684,2.9505,2.9415,2.9086,2.8786,2.8547,2.8174,2.8267,2.77,2.6863,4.2252,4.3619,4.3924,4.5033,4.6605,4.6486,4.6476,4.6605,4.6192,4.5635,4.4865,4.3223,4.2063,4.1521,4.2025,4.2174,4.2279,4.2817,4.2886,4.2347,4.1133,3.983,3.8571,3.7707,3.6878,3.6316,3.6595,3.6499,3.5854,3.4545,3.4171,3.4626,3.4622,3.4675,3.4934,3.5281,3.4773,3.3142,3.1043,2.9505,2.89,2.7355,2.705,2.8069,2.6558,2.6276,2.7679,2.7974,2.7829,2.7152,2.5853,2.4494,2.3104,2.136,1.9635,1.8128,1.6621,1.5832,1.5832,1.6103,1.6197,1.5913,1.6386,1.6842,1.7217,1.8764,2.0025,2.0674,2.2138,2.3973,2.563,2.6318,2.7383,2.9184,3.0913,3.1451,3.0831,3.2221,3.2687,3.1903,3.2579,3.3197,3.2544,3.2394,3.2317,3.1567,2.9813,2.818,2.7282,2.6007,2.4911,2.4887,2.4899,2.5242,2.5975,2.6155,2.6301,2.6762,2.7322,2.7928,2.828,2.9057,2.977,2.9925,2.9971,3.0133,3.0313,3.0133,2.9654,2.9062,2.8717,2.8645,2.8777,2.831,2.7367,4.2807,4.2871,4.4953,4.6203,4.6811,4.7242,4.7208,4.6801,4.6269,4.6001,4.5624,4.4004,4.36,4.3811,4.1297,4.0729,4.1749,4.1262,4.1064,4.0941,4.0104,3.8979,3.7748,3.6637,3.571,3.4934,3.4522,3.4363,3.4168,3.3652,3.3707,3.4183,3.5018,3.5397,3.4924,3.5235,3.5846,3.5395,3.2164,3.0719,3.1911,2.951,2.7822,2.7472,2.7221,2.7468,2.8075,2.8147,2.8251,2.8509,2.653,2.4695,2.2899,2.0748,1.8441,1.6344,1.59,1.5832,1.6008,1.6857,1.7138,1.6386,1.7948,1.9222,1.9039,2.0206,2.1391,2.2687,2.2862,2.3627,2.4872,2.5964,2.7058,2.8323,2.968,3.0692,3.1061,3.1221,3.1335,3.153,3.1931,3.2489,3.2967,3.3844,3.3332,3.2195,3.0373,2.8781,2.7921,2.6197,2.5103,2.4946,2.4924,2.4833,2.4922,2.5279,2.5499,2.5913,2.6649,2.7238,2.8195,2.9092,2.9714,3.0335,3.0631,3.0891,3.1126,3.0941,3.0313,2.9669,2.8905,2.8739,2.9024,2.7235,2.6546,4.3027,4.4432,4.6215,4.7206,4.7564,4.8199,4.8071,4.7496,4.7293,4.6394,4.5024,4.3744,4.2526,4.1194,4.0121,3.9835,4.0384,4.111,4.1523,4.1365,4.029,3.9058,3.7812,3.5793,3.4231,3.3274,3.2332,3.1439,3.0728,3.0423,3.0598,3.1428,3.2855,3.3539,3.3704,3.4832,3.4978,3.3891,3.3581,3.3131,3.1577,3.0328,2.9114,2.7925,2.7822,2.8222,2.9126,2.9176,2.8793,2.8028,2.6043,2.3928,2.1603,1.9529,1.7591,1.6008,1.5832,1.6197,1.6936,1.7404,1.787,1.8211,1.8948,1.9588,1.9679,2.0567,2.148,2.1943,2.2755,2.3541,2.4702,2.5797,2.7221,2.8978,3.0213,3.0708,3.0667,3.1235,3.183,3.1612,3.2055,3.2844,3.3054,3.33,3.2675,3.1275,2.9865,2.8678,2.7515,2.6193,2.5214,2.4976,2.4874,2.4833,2.4833,2.5159,2.5456,2.5602,2.5973,2.6733,2.7633,2.8278,2.8909,2.9975,3.0629,3.1014,3.1101,3.1354,3.0814,3.0648,2.984,2.9262,2.9204,2.7931,2.7468,4.3463,4.544,4.7274,4.7925,4.7939,4.8624,4.8714,4.824,4.8003,4.7172,4.5824,4.4043,4.174,3.9595,3.9056,3.8668,3.8622,4.0262,4.0872,4.0225,3.8849,3.7252,3.5328,3.2725,3.0817,2.9522,2.8003,2.6802,2.6277,2.6517,2.7195,2.8186,3.0302,3.1751,3.2486,3.4213,3.4382,3.35,3.3503,3.2489,3.0959,2.9984,2.909,2.814,2.8011,2.8336,2.9234,2.9624,2.939,2.8131,2.5937,2.2926,1.9385,1.7517,1.6225,1.5473,1.5774,1.6348,1.7174,1.7837,1.8503,1.8948,2.0042,2.0584,2.0296,2.1212,2.1765,2.212,2.258,2.3647,2.5041,2.6047,2.7221,2.8978,3.0012,3.0439,3.0291,3.1043,3.1388,3.1541,3.2291,3.2797,3.2634,3.2232,3.1344,3.0078,2.9129,2.812,2.738,2.6284,2.5542,2.5166,2.4975,2.4833,2.4908,2.5209,2.546,2.5597,2.5855,2.6453,2.6921,2.7561,2.8388,2.9459,3.0269,3.0718,3.1102,3.1387,3.1474,3.1422,3.0896,3.022,2.9714,2.8954,2.822,4.3874,4.5287,4.7869,4.81,4.7638,4.848,4.8923,4.8692,4.8213,4.8178,4.7935,4.482,4.1679,3.9571,3.7965,3.6959,3.5967,3.737,3.7783,3.6831,3.5599,3.3619,3.1023,2.8387,2.5839,2.3967,2.1553,2.0685,2.1195,2.1867,2.3105,2.5176,2.7577,2.9555,3.1546,3.329,3.4606,3.37,3.0767,2.9682,3.1199,2.8757,2.7231,2.7304,2.7435,2.7635,2.7962,2.9101,2.9613,2.9068,2.634,2.1858,1.713,1.5358,1.4556,1.4851,1.5673,1.6273,1.6607,1.8239,1.8735,1.8872,2.1051,2.2138,2.1569,2.2296,2.295,2.295,2.3212,2.4059,2.5902,2.661,2.7185,2.806,2.9098,2.9982,3.0581,3.0289,3.0207,3.1764,3.2625,3.2111,3.1252,3.1208,3.0732,2.9545,2.8583,2.7943,2.7741,2.6635,2.5844,2.5742,2.5512,2.5234,2.5234,2.5234,2.546,2.5728,2.6047,2.6451,2.6509,2.7013,2.7964,2.9066,3.0329,3.0837,3.1219,3.1477,3.1507,3.1424,3.1102,3.0594,2.9732,2.8823,2.8153,4.1576,4.3075,4.4485,4.5745,4.6629,4.7671,4.7998,4.8127,4.8467,4.8782,4.8199,4.4569,4.1495,3.887,3.5814,3.2371,2.9541,3.031,3.1748,3.3425,3.2726,3.1577,3.0142,2.8237,2.4629,2.0045,1.8596,1.7661,1.6605,1.5875,1.6868,2.0013,2.2771,2.5025,2.7195,3.1134,3.2785,3.0687,2.9028,2.8236,2.8232,2.6975,2.5523,2.416,2.5378,2.6055,2.5539,2.7759,2.8445,2.7482,2.5613,2.2378,1.8206,1.6478,1.5944,1.5956,1.6268,1.6952,1.7534,1.8168,1.9111,2.0019,2.132,2.2031,2.2492,2.2794,2.3076,2.3144,2.38,2.4957,2.6257,2.7543,2.8407,2.9234,3.0012,3.0637,3.1309,3.205,3.3078,3.3993,3.3926,3.3232,3.2482,3.1962,3.0853,2.9591,2.8828,2.841,2.7759,2.6893,2.6299,2.6273,2.6005,2.5854,2.5987,2.6054,2.6181,2.6206,2.6358,2.6485,2.6553,2.6731,2.7656,2.8967,3.0197,3.1013,3.1367,3.1338,3.1279,3.1013,3.0563,2.9936,2.9261,2.8601,2.7894,4.104,4.247,4.2602,4.3758,4.5691,4.6515,4.6816,4.6815,4.7364,4.7471,4.6265,4.2838,3.9589,3.6824,3.3776,2.8925,2.371,2.5179,2.7232,2.853,2.8972,2.8125,2.5975,2.0727,1.6121,1.1888,1.1463,1.1429,1.0922,1.1232,1.2814,1.603,1.8943,2.1366,2.3565,2.7809,2.9413,2.8043,2.6563,2.5867,2.5776,2.4815,2.3448,2.2435,2.3643,2.4175,2.4024,2.5906,2.7233,2.7063,2.5675,2.2768,1.9399,1.7795,1.6921,1.6921,1.6948,1.7182,1.7682,1.8057,1.8747,2.0019,2.0589,2.1066,2.1807,2.2274,2.265,2.2828,2.4291,2.5808,2.7004,2.8361,2.9504,3.0353,3.1293,3.1915,3.2355,3.3602,3.4434,3.4676,3.3868,3.3129,3.2557,3.1502,3.0433,2.9147,2.8559,2.8159,2.74,2.6824,2.6577,2.6533,2.6408,2.6468,2.6841,2.6841,2.6867,2.6764,2.6704,2.6729,2.6796,2.6917,2.7559,2.9348,3.0828,3.1329,3.1704,3.095,3.0614,3.0227,3.0114,2.9101,2.8402,2.8302,2.7769,4.2153,4.3136,4.201,4.2836,4.4767,4.537,4.544,4.5233,4.544,4.475,4.287,3.953,3.6033,3.3171,3.146,2.6014,1.9336,2.1481,2.1822,2.0749,2.1048,2.0604,1.7721,0.8147,0.2158,0.0369,0.1213,0.2876,0.5622,0.8485,1.0778,1.3659,1.6429,1.8949,2.114,2.4012,2.5816,2.6378,2.3975,2.3654,2.4909,2.246,2.101,2.1378,2.1698,2.2053,2.2466,2.3691,2.5894,2.8567,2.6123,2.343,2.1094,1.8736,1.7524,1.7497,1.7333,1.723,1.7381,1.7853,1.8444,1.8731,1.9447,1.987,2.0339,2.1472,2.2227,2.2337,2.4586,2.6601,2.7741,2.8974,3.0288,3.1518,3.2437,3.3105,3.4066,3.4994,3.5329,3.4599,3.3102,3.1792,3.2014,3.0493,2.9031,2.8083,2.7774,2.7652,2.7018,2.6779,2.6609,2.6559,2.6577,2.696,2.7271,2.767,2.767,2.8065,2.7644,2.7172,2.7266,2.748,2.7895,2.9697,3.1121,3.1669,3.163,3.1002,3.0685,3.0675,2.9931,2.8463,2.7723,2.7556,2.755,4.2145,4.3199,4.2965,4.3244,4.4111,4.4851,4.4841,4.4449,4.4299,4.2278,3.9295,3.6033,3.1847,2.78,2.5974,2.0419,1.4375,1.2786,1.1321,0.8213,0.6773,0.7627,0.6284,-0.1974,-0.7209,-0.7424,-0.648,-0.3132,0.4459,0.806,1.0485,1.224,1.4302,1.6339,1.8512,1.9538,2.1511,2.4342,2.489,2.374,2.2559,2.0732,1.8772,1.7566,1.7862,1.825,1.8917,2.1565,2.4476,2.7338,2.5858,2.4651,2.4003,2.1221,1.9301,1.8815,1.7943,1.7355,1.7284,1.7483,1.7837,1.839,1.8694,1.9283,2.023,2.1501,2.216,2.274,2.4683,2.6662,2.7832,2.9323,3.1198,3.3312,3.346,3.39,3.5321,3.6075,3.6148,3.5836,3.4111,3.296,3.2132,3.0876,2.9442,2.8619,2.8359,2.8184,2.7253,2.6866,2.6836,2.679,2.6892,2.7271,2.7736,2.8168,2.8648,2.9275,2.8828,2.7782,2.7937,2.8158,2.8957,3.021,3.1461,3.2117,3.1763,3.118,3.1205,3.0828,2.9712,2.8365,2.7343,2.6909,2.6942,4.2306,4.3299,4.3469,4.3822,4.4215,4.4669,4.4324,4.3226,4.1472,3.8502,3.45,3.0557,2.6817,2.3231,2.1286,1.6698,0.986,0.3554,-0.0241,-0.1947,-0.3196,-0.2981,-0.3653,-0.8765,-1.0774,-1.0649,-1.0602,-0.5479,0.2186,0.7419,1.0005,1.1272,1.3138,1.4799,1.5849,1.7252,1.9287,2.2515,2.4594,2.4651,2.2515,2.0444,1.866,1.7266,1.6809,1.6886,1.751,2.0623,2.4268,2.6606,2.6409,2.5711,2.6085,2.3271,2.0984,2.0031,1.8457,1.7488,1.7382,1.7328,1.7558,1.7992,1.8067,1.8267,1.9247,2.0703,2.1865,2.2057,2.4859,2.6739,2.7894,2.9527,3.17,3.358,3.3831,3.4316,3.6043,3.6327,3.6357,3.5688,3.422,3.2786,3.2494,3.1096,2.9774,2.8847,2.8562,2.7977,2.7183,2.7087,2.6892,2.6728,2.6943,2.7281,2.7549,2.7855,2.821,2.8977,2.8991,2.8058,2.815,2.8528,2.9378,3.0375,3.1662,3.2278,3.1585,3.1046,3.0565,3.0032,2.9165,2.8511,2.7632,2.6801,2.6781,4.2436,4.2962,4.3683,4.4297,4.4757,4.4593,4.3977,4.2194,3.8424,3.4244,2.9948,2.4879,2.2062,1.9483,1.7916,1.3404,0.6551,-0.351,-0.7617,-0.8688,-0.8889,-0.8477,-0.7928,-0.9522,-1.0683,-1.0335,-1.0194,-0.5104,0.1724,0.7452,0.9816,1.1027,1.3177,1.4218,1.5399,1.6838,1.9155,2.2249,2.521,2.5369,2.3673,2.1685,1.9949,1.8249,1.7207,1.7727,1.8555,2.0861,2.3927,2.7939,2.7097,2.6864,2.7013,2.4733,2.2237,2.0509,1.8828,1.7716,1.7582,1.7542,1.7555,1.7684,1.7495,1.7194,1.7886,1.9668,2.0966,2.0966,2.4794,2.6635,2.7921,2.9625,3.1424,3.2886,3.3398,3.4281,3.5441,3.619,3.6283,3.5657,3.3511,3.2485,3.1928,3.104,2.9402,2.8349,2.8027,2.736,2.6697,2.6331,2.6205,2.6169,2.6559,2.7182,2.7317,2.7494,2.7788,2.8173,2.829,2.7934,2.8024,2.8499,2.9474,3.0403,3.1235,3.1342,3.1029,3.0488,3.0113,2.9783,2.9272,2.8848,2.835,2.7508,2.7164,4.2106,4.0873,4.3731,4.4987,4.5069,4.518,4.4431,4.2572,3.691,3.2354,2.8098,2.2611,1.9346,1.7541,1.4632,0.7269,-0.251,-0.7459,-0.9787,-0.9808,-0.9784,-0.8187,-0.7375,-0.8576,-1.0274,-0.9069,-0.4485,0.0136,0.4873,0.8158,1.1005,1.2174,1.3611,1.5708,1.7453,1.8158,2.021,2.3573,2.6919,2.6798,2.4542,2.3586,2.1825,1.9229,1.7068,1.8117,2.0715,2.0787,2.2519,2.5524,2.6735,2.7088,2.7381,2.4763,2.2146,2.0612,1.9153,1.8076,1.7702,1.7622,1.7595,1.7595,1.7528,1.7488,1.7593,1.8993,1.9903,2.0429,2.2698,2.5334,2.7274,2.8844,3.0302,3.1511,3.2471,3.3457,3.4794,3.5958,3.6545,3.6329,3.4968,3.3605,3.2588,3.0846,2.9326,2.8069,2.7172,2.6633,2.611,2.5636,2.5445,2.5443,2.6173,2.676,2.7232,2.7464,2.7816,2.7644,2.7506,2.7384,2.7533,2.7748,2.8373,2.9353,3.0433,3.0364,2.9961,3.0519,3.024,2.9809,2.9326,2.8948,2.8496,2.7922,2.6995,3.827,3.786,4.128,4.3179,4.3927,4.4659,4.4266,4.1964,3.6282,3.0827,2.6069,2.0644,1.663,1.3414,1.1645,0.6072,-0.0,-0.4145,-0.5154,-0.5032,-0.506,-0.4206,-0.2734,-0.305,-0.3906,-0.4281,-0.0,0.4684,0.7991,0.9814,1.1336,1.2775,1.4232,1.6172,1.8865,2.0114,2.2176,2.4772,2.8177,2.876,2.6606,2.6365,2.4694,2.1446,1.8938,1.9333,2.1351,2.2211,2.2947,2.4553,2.5569,2.5967,2.6119,2.4116,2.2246,2.0653,1.9291,1.8517,1.821,1.7836,1.7649,1.7782,1.7675,1.7595,1.7898,1.8812,1.9524,2.004,2.1541,2.3845,2.6355,2.784,2.9028,3.0214,3.1328,3.2524,3.372,3.5162,3.6014,3.5739,3.4279,3.3036,3.1734,3.0343,2.8941,2.7555,2.6479,2.5922,2.521,2.4779,2.4549,2.4798,2.5684,2.6374,2.6972,2.7449,2.7952,2.7519,2.6851,2.6646,2.6457,2.6713,2.7038,2.794,2.8719,2.8963,2.8797,2.9474,3.0037,2.9731,2.9322,2.8941,2.8354,2.7427,2.6302,3.2415,3.4438,3.7504,4.0071,4.2273,4.378,4.3686,4.1659,3.5245,2.9355,2.4526,1.9746,1.5104,1.007,0.9258,0.9078,0.7562,0.407,0.1193,0.132,0.1315,0.2763,0.4119,0.5822,0.61,0.3571,0.5994,0.9285,1.1427,1.1884,1.3103,1.4015,1.5052,1.7648,1.9976,2.2167,2.417,2.5956,2.8487,2.9817,2.9239,2.9458,2.8423,2.5345,2.3305,2.2512,2.334,2.4199,2.4902,2.3939,2.4926,2.435,2.3134,2.2373,2.193,2.0244,1.8829,1.8172,1.8078,1.7991,1.7889,1.809,1.7836,1.7689,1.7993,1.845,1.8916,1.9627,2.0641,2.2432,2.4946,2.6068,2.7537,2.8844,3.0124,3.1063,3.2253,3.3744,3.431,3.4692,3.3826,3.268,3.1263,2.9856,2.8402,2.7073,2.6109,2.5098,2.4415,2.405,2.3917,2.4408,2.5344,2.6447,2.7162,2.6649,2.7262,2.7331,2.6457,2.5922,2.5597,2.5547,2.5758,2.6029,2.6622,2.7128,2.7763,2.8378,2.89,2.9209,2.9057,2.8518,2.7702,2.6885,2.582,2.4918,3.1448,3.2798,3.6236,4.09,4.3231,4.2497,3.9546,3.2121,2.7838,2.5767,2.1362,1.5801,1.0874,0.9023,0.9905,1.1591,0.981,0.8394,0.845,0.8654,1.0189,1.4265,1.4769,1.591,1.6097,1.4857,1.4801,1.5853,1.6284,1.6111,1.7477,1.8432,2.0364,2.2585,2.3947,2.536,2.7402,2.9111,2.971,3.0264,3.1982,3.263,2.9592,2.8003,2.7585,2.7657,2.7696,2.7669,2.7574,2.664,2.4393,2.1959,2.0625,1.9597,1.871,1.778,1.722,1.6934,1.7802,1.815,1.8343,1.8143,1.7983,1.7916,1.7968,1.8323,1.8436,1.945,2.1135,2.3665,2.4454,2.5625,2.7063,2.8308,2.8844,2.9988,3.1249,3.2802,3.3754,3.3093,3.2436,3.1084,2.9712,2.817,2.6826,2.5644,2.4388,2.3309,2.3343,2.3435,2.4205,2.5204,2.6381,2.7443,2.6503,2.6248,2.6657,2.6118,2.5394,2.4982,2.4486,2.4545,2.4811,2.5436,2.614,2.6826,2.736,2.773,2.8018,2.7971,2.7877,2.6966,2.6086,2.5775,1.8864,2.2472,2.4277,2.8033,3.2788,3.568,3.6508,3.5217,3.0253,2.6751,2.5397,2.4622,2.2212,1.8135,1.7305,1.8582,1.9642,2.0155,1.9184,1.8562,1.7969,1.8564,2.1837,2.1288,2.1511,2.1598,2.0703,1.8852,1.7908,1.8031,1.9009,2.0023,2.0821,2.296,2.5681,2.6316,2.7524,2.962,3.1384,3.2111,3.1901,3.4454,3.4274,3.3368,3.2431,3.2066,3.2016,3.1842,3.0704,2.9425,2.8189,2.502,2.1631,1.8999,1.7653,1.7185,1.6474,1.6,1.5915,1.6762,1.7328,1.7516,1.787,1.829,1.825,1.8143,1.7969,1.8143,1.8764,2.004,2.1456,2.2785,2.4276,2.545,2.6607,2.7652,2.8495,2.9487,3.0961,3.239,3.2288,3.1807,3.1381,2.9797,2.8055,2.6639,2.5316,2.3978,2.2644,2.2844,2.3329,2.3494,2.4442,2.5414,2.6459,2.6116,2.5694,2.6029,2.5959,2.5138,2.4567,2.4238,2.3764,2.3536,2.4325,2.5018,2.5568,2.5946,2.6385,2.6798,2.6565,2.6251,2.5837,2.5335,2.4957,1.1881,1.1872,1.4745,1.8389,2.2757,2.6656,2.9398,3.0285,2.8453,2.5357,2.3152,2.5952,2.6237,2.4757,2.5088,2.6763,2.9342,2.996,2.9199,2.8125,2.7523,2.7379,2.6465,2.5308,2.513,2.669,2.5633,2.3536,2.12,2.1327,2.2205,2.3493,2.3947,2.552,2.8501,2.9166,3.0724,3.2319,3.4912,3.5649,3.5234,3.5709,3.5981,3.567,3.5396,3.5333,3.4662,3.4521,3.2602,3.0434,2.8428,2.573,2.091,1.7819,1.6225,1.5424,1.4842,1.4789,1.4928,1.5686,1.6166,1.6192,1.7098,1.7641,1.8197,1.8118,1.8343,1.8347,1.88,1.9523,2.0327,2.1689,2.2854,2.3665,2.5023,2.6491,2.6873,2.761,2.8544,2.9736,3.0747,3.093,3.0278,2.9042,2.7083,2.6563,2.5228,2.4364,2.3242,2.3184,2.3335,2.2964,2.3408,2.4388,2.5139,2.5574,2.553,2.5962,2.5636,2.4914,2.4487,2.4138,2.3635,2.3253,2.2884,2.3632,2.4173,2.468,2.5062,2.5249,2.4999,2.4957,2.5104,2.4596,2.4039,0.1685,0.2085,0.5291,0.8793,1.3342,1.9292,2.4509,2.764,2.5088,2.2754,2.0225,2.2062,2.2808,2.343,2.64,2.9117,3.1483,3.3028,3.3835,3.3695,3.4405,3.4147,3.3911,3.2342,3.1106,3.1532,3.0174,2.8467,2.6905,2.737,2.7966,2.8662,2.9368,3.0794,3.1803,3.2389,3.2744,3.3015,3.5232,3.6378,3.6276,3.7071,3.7097,3.7426,3.7659,3.7645,3.6131,3.5591,3.3686,2.9854,2.8041,2.4215,1.9215,1.7141,1.462,1.2994,1.2374,1.314,1.3335,1.4366,1.4963,1.5042,1.5322,1.5609,1.7032,1.8078,1.8517,1.8464,1.8687,1.9038,1.9546,2.0377,2.1043,2.1689,2.2702,2.3683,2.4258,2.5799,2.6642,2.7516,2.8671,2.8992,2.8813,2.7477,2.6172,2.5834,2.534,2.4524,2.3828,2.3613,2.3418,2.2997,2.2932,2.3734,2.4388,2.4744,2.5352,2.5859,2.5788,2.52,2.4661,2.4324,2.3861,2.3387,2.2899,2.2722,2.3401,2.3892,2.3859,2.3985,2.417,2.4467,2.4787,2.4125,2.3387,-0.0,-0.0,0.1602,0.4488,0.8662,1.3313,1.7709,2.0615,2.0017,1.8728,1.8211,2.0354,2.2944,2.5829,2.9117,3.1367,3.3436,3.3912,3.5303,3.6218,3.6765,3.6842,3.6413,3.5162,3.4518,3.4978,3.4819,3.4634,3.3658,3.2652,3.245,3.2925,3.3776,3.5001,3.5617,3.567,3.6308,3.6919,3.7484,3.733,3.7278,3.6973,3.7091,3.7665,3.7666,3.7275,3.6998,3.6201,3.3804,3.0271,2.8122,2.4054,1.8687,1.6034,1.4317,1.1197,1.1315,1.1612,1.1774,1.2969,1.3582,1.4261,1.4902,1.6843,1.789,1.8451,1.8731,1.8731,1.8584,1.87,1.9146,1.9793,2.0152,2.0701,2.1274,2.2012,2.2788,2.3782,2.4925,2.5722,2.6552,2.7295,2.7913,2.7378,2.6703,2.6537,2.6027,2.5322,2.4355,2.3594,2.3379,2.3125,2.3095,2.3248,2.375,2.4198,2.5249,2.5964,2.7093,2.6304,2.5187,2.468,2.4329,2.3901,2.3564,2.3308,2.3221,2.3209,2.3438,2.3513,2.356,2.3861,2.4227,2.38,2.3173,-0.0,-0.0,-0.0,0.1802,0.5229,0.9393,1.2986,1.5238,1.5502,1.5056,1.5367,1.7993,2.2832,2.7577,2.8998,2.9862,3.1973,3.1849,3.3338,3.4617,3.5425,3.5619,3.5893,3.5405,3.6002,3.7108,3.7173,3.7893,3.8387,3.7842,3.6912,3.6949,3.8067,3.9029,3.9794,3.9719,3.9649,3.9505,3.8515,3.8054,3.7724,3.6548,3.6996,3.7072,3.6832,3.6123,3.7037,3.5402,3.2618,2.9628,2.7312,2.3206,1.7896,1.6435,1.4652,1.2145,1.1568,1.1359,1.1178,1.1652,1.209,1.3035,1.4627,1.6521,1.7584,1.8314,1.9038,1.9038,1.8905,1.8624,1.8617,1.9456,1.9585,2.0042,2.0649,2.1362,2.2212,2.3538,2.4802,2.5932,2.6606,2.6527,2.7039,2.7309,2.7247,2.7247,2.6778,2.5937,2.5019,2.3965,2.3427,2.3163,2.3184,2.3125,2.3374,2.4002,2.5041,2.588,2.7035,2.6685,2.5126,2.4957,2.5126,2.4661,2.3947,2.3644,2.3347,2.315,2.3077,2.3248,2.3398,2.3408,2.3428,2.3223,2.3008,-0.0,-0.0,-0.0,-0.0,0.1256,0.9096,1.2191,1.2594,1.2939,1.2225,1.1544,1.4201,1.9269,2.3502,2.4609,2.496,2.545,2.6586,2.7743,2.9189,3.0852,3.2225,3.3543,3.5136,3.6776,3.8033,3.8067,3.929,4.1187,4.1144,4.1138,4.1827,4.1982,4.2503,4.2811,4.2749,4.1704,4.0877,3.914,3.8358,3.7871,3.692,3.6588,3.7269,3.6509,3.5831,3.6311,3.3475,3.0645,2.7688,2.5466,2.2219,1.7766,1.7055,1.5276,1.2573,1.2458,1.2009,1.1493,1.0932,1.0774,1.1419,1.3233,1.5764,1.6632,1.8402,1.9087,1.9279,1.9158,1.9052,1.8905,1.8951,1.9445,1.9509,2.0327,2.149,2.2485,2.3964,2.5172,2.6346,2.6754,2.6758,2.6816,2.7202,2.7182,2.7162,2.6783,2.6035,2.5508,2.4516,2.3693,2.3345,2.3202,2.3262,2.3251,2.3947,2.4934,2.538,2.613,2.5378,2.4039,2.4467,2.5316,2.4596,2.3725,2.3567,2.3647,2.378,2.378,2.3378,2.3301,2.334,2.3281,2.3144,2.291,-0.0,-0.0,-0.0,-0.0,0.0478,0.6424,1.0151,1.1938,1.192,1.1614,1.0872,1.3078,1.5247,1.7752,2.0438,1.9062,1.6588,1.8789,2.0341,2.2401,2.471,2.8057,3.0305,3.2694,3.4636,3.6692,3.7302,3.8404,4.0453,4.171,4.2639,4.3119,4.4281,4.5145,4.5234,4.4856,4.3621,4.2093,4.0316,3.9355,3.9172,3.7194,3.6121,3.6519,3.5294,3.4036,3.3215,3.102,2.8674,2.6382,2.3935,2.0441,1.7392,1.726,1.5299,1.2374,1.3026,1.3113,1.1908,1.1372,1.1199,1.3305,1.5003,1.6425,1.6891,1.8777,1.9243,1.9359,1.9359,1.9239,1.9098,1.9821,2.0471,1.9792,2.0311,2.1744,2.2881,2.4333,2.513,2.6225,2.673,2.6934,2.709,2.7329,2.7212,2.7094,2.6582,2.6073,2.5528,2.4966,2.4009,2.3312,2.3195,2.3038,2.3051,2.3859,2.4691,2.4911,2.5041,2.4251,2.3426,2.4296,2.4808,2.4145,2.3734,2.3647,2.3901,2.4584,2.4384,2.3663,2.332,2.3262,2.3184,2.3086,2.2832,-0.0,-0.0,-0.0,-0.0,-0.0,0.6123,1.0062,1.2132,1.1859,1.1155,1.1041,1.1603,1.1873,1.3057,1.4888,1.4023,1.1114,1.263,1.4811,1.7525,2.0815,2.4023,2.6786,2.9577,3.221,3.4352,3.5762,3.6878,3.8447,4.0521,4.1327,4.2568,4.4626,4.6034,4.668,4.6152,4.4971,4.3478,4.1564,4.054,4.0665,3.7991,3.6614,3.6339,3.494,3.3413,3.1701,2.9568,2.7016,2.5008,2.264,1.9875,1.7827,1.6275,1.4942,1.3685,1.3181,1.4185,1.3044,1.2708,1.2817,1.4392,1.6024,1.7446,1.8491,1.9127,1.9372,1.9372,1.9359,1.9367,1.9312,2.0557,2.1332,2.1003,2.2779,2.4122,2.4081,2.5038,2.5393,2.5945,2.6487,2.707,2.7091,2.716,2.7113,2.711,2.6973,2.6319,2.539,2.4767,2.4184,2.3505,2.3186,2.2927,2.2777,2.285,2.2812,2.2862,2.307,2.3301,2.3086,2.3814,2.3907,2.2999,2.2843,2.36,2.3834,2.4002,2.3839,2.3693,2.3457,2.3437,2.3184,2.3066,2.2832,-0.0,-0.0,-0.0,-0.0,-0.0,0.8948,1.2527,1.2769,1.2121,1.1097,0.9877,0.9603,0.9349,0.9716,1.1273,1.0745,0.9985,1.0915,1.3173,1.6403,1.8697,2.0828,2.3808,2.7158,2.9941,3.0329,3.2458,3.4648,3.5927,3.812,3.9409,4.1731,4.4413,4.7077,4.7612,4.6799,4.5759,4.4555,4.228,4.1407,4.1169,3.8817,3.7868,3.7293,3.5558,3.3904,3.1901,2.8688,2.6249,2.4482,2.1915,1.9658,1.8596,1.7515,1.6076,1.4182,1.4479,1.4308,1.3251,1.4394,1.5185,1.5502,1.7035,1.7851,1.7774,1.8415,1.9372,1.9372,1.9359,1.9887,2.0458,2.1317,2.1896,2.2686,2.4442,2.5416,2.5306,2.5601,2.605,2.6168,2.6647,2.7085,2.7055,2.7043,2.7106,2.7043,2.7195,2.6435,2.5142,2.426,2.3637,2.3108,2.261,2.2285,2.1882,2.1134,2.0937,2.0897,2.1251,2.1856,2.2044,2.2353,2.2115,2.1554,2.1915,2.2497,2.2866,2.3115,2.3144,2.3279,2.3672,2.3633,2.334,2.3027,2.2879,-0.5027,-0.0,-0.0,-0.0,-0.0,0.2992,0.7485,1.2282,1.2032,1.0786,0.9496,0.9063,0.8924,0.9394,1.1004,1.2569,1.5408,1.4493,1.6671,1.7256,1.8684,2.0198,2.2863,2.5717,2.8192,2.9353,3.1187,3.2942,3.4325,3.6464,3.8598,4.0939,4.5255,4.8413,4.9129,4.8492,4.7426,4.7114,4.4066,4.1434,4.29,4.0541,3.8624,3.8609,3.6703,3.4756,3.2547,2.8906,2.6457,2.4485,2.1783,1.9984,1.8829,1.7769,1.6727,1.4878,1.456,1.6365,1.6484,1.7472,1.8125,1.7923,1.795,1.8809,1.905,1.9089,1.9399,1.9475,1.9591,2.0088,2.0681,2.2071,2.2824,2.3104,2.4279,2.5249,2.5644,2.6389,2.6807,2.6672,2.6934,2.657,2.6347,2.5721,2.5646,2.5081,2.4878,2.4792,2.3747,2.3263,2.2686,2.2192,2.1734,2.142,2.1006,2.0379,2.03,2.0668,2.0802,2.1092,2.1213,2.0999,2.1036,2.0762,2.1062,2.1362,2.1821,2.2262,2.2669,2.2974,2.3364,2.3949,2.4115,2.366,2.3182,-0.7865,-0.0,-0.0,-0.0,-0.0,-0.0,0.3517,0.8225,0.9266,0.9192,0.8464,0.8703,0.895,0.9595,1.1521,1.5449,2.0116,1.8011,1.7895,1.8306,1.9321,2.0472,2.2305,2.4746,2.6627,2.8155,2.9944,3.1751,3.3272,3.5352,3.8704,4.2811,4.6474,4.8741,4.9469,4.9044,4.8591,4.8207,4.5874,4.4059,4.3916,4.2233,4.0379,3.9251,3.7631,3.5852,3.3043,3.0257,2.7549,2.5121,2.2704,2.0714,1.9132,1.7774,1.6996,1.5569,1.5814,1.7789,1.8779,1.9941,2.0093,1.95,1.9768,1.9814,1.9786,1.9519,1.9412,1.9475,1.9809,2.0615,2.1597,2.2966,2.3634,2.3894,2.4105,2.5167,2.4787,2.5326,2.5422,2.5433,2.5488,2.5394,2.5269,2.4497,2.3917,2.3182,2.2401,2.2371,2.2418,2.2039,2.154,2.0926,2.0529,2.0061,1.9926,1.9673,1.9851,2.0343,2.0246,2.0085,1.9755,1.946,1.9668,1.9996,2.021,2.0524,2.0908,2.1431,2.2299,2.2828,2.3294,2.3919,2.4594,2.4279,2.3559,-0.8263,-0.0991,-0.0,-0.0,-0.0,-0.0,-0.0,-0.0,0.4379,0.6207,0.6638,0.8284,0.8983,0.9216,1.0731,1.4813,1.9094,1.7032,1.7746,1.8757,1.9893,2.0717,2.2263,2.4764,2.599,2.6964,2.9075,3.2354,3.2878,3.734,4.1545,4.4542,4.7105,4.8739,4.9291,4.9239,4.9296,4.9265,4.7851,4.6234,4.5492,4.3668,4.1875,4.0283,3.8575,3.6781,3.4245,3.1581,2.8914,2.6374,2.3769,2.2057,2.0172,1.8159,1.7432,1.7114,1.7725,1.8852,1.9952,2.0941,2.163,2.0939,2.0597,2.0241,1.9867,1.9626,1.9479,1.9836,2.0357,2.1683,2.2889,2.3702,2.4509,2.4508,2.4331,2.414,2.3229,2.3073,2.2938,2.2992,2.3114,2.3078,2.3316,2.2879,2.2507,2.1526,2.0984,2.0837,2.0788,2.0833,2.0252,1.9491,1.901,1.8656,1.8586,1.8907,1.9085,1.9633,1.9014,1.8738,1.8331,1.8411,1.8807,1.9155,1.9317,1.9626,2.0348,2.1293,2.244,2.2905,2.2945,2.4019,2.4769,2.4436,2.4054,-1.1908,-0.8995,-0.2713,-0.0,-0.0,-0.0,-0.0,-0.0,0.1504,0.2927,0.5217,0.8027,0.9059,0.9232,1.2276,1.6012,1.8289,1.9562,2.0068,2.0618,2.0831,2.1306,2.2692,2.4531,2.5753,2.7555,3.012,3.3761,3.7271,4.1086,4.4033,4.6518,4.7668,4.8675,4.8982,4.9164,4.997,4.9912,4.8155,4.7344,4.6173,4.4335,4.2751,4.126,3.9815,3.8103,3.5979,3.387,3.1091,2.7461,2.636,2.481,2.1929,2.0405,1.9407,1.7588,1.8049,1.8632,1.9567,2.1058,2.1964,2.1804,2.1243,2.0655,2.0214,1.9853,1.9599,2.0007,2.0644,2.1846,2.2557,2.3211,2.3788,2.3791,2.3547,2.2855,2.2097,2.2039,2.1929,2.2008,2.2008,2.19,2.1938,2.185,2.1546,2.0329,1.9644,1.958,1.9429,1.9473,1.9472,1.8714,1.8414,1.8144,1.8333,1.8577,1.8687,1.8632,1.8306,1.8103,1.8171,1.8239,1.8198,1.8413,1.8856,1.9396,1.9956,2.0523,2.0326,2.196,2.2414,2.3803,2.4755,2.4436,2.4615,-0.9174,-0.2372,0.2887,0.4302,0.2444,-0.0,-0.0,-0.0,-0.0,0.1134,0.3138,0.7464,0.9287,0.951,1.2894,1.6605,1.9957,2.0375,2.079,2.1107,2.179,2.1577,2.2412,2.4285,2.588,2.7883,3.0684,3.4504,3.9582,4.4448,4.765,4.7691,4.8359,4.8085,4.797,4.8047,4.8938,4.8781,4.8076,4.7219,4.5967,4.4623,4.3614,4.2464,4.1054,3.955,3.7916,3.6135,3.2678,2.9015,2.8208,2.5816,2.3195,2.1807,2.1159,1.9598,1.975,2.0042,2.0733,2.158,2.2085,2.2111,2.1804,2.1309,2.0641,2.0134,1.9746,1.9658,2.0701,2.1577,2.2041,2.2387,2.2511,2.2611,2.2118,2.1604,2.1539,2.1465,2.1459,2.1549,2.1368,2.1171,2.1074,2.1032,2.063,1.9759,1.9212,1.9009,1.8901,1.8904,1.8863,1.8561,1.8359,1.8076,1.8279,1.8292,1.8292,1.8346,1.833,1.825,1.8196,1.821,1.821,1.8413,1.8631,1.8728,1.8591,1.7551,1.7462,1.9357,2.1084,2.1979,2.3268,2.4516,2.4917,-0.23,1.2682,1.3392,1.0598,0.6901,0.3247,-0.0,0.0807,-0.0,-0.0,-0.0,0.6345,0.8775,0.9579,1.2882,1.6516,1.9047,2.0182,2.0488,2.1036,2.1349,2.1309,2.1992,2.3947,2.6033,2.7903,3.1377,3.6679,4.171,4.6333,4.9282,4.8973,4.8893,4.8384,4.7109,4.6627,4.6976,4.6938,4.6516,4.5895,4.5395,4.4809,4.4414,4.3361,4.2049,4.0769,3.9364,3.7092,3.4108,3.1049,2.8544,2.6267,2.4386,2.3217,2.272,2.2213,2.2006,2.191,2.2109,2.258,2.2552,2.2512,2.2378,2.1804,2.1096,2.0428,2.0,1.9965,2.0802,2.1323,2.1693,2.1994,2.2164,2.1822,2.1239,2.0911,2.0701,2.0784,2.0897,2.0897,2.0596,2.0378,2.0336,2.0261,1.9915,1.9139,1.8731,1.8517,1.7955,1.789,1.7987,1.811,1.813,1.7929,1.8064,1.8064,1.7848,1.7941,1.8087,1.821,1.8023,1.8087,1.8229,1.8499,1.8658,1.734,1.6767,1.5389,1.5076,1.73,1.8849,1.9876,2.1219,2.288,2.4279,0.3271,1.3231,1.3432,1.269,1.168,1.0614,0.9888,0.9244,0.2667,-0.0,-0.0,0.4429,0.7511,0.9551,1.2377,1.5574,1.7467,1.9031,1.9304,2.0036,2.0657,2.1221,2.1614,2.3825,2.6285,2.9826,3.4039,3.9532,4.5341,4.9209,5.0811,4.9994,4.9752,4.8736,4.6988,4.6224,4.5428,4.5193,4.4858,4.4441,4.404,4.3836,4.3413,4.3127,4.244,4.0886,3.9517,3.7861,3.4877,3.1879,3.0644,2.8368,2.5863,2.5529,2.5307,2.5125,2.4189,2.3981,2.4101,2.3863,2.346,2.289,2.2512,2.2055,2.1403,2.0815,2.0564,2.053,2.0653,2.106,2.1294,2.1541,2.1638,2.0955,2.0573,2.0296,2.0107,2.0227,2.0334,2.0053,1.9827,1.9694,1.9509,1.9272,1.9145,1.8784,1.841,1.7816,1.6733,1.632,1.6705,1.6908,1.7595,1.7689,1.7849,1.7875,1.7689,1.7649,1.7849,1.7849,1.7849,1.8036,1.8277,1.8738,1.8646,1.6586,1.43,1.229,1.2696,1.4594,1.6205,1.6955,1.8118,1.97,2.1689,0.8847,1.315,1.3258,1.3271,1.3231,1.339,1.3214,1.2077,0.7325,0.402,0.2671,0.4591,0.7012,0.9664,1.2468,1.3419,1.5287,1.7193,1.8429,1.9255,1.9854,2.0863,2.2143,2.3619,2.5994,2.964,3.6497,4.258,4.8115,5.0574,5.1294,5.0517,5.0133,4.9488,4.7633,4.597,4.492,4.3494,4.3553,4.3431,4.3143,4.2891,4.3278,4.3205,4.2255,4.0799,3.9388,3.778,3.5102,3.2252,3.0362,2.9351,2.758,2.6939,2.7027,2.6987,2.6477,2.5861,2.6129,2.5816,2.4868,2.4026,2.3778,2.3662,2.1706,2.0975,2.0454,2.0414,1.9938,2.0214,2.0074,2.0189,2.043,2.0266,2.0447,2.0551,2.0494,2.0575,2.0047,1.9312,1.8779,1.807,1.7744,1.6977,1.6738,1.6171,1.6156,1.6102,1.5115,1.4592,1.5148,1.553,1.6062,1.7041,1.7635,1.7754,1.7649,1.7609,1.7371,1.753,1.7623,1.7956,1.832,1.5904,1.4531,1.4059,1.1845,0.8254,0.8689,1.0414,1.2233,1.3829,1.4919,1.568,1.7566,1.3166,1.3227,1.2983,1.2869,1.2922,1.3262,1.3193,1.2855,1.1867,0.9436,0.6543,0.631,0.8163,1.0451,1.233,1.2119,1.2893,1.5394,1.713,1.797,1.9043,1.9748,2.1228,2.3164,2.6215,3.1305,3.8214,4.311,4.7865,5.0563,5.1945,5.0704,5.0221,4.9891,4.7798,4.7068,4.6955,4.4826,4.4138,4.3979,4.3325,4.2645,4.3136,4.284,4.186,4.0192,3.8898,3.7258,3.4801,3.246,3.0125,2.9384,2.9055,2.8578,2.9016,2.8972,2.8559,2.8466,2.8428,2.7938,2.6744,2.5814,2.5665,2.4173,2.2005,2.0909,2.0257,1.9784,1.9443,1.9296,1.9163,1.9332,1.9586,1.9826,2.0199,2.0735,2.0815,2.0605,1.9537,1.8453,1.7611,1.6887,1.6086,1.5227,1.4579,1.3989,1.3678,1.3357,1.3197,1.3138,1.3285,1.3588,1.3911,1.5209,1.7067,1.716,1.6948,1.6711,1.6486,1.6935,1.6711,1.5175,1.2793,0.9347,0.8382,0.7185,0.5291,0.1907,0.336,0.5698,0.7015,0.8205,0.8295,0.9503,1.2293,1.3152,1.2681,1.2383,1.2403,1.2623,1.2876,1.2855,1.2562,1.2172,1.1365,1.0435,1.0197,1.0703,1.077,1.1276,1.1441,1.1803,1.385,1.4302,1.4992,1.8009,1.8732,2.0207,2.3162,2.7484,3.311,3.9327,4.5468,4.8529,5.1678,5.3291,5.2162,5.2812,5.1939,4.9925,4.9029,4.7352,4.5719,4.4802,4.4558,4.4041,4.3411,4.2798,4.2268,4.1386,3.9612,3.8092,3.7069,3.5161,3.2935,3.0803,2.9916,2.9878,3.0123,3.0691,3.1011,3.061,3.0638,3.054,2.891,2.7334,2.5927,2.5069,2.2958,2.1057,1.9861,1.9274,1.8619,1.8385,1.8677,1.872,1.935,1.9693,1.9594,1.9807,2.0552,2.0962,1.9928,1.8788,1.7621,1.6588,1.57,1.4861,1.412,1.3693,1.3202,1.2961,1.2569,1.1762,1.159,1.1546,1.1809,1.2037,1.4407,1.6731,1.6111,1.5873,1.5624,1.5258,1.4915,1.3422,1.0396,0.7408,0.2662,-0.0341,-0.1981,-0.3911,-0.571,-0.2058,-0.0,0.1094,0.1939,0.1814,0.2644,0.5097]},{"header":{"parameterUnit":"m.s-1","parameterCategory":1,"la1":31.0,"la2":29.5877,"lo1":-88.7671,"lo2":-86.6584,"dy":0.0162,"dx":0.0185,"nx":115,"ny":88,"refTime":"2023-07-10T12:00:00:Z","depth":0,"parameterNumber":3,"parameterNumberName":"V-component_of_WINDS"},"data":[0.0,0.0,0.0,0.0,0.0,0.0,0.0,0.0,0.0,0.0,0.0,0.0,0.0,0.0,0.0,0.0,0.0,0.0,0.0,0.0,0.0,0.0,0.0,0.0,0.0,0.0,0.0,0.0,0.0,0.0,0.0,0.0,0.0,0.0,0.0,0.0,0.0,0.0,0.0,0.0,0.0,0.0,0.0,0.0,0.0,0.0,0.0,0.0,0.0,0.0,0.0,0.0,0.0,0.0,0.0,0.0,0.0,0.0,0.0,0.0,0.0,0.0,0.0,0.0,0.0,0.0,0.0,0.0,0.0,0.0,0.0,0.0,0.0,0.0,0.0,0.0,0.0,0.0,0.0,0.0,0.0,0.0,0.0,0.0,0.0,0.0,0.0,0.0,0.0,0.0,0.0,0.0,0.0,0.0,0.0,0.0,0.0,0.0,0.0,0.0,0.0,0.0,0.0,0.0,0.0,0.0,0.0,0.0,0.0,0.0,0.0,0.0,0.0,0.0,0.0,0.0,0.0,0.0,0.0,0.0,0.0,0.0,0.0,0.0,0.0,0.0,0.0,0.0,0.0,0.0,0.0,0.0,0.0,0.0,0.0,0.0,0.0,0.0,0.0,0.0,0.0,0.0,0.0,0.0,0.0,0.0,0.0,0.0,0.0,0.0,0.0,0.0,0.0,0.0,0.0,0.0,0.0,0.0,0.0,0.0,0.0,0.0,0.0,0.0,0.0,0.0,0.0,0.0,0.0,0.0,0.0,0.0,0.0,0.0,0.0,0.0,0.0,0.0,0.0,0.0,0.0,0.0,0.0,0.0,0.0,0.0,0.0,0.0,0.0,0.0,0.0,0.0,0.0,0.0,0.0,0.0,0.0,0.0,0.0,0.0,0.0,0.0,0.0,0.0,0.0,0.0,0.0,0.0,0.0,0.0,0.0,0.0,0.0,0.0,0.0,0.0,0.0,0.0,0.0,0.0,0.0,0.0,0.0,0.0,0.0,0.0,0.0,0.0,0.0,0.0,0.0,0.0,0.0,0.0,0.0,0.0,0.0,0.0,0.0,0.0,0.0,0.0,0.0,0.0,0.0,0.0,0.0,0.0,0.0,0.0,0.0,0.0,0.0,0.0,0.0,0.0,0.0,0.0,0.0,0.0,0.0,0.0,0.0,0.0,0.0,0.0,0.0,0.0,0.0,0.0,0.0,0.0,0.0,0.0,0.0,0.0,0.0,0.0,0.0,0.0,0.0,0.0,0.0,0.0,0.0,0.0,0.0,0.0,0.0,0.0,0.0,0.0,0.0,0.0,0.0,0.0,0.0,0.0,0.0,0.0,0.0,0.0,0.0,0.0,0.0,0.0,0.0,0.0,0.0,0.0,0.0,0.0,0.0,0.0,0.0,0.0,0.0,0.0,0.0,0.0,0.0,0.0,0.0,0.0,0.0,0.0,0.0,0.0,0.0,0.0,0.0,0.0,0.0,0.0,0.0,0.0,0.0,0.0,0.0,0.0,0.0,0.0,0.0,0.0,0.0,0.0,0.0,0.0,0.0,0.0,0.0,0.0,0.0,0.0,0.0,0.0,0.0,0.0,0.0,0.0,0.0,0.0,0.0,0.0,0.0,0.0,0.0,0.0,0.0,0.0,0.0,0.0,0.0,0.0,0.0,0.0,0.0,0.0,0.0,0.0,0.0,0.0,0.0,0.0,0.0,0.0,0.0,0.0,0.0,0.0,0.0,0.0,0.0,0.0,0.0,0.0,0.0,0.0,0.0,0.0,0.0,0.0,0.0,0.0,0.0,0.0,0.0,0.0,0.0,0.0,0.0,0.0,0.0,0.0,0.0,0.0,0.0,0.0,0.0,0.0,0.0,0.0,0.0,0.0,0.0,0.0,0.0,0.0,0.0,0.0,0.0,0.0,0.0,0.0,0.0,0.0,0.0,0.0,0.0,0.0,0.0,0.0,0.0,0.0,0.0,0.0,0.0,0.0,0.0,0.0,0.0,0.0,0.0,0.0,0.0,0.0,0.0,0.0,0.0,0.0,0.0,0.0,0.0,0.0,0.0,0.0,0.0,0.0,0.0,0.0,0.0,0.0,0.0,0.0,0.0,0.0,0.0,0.0,0.0,0.0,0.0,0.0,0.0,0.0,0.0,0.0,0.0,0.0,0.0,0.0,0.0,0.0,0.0,0.0,0.0,0.0,0.0,0.0,0.0,0.0,0.0,0.0,0.0,0.0,0.0,0.0,0.0,0.0,0.0,0.0,0.0,0.0,0.0,0.0,0.0,0.0,0.0,0.0,0.0,0.0,0.0,0.0,0.0,0.0,0.0,0.0,0.0,0.0,0.0,0.0,0.0,0.0,0.0,0.0,0.0,0.0,0.0,0.0,0.0,0.0,0.0,0.0,0.0,0.0,0.0,0.0,0.0,0.0,0.0,0.0,0.0,0.0,0.0,0.0,0.0,0.0,0.0,0.0,0.0,0.0,0.0,0.0,0.0,0.0,0.0,0.0,0.0,0.0,0.0,0.0,0.0,0.0,0.0,0.0,0.0,0.0,0.0,0.0,0.0,0.0,0.0,0.0,0.0,0.0,0.0,0.0,0.0,0.0,0.0,0.0,0.0,0.0,0.0,0.0,0.0,0.0,0.0,0.0,0.0,0.0,0.0,0.0,0.0,0.0,0.0,0.0,0.0,0.0,0.0,0.0,0.0,0.0,0.0,0.0,0.0,0.0,0.0,0.0,0.0,0.0,0.0,0.0,0.0,0.0,0.0,0.0,0.0,0.0,0.0,0.0,0.0,0.0,0.0,0.0,0.0,0.0,0.0,0.0,0.0,0.0,0.0,0.0,0.0,0.0,0.0,0.0,0.0,0.0,0.0,0.0,0.0,0.0,0.0,0.0,0.0,0.0,0.0,0.0,0.0,0.0,0.0,0.0,0.0,0.0,0.0,0.0,0.0,0.0,0.0,0.0,0.0,0.0,0.0,0.0,0.0,0.0,0.0,0.0,0.0,0.0,0.0,0.0,0.0,0.0,0.0,0.0,0.0,0.0,0.0,0.0,0.0,0.0,0.0,0.0,0.0,0.0,0.0,0.0,0.0,0.0,0.0,0.0,0.0,0.0,0.0,0.0,0.0,0.0,0.0,0.0,0.0,0.0,0.0,0.0,0.0,0.0,0.0,0.0,0.0,0.0,0.0,0.0,0.0,0.0,0.0,0.0,0.0,0.0,0.0,0.0,0.0,0.0,0.0,0.0,0.0,0.0,0.0,0.0,0.0,0.0,0.0,0.0,0.0,0.0,0.0,0.0,0.0,0.0,0.0,0.0,0.0,0.0,0.0,0.0,0.0,0.0,0.0,0.0,0.0,0.0,0.0,0.0,0.0,0.0,0.0,0.0,0.0,0.0,0.0,0.0,0.0,0.0,0.0,0.0,0.0,0.0,0.0,0.0,0.0,0.0,0.0,0.0,0.0,0.0,0.0,0.0,0.0,0.0,0.0,0.0,0.0,0.0,0.0,0.0,0.0,0.0,0.0,0.0,0.0,0.0,0.0,0.0,0.0,0.0,0.0,0.0,0.0,0.0,0.0,0.0,0.0,0.0,0.0,0.0,0.0,0.0,0.0,0.0,0.0,0.0,0.0,0.0,0.0,0.0,0.0,0.0,0.0,0.0,0.0,0.0,0.0,0.0,0.0,0.0,0.0,0.0,0.0,0.0,0.0,0.0,0.0,0.0,0.0,0.0,0.0,0.0,0.0,0.0,0.0,0.0,0.0,0.0,0.0,0.0,0.0,0.0,0.0,0.0,0.0,0.0,0.0,0.0,0.0,0.0,0.0,0.0,0.0,0.0,0.0,0.0,0.0,0.0,0.0,0.0,0.0,0.0,0.0,0.0,0.0,0.0,0.0,0.0,0.0,0.0,0.0,0.0,0.0,0.0,0.0,0.0,0.0,0.0,0.0,0.0,0.0,0.0,0.0,0.0,0.0,0.0,0.0,0.0,0.0,0.0,0.0,0.0,0.0,0.0,0.0,0.0,0.0,0.0,0.0,0.0,0.0,0.0,0.0,0.0,0.0,0.0,0.0,0.0,0.0,0.0,0.0,0.0,0.0,0.0,0.0,0.0,0.0,0.0,0.0,0.0,0.0,0.0,0.0,0.0,0.0,0.0,0.0,0.0,0.0,0.0,0.0,0.0,0.0,0.0,0.0,0.0,0.0,0.0,0.0,0.0,0.0,0.0,0.0,0.0,0.0,0.0,0.0,0.0,0.0,0.0,0.0,0.0,-1.7092,0.0,0.0,0.0,0.0,0.0,0.0,0.0,0.0,0.0,0.0,0.0,0.0,0.0,0.0,0.0,0.0,0.0,0.0,0.0,0.0,0.0,0.0,0.0,0.0,0.0,0.0,0.0,0.0,0.0,0.0,0.0,0.0,0.0,0.0,0.0,0.0,0.0,0.0,0.0,0.0,0.0,0.0,0.0,0.0,0.0,0.0,0.0,0.0,0.0,0.0,0.0,0.0,0.0,0.0,0.0,0.0,0.0,0.0,0.0,0.0,0.0,0.0,0.0,0.0,0.0,0.0,0.0,0.0,0.0,0.0,0.0,0.0,0.0,0.0,0.0,0.0,0.0,0.0,0.0,0.0,0.0,0.0,0.0,0.0,0.0,0.0,0.0,0.0,0.0,0.0,0.0,0.0,0.0,0.0,0.0,0.0,0.0,0.0,0.0,0.0,0.0,0.0,0.0,0.0,0.0,0.0,0.0,0.0,0.0,0.0,-1.983,-1.8082,-1.8597,-1.8562,-1.7839,0.0,0.0,0.0,0.0,0.0,0.0,0.0,0.0,0.0,0.0,0.0,0.0,0.0,0.0,0.0,0.0,0.0,0.0,0.0,0.0,0.0,0.0,0.0,0.0,0.0,0.0,0.0,0.0,0.0,0.0,0.0,0.0,0.0,0.0,0.0,0.0,0.0,0.0,0.0,0.0,0.0,0.0,0.0,0.0,0.0,0.0,0.0,0.0,0.0,0.0,0.0,0.0,0.0,0.0,0.0,0.0,0.0,0.0,0.0,0.0,0.0,0.0,0.0,0.0,0.0,0.0,0.0,0.0,0.0,0.0,0.0,0.0,0.0,0.0,0.0,0.0,0.0,0.0,0.0,0.0,0.0,0.0,0.0,0.0,0.0,0.0,0.0,0.0,0.0,0.0,0.0,0.0,0.0,0.0,0.0,0.0,0.0,0.0,0.0,0.0,0.0,0.0,0.0,0.0,0.0,0.0,0.0,0.0,0.0,0.0,0.0,0.0,-1.8824,-1.8903,-1.8688,0.0,0.0,0.0,0.0,0.0,0.0,0.0,0.0,0.0,0.0,0.0,0.0,0.0,0.0,0.0,0.0,0.0,0.0,0.0,0.0,0.0,0.0,0.0,0.0,0.0,0.0,0.0,0.0,0.0,0.0,0.0,0.0,0.0,0.0,0.0,0.0,0.0,0.0,0.0,0.0,0.0,0.0,0.0,0.0,0.0,0.0,0.0,0.0,0.0,0.0,0.0,0.0,0.0,0.0,0.0,0.0,0.0,0.0,0.0,0.0,0.0,0.0,0.0,0.0,0.0,0.0,0.0,0.0,0.0,0.0,0.0,0.0,0.0,0.0,0.0,0.0,0.0,0.0,0.0,0.0,0.0,0.0,0.0,0.0,0.0,0.0,0.0,0.0,0.0,0.0,0.0,0.0,0.0,0.0,0.0,0.0,0.0,0.0,0.0,0.0,0.0,0.0,0.0,0.0,0.0,0.0,0.0,0.0,0.0,0.0,-1.986,-1.933,-1.9343,0.0,-1.9938,0.0,0.0,0.0,0.0,0.0,0.0,0.0,0.0,0.0,0.0,0.0,0.0,0.0,0.0,0.0,0.0,0.0,0.0,0.0,0.0,0.0,0.0,0.0,0.0,0.0,0.0,0.0,0.0,0.0,0.0,0.0,0.0,0.0,0.0,0.0,0.0,0.0,0.0,0.0,0.0,0.0,0.0,0.0,0.0,0.0,0.0,0.0,0.0,0.0,0.0,0.0,0.0,0.0,0.0,0.0,0.0,0.0,0.0,0.0,0.0,0.0,0.0,0.0,0.0,0.0,0.0,0.0,0.0,0.0,0.0,0.0,0.0,0.0,0.0,0.0,0.0,0.0,0.0,0.0,0.0,0.0,0.0,0.0,0.0,0.0,0.0,0.0,0.0,0.0,0.0,0.0,0.0,0.0,0.0,0.0,0.0,0.0,0.0,0.0,0.0,0.0,0.0,0.0,0.0,0.0,0.0,0.0,0.0,0.0,0.0,-2.0539,-2.057,-1.9947,-1.9601,0.0,0.0,0.0,0.0,0.0,0.0,0.0,0.0,0.0,0.0,0.0,0.0,0.0,0.0,0.0,0.0,0.0,0.0,0.0,0.0,0.0,0.0,0.0,0.0,0.0,0.0,0.0,0.0,0.0,0.0,0.0,0.0,0.0,0.0,0.0,0.0,0.0,0.0,0.0,0.0,0.0,0.0,0.0,0.0,0.0,0.0,0.0,0.0,0.0,0.0,0.0,0.0,0.0,0.0,0.0,0.0,0.0,0.0,0.0,0.0,0.0,0.0,0.0,0.0,0.0,0.0,0.0,0.0,0.0,0.0,0.0,0.0,0.0,0.0,0.0,0.0,0.0,0.0,0.0,0.0,0.0,0.0,0.0,0.0,0.0,0.0,0.0,0.0,0.0,0.0,0.0,0.0,0.0,0.0,0.0,0.0,0.0,0.0,0.0,0.0,0.0,0.0,0.0,0.0,0.0,0.0,0.0,0.0,0.0,0.0,-2.1345,-2.084,-2.1023,-2.0003,-1.9432,-1.9394,0.0,0.0,0.0,0.0,0.0,0.0,0.0,0.0,0.0,0.0,0.0,0.0,0.0,0.0,0.0,0.0,0.0,0.0,0.0,0.0,0.0,0.0,0.0,0.0,0.0,0.0,0.0,0.0,0.0,0.0,0.0,0.0,0.0,0.0,0.0,0.0,0.0,0.0,0.0,0.0,0.0,0.0,0.0,0.0,0.0,0.0,0.0,0.0,0.0,0.0,0.0,0.0,0.0,0.0,0.0,0.0,0.0,0.0,0.0,0.0,0.0,0.0,0.0,0.0,0.0,0.0,0.0,0.0,0.0,0.0,0.0,0.0,0.0,0.0,0.0,0.0,0.0,0.0,0.0,0.0,0.0,0.0,0.0,0.0,0.0,0.0,0.0,0.0,0.0,0.0,0.0,0.0,0.0,0.0,0.0,0.0,0.0,0.0,0.0,0.0,0.0,0.0,0.0,0.0,0.0,0.0,0.0,0.0,-2.2502,-2.1155,-2.0408,-2.0246,-1.9234,-1.9201,0.0,0.0,0.0,0.0,0.0,0.0,0.0,0.0,0.0,0.0,0.0,0.0,0.0,0.0,0.0,0.0,0.0,0.0,0.0,0.0,0.0,0.0,0.0,0.0,0.0,0.0,0.0,0.0,0.0,0.0,0.0,0.0,0.0,0.0,0.0,0.0,0.0,0.0,0.0,0.0,0.0,0.0,0.0,0.0,0.0,0.0,0.0,0.0,0.0,0.0,0.0,0.0,0.0,0.0,0.0,0.0,0.0,0.0,0.0,0.0,0.0,0.0,0.0,0.0,0.0,0.0,0.0,0.0,0.0,0.0,0.0,0.0,0.0,0.0,0.0,0.0,0.0,0.0,0.0,0.0,0.0,0.0,0.0,0.0,0.0,0.0,0.0,0.0,0.0,0.0,0.0,0.0,0.0,0.0,0.0,0.0,0.0,0.0,0.0,0.0,0.0,0.0,0.0,0.0,0.0,0.0,0.0,0.0,0.0,-2.32,-2.2278,-2.1131,-1.9964,-1.9719,-1.9597,0.0,0.0,0.0,0.0,0.0,0.0,0.0,0.0,0.0,0.0,0.0,0.0,0.0,0.0,0.0,0.0,0.0,0.0,0.0,0.0,0.0,0.0,0.0,0.0,0.0,0.0,0.0,0.0,0.0,0.0,0.0,0.0,0.0,0.0,0.0,0.0,0.0,0.0,0.0,0.0,0.0,0.0,0.0,0.0,0.0,0.0,0.0,0.0,0.0,0.0,0.0,0.0,0.0,0.0,0.0,0.0,0.0,0.0,0.0,0.0,0.0,0.0,0.0,0.0,0.0,0.0,0.0,0.0,0.0,0.0,0.0,0.0,0.0,0.0,0.0,0.0,0.0,0.0,0.0,0.0,0.0,0.0,0.0,0.0,0.0,0.0,0.0,0.0,0.0,0.0,0.0,0.0,0.0,0.0,0.0,0.0,0.0,0.0,0.0,0.0,0.0,0.0,0.0,0.0,0.0,0.0,0.0,0.0,0.0,-2.2934,0.0,-2.0987,-2.0025,-2.0156,-2.0119,0.0,0.0,0.0,0.0,0.0,0.0,0.0,0.0,0.0,0.0,0.0,0.0,0.0,0.0,0.0,0.0,0.0,0.0,0.0,0.0,0.0,0.0,0.0,0.0,0.0,0.0,0.0,0.0,0.0,0.0,0.0,0.0,0.0,0.0,0.0,0.0,0.0,0.0,0.0,0.0,0.0,0.0,0.0,0.0,0.0,0.0,0.0,0.0,0.0,0.0,0.0,0.0,0.0,0.0,0.0,0.0,0.0,0.0,0.0,0.0,0.0,0.0,0.0,0.0,0.0,0.0,0.0,0.0,0.0,0.0,0.0,0.0,0.0,0.0,0.0,0.0,0.0,0.0,0.0,0.0,0.0,0.0,0.0,0.0,0.0,0.0,0.0,0.0,0.0,0.0,0.0,0.0,0.0,0.0,0.0,0.0,0.0,0.0,0.0,0.0,0.0,0.0,0.0,0.0,0.0,0.0,0.0,0.0,-2.2287,-2.1363,-2.01,-1.979,-2.0466,-2.0486,-2.0731,0.0,0.0,0.0,0.0,0.0,0.0,0.0,0.0,0.0,0.0,0.0,0.0,0.0,0.0,0.0,0.0,0.0,0.0,0.0,0.0,0.0,0.0,0.0,0.0,0.0,0.0,0.0,0.0,0.0,0.0,0.0,0.0,0.0,0.0,0.0,0.0,0.0,0.0,0.0,0.0,0.0,0.0,0.0,0.0,0.0,0.0,0.0,0.0,0.0,0.0,0.0,0.0,0.0,0.0,0.0,0.0,0.0,0.0,0.0,0.0,0.0,0.0,0.0,0.0,0.0,0.0,0.0,0.0,0.0,0.0,0.0,0.0,0.0,0.0,0.0,0.0,0.0,0.0,0.0,0.0,0.0,0.0,0.0,0.0,0.0,0.0,0.0,0.0,0.0,0.0,0.0,0.0,0.0,0.0,0.0,0.0,0.0,0.0,0.0,0.0,0.0,0.0,0.0,0.0,0.0,0.0,0.0,0.0,0.0,-2.2557,-2.0892,-2.0225,-2.0745,-2.0743,-2.0678,0.0,0.0,0.0,0.0,0.0,0.0,0.0,0.0,0.0,0.0,0.0,0.0,0.0,0.0,0.0,0.0,0.0,0.0,0.0,0.0,0.0,0.0,0.0,0.0,0.0,0.0,0.0,0.0,0.0,0.0,0.0,0.0,0.0,0.0,0.0,0.0,0.0,0.0,0.0,0.0,0.0,0.0,0.0,0.0,0.0,0.0,0.0,0.0,0.0,0.0,0.0,0.0,0.0,0.0,0.0,0.0,0.0,0.0,0.0,0.0,0.0,0.0,0.0,0.0,0.0,0.0,0.0,0.0,0.0,0.0,0.0,0.0,0.0,0.0,0.0,0.0,0.0,0.0,0.0,0.0,0.0,0.0,0.0,0.0,0.0,0.0,0.0,0.0,0.0,0.0,0.0,0.0,0.0,0.0,0.0,0.0,0.0,0.0,0.0,0.0,0.0,0.0,0.0,0.0,0.0,0.0,0.0,0.0,0.0,-2.217,-2.0934,-2.0445,-2.0906,-2.1314,-2.143,-2.1152,0.0,0.0,0.0,0.0,0.0,0.0,0.0,0.0,0.0,0.0,0.0,0.0,0.0,0.0,0.0,0.0,0.0,0.0,0.0,0.0,0.0,0.0,0.0,0.0,0.0,0.0,0.0,0.0,0.0,0.0,0.0,0.0,0.0,0.0,0.0,0.0,0.0,0.0,0.0,0.0,0.0,0.0,0.0,0.0,0.0,0.0,0.0,0.0,0.0,0.0,0.0,0.0,0.0,0.0,0.0,0.0,0.0,0.0,0.0,0.0,0.0,0.0,0.0,0.0,0.0,0.0,0.0,0.0,0.0,0.0,0.0,0.0,0.0,0.0,0.0,0.0,0.0,0.0,0.0,0.0,0.0,0.0,0.0,0.0,0.0,0.0,0.0,0.0,0.0,0.0,0.0,0.0,0.0,0.0,0.0,0.0,0.0,0.0,0.0,0.0,0.0,0.0,0.0,0.0,0.0,0.0,0.0,0.0,-2.0685,-2.0315,-2.0419,-2.0936,-2.2117,-2.2777,0.0,0.0,0.0,0.0,0.0,0.0,0.0,0.0,0.0,0.0,0.0,0.0,0.0,0.0,0.0,0.0,0.0,0.0,0.0,0.0,0.0,0.0,0.0,0.0,0.0,0.0,0.0,0.0,0.0,0.0,0.0,0.0,0.0,0.0,0.0,0.0,0.0,0.0,0.0,0.0,0.0,0.0,0.0,0.0,0.0,0.0,0.0,0.0,0.0,0.0,0.0,0.0,0.0,0.0,0.0,0.0,0.0,0.0,0.0,0.0,0.0,0.0,0.0,0.0,0.0,0.0,0.0,0.0,0.0,0.0,0.0,0.0,0.0,0.0,0.0,0.0,0.0,0.0,0.0,0.0,0.0,0.0,0.0,0.0,0.0,0.0,0.0,0.0,0.0,0.0,0.0,0.0,0.0,0.0,0.0,0.0,0.0,0.0,0.0,0.0,0.0,0.0,0.0,0.0,0.0,0.0,0.0,0.0,0.0,-2.1343,-2.0899,-2.0866,-2.1266,-2.2354,-2.2812,0.0,0.0,0.0,0.0,0.0,0.0,0.0,0.0,0.0,0.0,0.0,0.0,0.0,0.0,0.0,0.0,0.0,0.0,0.0,0.0,0.0,0.0,0.0,0.0,0.0,0.0,0.0,0.0,0.0,0.0,0.0,0.0,0.0,0.0,0.0,0.0,0.0,0.0,0.0,0.0,0.0,0.0,0.0,0.0,0.0,0.0,0.0,0.0,0.0,0.0,0.0,0.0,0.0,0.0,0.0,0.0,0.0,0.0,0.0,0.0,0.0,0.0,0.0,0.0,0.0,0.0,0.0,0.0,0.0,0.0,0.0,0.0,0.0,0.0,0.0,0.0,0.0,0.0,0.0,0.0,0.0,0.0,0.0,0.0,0.0,0.0,0.0,0.0,0.0,0.0,0.0,0.0,0.0,0.0,0.0,0.0,0.0,0.0,0.0,0.0,0.0,0.0,0.0,0.0,0.0,0.0,0.0,0.0,-2.1393,-2.0325,-2.048,-2.0737,-2.0969,-2.2082,-2.2703,0.0,0.0,0.0,0.0,0.0,0.0,0.0,0.0,0.0,0.0,0.0,0.0,0.0,0.0,0.0,0.0,0.0,0.0,0.0,0.0,0.0,0.0,0.0,0.0,0.0,0.0,0.0,0.0,0.0,0.0,0.0,0.0,0.0,0.0,0.0,0.0,0.0,0.0,0.0,0.0,0.0,0.0,0.0,0.0,0.0,0.0,0.0,0.0,0.0,0.0,0.0,0.0,0.0,0.0,0.0,0.0,0.0,0.0,0.0,0.0,0.0,0.0,0.0,0.0,0.0,0.0,0.0,0.0,0.0,0.0,0.0,0.0,0.0,0.0,0.0,0.0,0.0,0.0,0.0,0.0,0.0,0.0,0.0,0.0,0.0,0.0,0.0,0.0,0.0,0.0,0.0,0.0,0.0,0.0,0.0,0.0,0.0,0.0,0.0,0.0,0.0,0.0,0.0,0.0,0.0,0.0,0.0,0.0,-2.0699,-1.8773,-1.9676,-2.027,-2.0405,-2.1641,-2.2516,0.0,0.0,0.0,0.0,0.0,0.0,0.0,0.0,0.0,0.0,0.0,0.0,0.0,0.0,0.0,0.0,0.0,0.0,0.0,0.0,0.0,0.0,0.0,0.0,0.0,0.0,0.0,0.0,0.0,0.0,0.0,0.0,0.0,0.0,0.0,0.0,0.0,0.0,0.0,0.0,0.0,0.0,0.0,0.0,0.0,0.0,0.0,0.0,0.0,0.0,0.0,0.0,0.0,0.0,0.0,0.0,0.0,0.0,0.0,0.0,0.0,0.0,0.0,0.0,0.0,0.0,0.0,0.0,0.0,0.0,0.0,0.0,0.0,0.0,0.0,0.0,0.0,0.0,0.0,0.0,0.0,0.0,0.0,0.0,0.0,0.0,0.0,0.0,0.0,0.0,0.0,0.0,0.0,0.0,0.0,0.0,0.0,0.0,0.0,0.0,0.0,0.0,0.0,0.0,0.0,0.0,0.0,0.0,-2.0981,-2.0091,-2.0185,-2.0471,-2.0861,-2.1896,-2.254,0.0,0.0,0.0,0.0,0.0,0.0,0.0,0.0,0.0,0.0,0.0,0.0,0.0,0.0,0.0,0.0,0.0,0.0,0.0,0.0,0.0,0.0,0.0,0.0,0.0,0.0,0.0,0.0,0.0,0.0,0.0,0.0,0.0,0.0,0.0,0.0,0.0,0.0,0.0,0.0,0.0,0.0,0.0,0.0,0.0,0.0,0.0,0.0,-1.9834,0.0,0.0,0.0,0.0,0.0,0.0,0.0,0.0,0.0,0.0,0.0,0.0,0.0,0.0,0.0,0.0,0.0,0.0,0.0,0.0,0.0,0.0,0.0,0.0,0.0,0.0,0.0,0.0,0.0,0.0,0.0,0.0,0.0,0.0,0.0,0.0,0.0,0.0,0.0,0.0,0.0,0.0,0.0,0.0,0.0,0.0,0.0,0.0,0.0,0.0,0.0,0.0,0.0,0.0,0.0,0.0,0.0,0.0,0.0,-2.1247,-2.0248,-2.0558,-2.0643,-2.0442,-2.131,-2.2117,0.0,0.0,0.0,0.0,0.0,0.0,0.0,0.0,0.0,0.0,0.0,0.0,0.0,0.0,0.0,0.0,0.0,0.0,0.0,0.0,0.0,0.0,0.0,0.0,0.0,0.0,0.0,0.0,0.0,0.0,0.0,0.0,0.0,0.0,0.0,0.0,0.0,0.0,0.0,0.0,0.0,0.0,0.0,0.0,0.0,0.0,0.0,0.0,0.0,0.0,0.0,0.0,0.0,0.0,0.0,0.0,0.0,0.0,0.0,0.0,0.0,0.0,0.0,0.0,0.0,0.0,0.0,0.0,0.0,0.0,0.0,0.0,0.0,0.0,0.0,0.0,0.0,0.0,0.0,0.0,0.0,0.0,0.0,0.0,0.0,0.0,0.0,0.0,0.0,0.0,0.0,0.0,0.0,0.0,0.0,0.0,0.0,0.0,0.0,0.0,0.0,0.0,0.0,0.0,0.0,0.0,0.0,-2.2247,-2.1348,-2.0025,-2.066,-2.0599,-1.9762,-2.0541,-2.1534,-2.2681,0.0,0.0,0.0,0.0,0.0,0.0,0.0,0.0,0.0,0.0,0.0,0.0,0.0,0.0,0.0,0.0,0.0,0.0,0.0,0.0,0.0,0.0,0.0,0.0,0.0,0.0,0.0,0.0,0.0,0.0,0.0,0.0,0.0,0.0,0.0,0.0,0.0,0.0,-2.1247,-2.2051,0.0,0.0,0.0,0.0,0.0,0.0,0.0,0.0,-2.1858,0.0,0.0,0.0,0.0,0.0,0.0,0.0,0.0,0.0,0.0,0.0,0.0,0.0,0.0,0.0,0.0,0.0,0.0,0.0,0.0,0.0,0.0,0.0,0.0,0.0,0.0,0.0,0.0,0.0,0.0,0.0,0.0,0.0,0.0,0.0,0.0,0.0,0.0,0.0,0.0,0.0,0.0,0.0,0.0,0.0,0.0,0.0,0.0,0.0,0.0,0.0,0.0,0.0,0.0,0.0,0.0,-2.2021,-2.1655,-2.1142,-2.0571,-2.0182,-1.9888,-1.9732,-2.0275,-2.108,-2.2023,0.0,0.0,0.0,0.0,0.0,0.0,0.0,0.0,0.0,0.0,0.0,0.0,0.0,0.0,0.0,0.0,0.0,0.0,0.0,0.0,0.0,0.0,0.0,0.0,0.0,0.0,0.0,0.0,0.0,0.0,0.0,0.0,0.0,0.0,0.0,0.0,0.0,0.0,0.0,-2.1215,-2.1801,0.0,0.0,0.0,0.0,0.0,0.0,0.0,0.0,-2.1342,0.0,0.0,0.0,0.0,0.0,0.0,0.0,0.0,0.0,0.0,0.0,0.0,0.0,0.0,0.0,0.0,0.0,0.0,0.0,0.0,0.0,0.0,0.0,0.0,0.0,0.0,0.0,0.0,0.0,0.0,0.0,0.0,0.0,0.0,0.0,0.0,0.0,0.0,0.0,0.0,0.0,0.0,0.0,0.0,0.0,0.0,0.0,0.0,0.0,0.0,0.0,0.0,0.0,0.0,0.0,-2.3032,-2.1985,-2.131,-2.1207,-2.0917,-2.0587,-2.0258,-2.1055,-2.1754,0.0,0.0,0.0,0.0,0.0,0.0,0.0,0.0,0.0,0.0,0.0,0.0,0.0,0.0,0.0,0.0,0.0,0.0,0.0,0.0,0.0,0.0,0.0,0.0,0.0,0.0,0.0,0.0,0.0,0.0,0.0,0.0,0.0,0.0,0.0,0.0,0.0,0.0,0.0,0.0,-2.1499,-2.2115,-2.2539,0.0,0.0,0.0,0.0,0.0,0.0,-2.1655,-2.1722,0.0,0.0,0.0,0.0,0.0,0.0,0.0,0.0,0.0,0.0,0.0,0.0,0.0,0.0,0.0,0.0,0.0,0.0,0.0,0.0,0.0,0.0,0.0,0.0,0.0,0.0,0.0,0.0,0.0,0.0,0.0,0.0,0.0,0.0,0.0,0.0,0.0,0.0,0.0,0.0,0.0,0.0,0.0,0.0,0.0,0.0,0.0,0.0,0.0,0.0,0.0,0.0,0.0,0.0,0.0,-2.4207,-2.2623,-2.1832,-2.2033,-2.1834,-2.1446,-2.092,-2.1856,-2.255,0.0,0.0,0.0,0.0,0.0,0.0,0.0,0.0,0.0,0.0,0.0,0.0,0.0,0.0,0.0,0.0,0.0,0.0,0.0,0.0,0.0,0.0,0.0,0.0,0.0,0.0,0.0,0.0,0.0,0.0,0.0,0.0,0.0,0.0,0.0,0.0,0.0,0.0,0.0,0.0,0.0,-2.2278,-2.277,-2.3152,0.0,0.0,0.0,0.0,-2.2562,-2.2637,0.0,0.0,0.0,0.0,0.0,0.0,0.0,0.0,0.0,0.0,0.0,0.0,0.0,0.0,0.0,0.0,0.0,0.0,0.0,0.0,0.0,0.0,0.0,0.0,0.0,0.0,0.0,0.0,0.0,0.0,0.0,0.0,0.0,0.0,0.0,0.0,0.0,0.0,0.0,0.0,0.0,0.0,0.0,0.0,0.0,0.0,0.0,0.0,0.0,0.0,0.0,0.0,0.0,0.0,0.0,0.0,-2.4574,-2.3274,-2.2776,-2.3117,-2.2243,-2.1645,-2.1584,-2.2007,-2.2509,0.0,0.0,0.0,0.0,0.0,0.0,0.0,0.0,0.0,0.0,0.0,0.0,0.0,0.0,0.0,0.0,0.0,0.0,0.0,0.0,0.0,0.0,0.0,0.0,0.0,0.0,0.0,0.0,0.0,0.0,0.0,0.0,0.0,0.0,0.0,0.0,0.0,0.0,0.0,0.0,0.0,-2.1286,-2.1861,-2.2378,-2.2931,0.0,0.0,-2.3746,-2.2719,-2.3743,0.0,0.0,0.0,0.0,0.0,0.0,0.0,0.0,0.0,0.0,0.0,0.0,0.0,0.0,0.0,0.0,0.0,0.0,0.0,0.0,0.0,0.0,0.0,0.0,0.0,0.0,0.0,0.0,0.0,0.0,0.0,0.0,0.0,0.0,0.0,0.0,0.0,0.0,0.0,0.0,0.0,0.0,0.0,0.0,0.0,0.0,0.0,0.0,0.0,0.0,0.0,0.0,0.0,0.0,0.0,-2.4523,-2.5197,-2.41,-2.3636,-2.3946,-2.3546,-2.3148,-2.2807,-2.3523,-2.404,0.0,0.0,0.0,0.0,0.0,0.0,0.0,0.0,0.0,0.0,0.0,0.0,0.0,0.0,0.0,0.0,0.0,0.0,0.0,0.0,0.0,0.0,0.0,0.0,0.0,0.0,0.0,0.0,0.0,0.0,0.0,0.0,0.0,0.0,0.0,0.0,0.0,0.0,0.0,0.0,0.0,0.0,-2.107,-2.1748,0.0,0.0,0.0,-2.4781,-2.4088,0.0,0.0,0.0,0.0,0.0,0.0,0.0,0.0,0.0,0.0,0.0,0.0,0.0,0.0,0.0,0.0,0.0,0.0,0.0,0.0,0.0,0.0,0.0,0.0,0.0,0.0,0.0,0.0,0.0,0.0,0.0,0.0,0.0,0.0,0.0,0.0,0.0,0.0,0.0,0.0,0.0,0.0,0.0,0.0,0.0,0.0,0.0,0.0,0.0,0.0,0.0,0.0,0.0,0.0,0.0,0.0,0.0,-2.5777,-2.4856,-2.4606,-2.5123,-2.4923,-2.4627,-2.4132,-2.4936,0.0,0.0,0.0,0.0,0.0,0.0,0.0,0.0,0.0,0.0,0.0,0.0,0.0,0.0,0.0,0.0,0.0,0.0,0.0,0.0,0.0,0.0,0.0,0.0,0.0,0.0,0.0,-2.3911,0.0,0.0,0.0,0.0,0.0,0.0,0.0,0.0,0.0,0.0,0.0,0.0,0.0,0.0,-2.0103,-2.0976,-2.1477,-2.2385,0.0,0.0,-2.5939,-2.5522,-2.6229,-2.637,0.0,0.0,0.0,0.0,0.0,0.0,0.0,0.0,0.0,0.0,0.0,0.0,0.0,0.0,0.0,0.0,0.0,0.0,0.0,0.0,0.0,0.0,0.0,0.0,0.0,0.0,0.0,0.0,0.0,0.0,0.0,0.0,0.0,0.0,0.0,0.0,0.0,0.0,0.0,0.0,0.0,0.0,0.0,0.0,0.0,0.0,0.0,0.0,0.0,0.0,0.0,0.0,0.0,0.0,0.0,-2.5971,-2.5368,-2.5686,-2.7019,-2.6061,-2.5525,-2.5465,-2.5778,-2.5775,0.0,0.0,0.0,0.0,0.0,0.0,0.0,0.0,0.0,0.0,0.0,0.0,0.0,0.0,0.0,0.0,0.0,0.0,0.0,0.0,0.0,0.0,0.0,0.0,0.0,0.0,0.0,0.0,0.0,0.0,0.0,0.0,0.0,0.0,0.0,0.0,0.0,0.0,0.0,0.0,0.0,-2.0755,-2.1938,-2.1754,-2.2452,0.0,0.0,-2.7303,-2.6607,-2.7757,-2.8049,-2.5796,0.0,0.0,0.0,0.0,0.0,0.0,0.0,0.0,0.0,0.0,0.0,0.0,0.0,0.0,0.0,0.0,0.0,0.0,0.0,0.0,0.0,0.0,0.0,0.0,0.0,0.0,0.0,0.0,0.0,0.0,0.0,0.0,0.0,0.0,0.0,0.0,0.0,0.0,0.0,0.0,0.0,0.0,0.0,0.0,0.0,0.0,0.0,0.0,0.0,0.0,0.0,0.0,0.0,-2.5169,-2.6105,-2.6315,-2.669,-2.7285,-2.6995,-2.6632,-2.6243,-2.6482,-2.6462,0.0,0.0,0.0,0.0,0.0,0.0,0.0,0.0,0.0,0.0,0.0,0.0,0.0,0.0,0.0,0.0,0.0,0.0,0.0,0.0,0.0,0.0,0.0,0.0,0.0,0.0,0.0,0.0,-2.319,-2.3647,-2.4261,0.0,0.0,0.0,0.0,0.0,0.0,0.0,0.0,0.0,0.0,-1.878,-1.8533,-1.9279,0.0,0.0,-2.5512,-2.6924,-2.5681,-2.7131,-2.7722,-2.56,-2.5426,0.0,0.0,0.0,0.0,0.0,0.0,0.0,0.0,0.0,0.0,0.0,0.0,0.0,0.0,0.0,0.0,0.0,0.0,0.0,0.0,0.0,0.0,0.0,0.0,0.0,0.0,0.0,0.0,0.0,0.0,0.0,0.0,0.0,0.0,0.0,0.0,0.0,0.0,0.0,0.0,0.0,0.0,0.0,0.0,0.0,0.0,0.0,0.0,0.0,0.0,0.0,0.0,-2.5676,-2.6415,-2.7322,-2.7834,-2.7934,-2.7874,-2.7519,-2.692,-2.7086,-2.7026,0.0,0.0,0.0,0.0,0.0,0.0,0.0,0.0,0.0,0.0,0.0,0.0,0.0,0.0,0.0,0.0,0.0,0.0,0.0,0.0,0.0,0.0,0.0,0.0,0.0,0.0,0.0,0.0,-2.3335,-2.3682,-2.4045,0.0,0.0,0.0,0.0,0.0,0.0,0.0,0.0,0.0,0.0,-1.7571,-1.6961,-1.8059,-1.9784,-2.2164,-2.4886,-2.638,-2.5375,-2.6837,-2.7455,-2.5961,0.0,0.0,0.0,0.0,0.0,0.0,0.0,0.0,0.0,0.0,0.0,0.0,0.0,0.0,0.0,0.0,0.0,0.0,0.0,0.0,0.0,0.0,0.0,0.0,0.0,0.0,0.0,0.0,0.0,0.0,-2.5281,0.0,0.0,0.0,0.0,0.0,0.0,0.0,0.0,0.0,0.0,0.0,0.0,0.0,0.0,0.0,0.0,0.0,0.0,0.0,0.0,0.0,0.0,-2.6422,-2.721,-2.845,-2.921,-2.931,-2.8764,-2.8174,-2.763,-2.755,-2.741,-2.7026,0.0,0.0,0.0,0.0,0.0,0.0,0.0,0.0,0.0,0.0,0.0,0.0,0.0,0.0,0.0,0.0,0.0,0.0,0.0,0.0,0.0,0.0,0.0,0.0,0.0,0.0,-2.5397,-2.4968,-2.4633,0.0,0.0,0.0,0.0,0.0,0.0,0.0,0.0,0.0,0.0,-1.8234,-1.7728,-1.8194,-1.8802,-2.0534,-2.3986,-2.5112,-2.5712,-2.6118,-2.7087,-2.7634,0.0,0.0,0.0,0.0,0.0,0.0,0.0,0.0,0.0,0.0,0.0,0.0,0.0,0.0,0.0,0.0,0.0,0.0,0.0,0.0,0.0,0.0,0.0,0.0,0.0,0.0,0.0,-2.7897,-2.5801,0.0,0.0,0.0,0.0,0.0,0.0,0.0,0.0,0.0,0.0,0.0,-2.9212,-2.9171,0.0,0.0,0.0,0.0,0.0,0.0,0.0,0.0,0.0,0.0,0.0,0.0,-2.6063,-2.7178,-2.8115,-2.905,-2.9946,-2.8996,-2.8415,-2.8174,-2.781,-2.7891,-2.845,0.0,0.0,0.0,0.0,0.0,0.0,0.0,0.0,0.0,0.0,0.0,0.0,0.0,0.0,0.0,0.0,0.0,0.0,0.0,0.0,0.0,0.0,0.0,0.0,0.0,-2.657,0.0,0.0,0.0,0.0,0.0,0.0,0.0,0.0,0.0,0.0,0.0,-2.3129,-2.0461,-2.0144,-1.9832,-1.9022,-2.0213,-2.1524,0.0,0.0,0.0,0.0,0.0,0.0,0.0,0.0,0.0,0.0,0.0,0.0,0.0,0.0,-2.8122,-2.6803,-2.7186,-2.7714,-2.7739,0.0,0.0,0.0,0.0,0.0,0.0,0.0,0.0,0.0,0.0,0.0,0.0,0.0,0.0,-2.7525,0.0,-2.6957,0.0,0.0,0.0,0.0,0.0,0.0,0.0,0.0,-2.7803,-2.9101,-3.0072,-3.0249,-3.0432,0.0,-3.0052,-2.8586,0.0,0.0,0.0,0.0,0.0,0.0,0.0,0.0,-2.6507,-2.7477,-2.8687,-2.9656,-3.0201,-2.931,-2.8716,-2.8511,-2.791,-2.8028,-2.8934,-2.8869,-2.906,0.0,0.0,0.0,0.0,0.0,0.0,0.0,0.0,0.0,0.0,0.0,0.0,0.0,0.0,0.0,0.0,0.0,0.0,0.0,0.0,0.0,0.0,0.0,-2.6591,0.0,0.0,0.0,0.0,0.0,0.0,0.0,0.0,0.0,-2.4282,-2.4413,-2.3587,-2.076,-2.0123,-1.9996,-2.0108,0.0,0.0,0.0,0.0,0.0,0.0,0.0,-2.5467,-2.6277,-2.6215,-2.6498,-2.773,-2.8812,-2.9233,-2.8685,0.0,0.0,-2.8973,-2.9257,-2.9765,-2.9839,-2.959,-2.9423,-2.9589,-2.9375,-2.9206,0.0,0.0,0.0,0.0,0.0,0.0,0.0,0.0,-2.7401,-2.6495,0.0,-2.5704,0.0,0.0,0.0,0.0,0.0,-2.6411,0.0,0.0,-2.8449,-2.9951,-2.9933,-3.0335,-3.0535,-3.0391,-2.8837,-2.8358,-2.8866,-2.7954,0.0,0.0,0.0,0.0,0.0,0.0,-2.7707,-2.8037,-3.0143,-3.0952,-3.0351,-2.976,-2.9118,-2.848,-2.791,-2.791,-2.8449,-2.8976,-2.9499,-3.0075,-3.0478,0.0,0.0,0.0,0.0,0.0,0.0,0.0,0.0,0.0,0.0,0.0,0.0,0.0,0.0,0.0,0.0,0.0,0.0,0.0,0.0,-2.7181,0.0,0.0,0.0,0.0,0.0,0.0,0.0,0.0,0.0,0.0,-2.4328,-2.3797,-2.2769,-2.0771,0.0,0.0,0.0,0.0,-2.1333,-2.4884,-2.5788,-2.601,-2.5913,-2.6093,-2.6173,-2.6118,0.0,0.0,-2.7742,-2.8157,-2.8528,-2.8164,-3.0636,-3.2214,-3.0841,-3.0643,-3.0598,-3.0441,-3.0445,-3.0281,-3.0358,-3.0526,-3.0485,-2.8713,0.0,0.0,0.0,0.0,-2.8952,-2.8077,-2.6835,-2.7567,-2.6609,-2.468,-2.6124,0.0,0.0,0.0,0.0,0.0,0.0,-2.5621,-2.5918,-2.7921,-2.9147,-2.9702,-3.082,-3.1192,-3.0847,-3.081,-3.0261,-2.9166,-2.8293,-2.789,-2.7736,0.0,0.0,0.0,0.0,-2.7598,-2.8226,-2.9805,-3.0763,-3.0918,-3.0356,-2.9544,-2.8511,-2.791,-2.791,-2.8463,-2.9042,-2.9575,-3.0108,-3.1115,0.0,0.0,0.0,0.0,0.0,0.0,0.0,0.0,0.0,0.0,0.0,0.0,0.0,0.0,0.0,0.0,0.0,0.0,0.0,-2.7307,-2.7289,-2.7404,0.0,0.0,0.0,0.0,0.0,0.0,0.0,0.0,0.0,-2.5535,-2.6261,-2.6553,0.0,0.0,-2.4813,-2.5389,-2.4462,-2.3767,-2.3651,-2.4333,0.0,-2.3685,-2.4177,-2.5002,-2.5926,-2.6837,-2.7528,-2.7991,-2.9661,-3.0942,-3.0813,-3.2521,-3.3633,-3.2914,-3.3271,-3.3643,-3.364,-3.3502,-3.3394,-3.3388,-3.317,-3.2877,-2.7469,-2.8307,-2.8081,-2.8308,-2.8721,-2.8051,-2.7137,-2.6173,-2.6764,-2.5874,-2.4155,-2.5667,-2.5479,-2.4058,-2.4576,0.0,0.0,0.0,-2.5183,-2.5766,-2.6896,-2.7968,-2.8983,-3.039,-3.0725,-3.0196,-3.0925,-3.0529,-2.9078,-2.8218,-2.8168,-2.8661,0.0,0.0,-2.605,-2.7225,-2.7847,-2.8046,-2.949,-3.0454,-3.0842,-3.0268,-2.9459,-2.8559,-2.791,-2.776,-2.8125,-2.895,-2.9524,-2.9833,-3.1287,-3.1893,0.0,0.0,0.0,0.0,0.0,0.0,0.0,0.0,0.0,0.0,0.0,-3.0747,-3.0846,0.0,0.0,0.0,-2.8421,-2.7766,-2.742,-2.7747,0.0,0.0,0.0,0.0,0.0,0.0,0.0,-2.9122,-3.006,-2.9828,-2.7266,-2.7935,-2.8108,-2.6471,-2.5419,-2.5224,-2.6526,0.0,-2.3823,-2.3819,-2.4359,-2.461,-2.4057,-2.383,-2.4135,-2.5271,-2.5379,-2.6012,-2.7441,-2.9118,-3.0267,-3.069,-3.2126,-3.3064,-3.2183,-3.2895,-3.3684,-3.3828,-3.3743,-3.3541,-3.3345,-3.3428,-3.3545,-2.631,-2.7073,-2.6867,-2.732,-2.8098,-2.6964,-2.5897,-2.5001,-2.5442,-2.4635,-2.3098,-2.4539,-2.4705,-2.3942,-2.4798,0.0,-2.3653,-2.4574,-2.5043,-2.5082,-2.572,-2.6576,-2.7769,-2.9241,-2.9509,-2.8748,-2.9678,-2.9693,-2.8765,-2.7876,-2.7876,-2.8793,-2.7505,-2.6525,-2.6072,-2.7833,-2.8497,-2.792,-2.9494,-3.0289,-3.0302,-2.9837,-2.9243,-2.8606,-2.8027,-2.776,-2.781,-2.8857,-2.9451,-2.954,-3.1219,-3.2431,-3.2829,0.0,0.0,0.0,0.0,0.0,0.0,0.0,0.0,0.0,0.0,0.0,0.0,0.0,0.0,0.0,-2.8733,0.0,-2.7912,-2.8399,0.0,0.0,0.0,-3.2135,-3.2984,-3.3114,-3.2611,-3.1099,0.0,0.0,-2.8924,-2.8771,-2.7904,-2.5336,-2.2679,-2.226,-2.5839,-2.3589,-2.2366,-2.4509,-2.4987,-2.5155,-2.5092,-2.4122,-2.3404,-2.4179,-2.3405,-2.3875,-2.6301,-2.735,-2.7839,-2.8525,-3.016,-3.112,-2.9827,-3.0342,-3.1036,-3.1393,-3.1684,-3.1622,-3.1206,-3.1804,-3.2403,-2.6064,-2.6045,-2.5237,-2.5596,-2.6782,-2.6195,-2.5383,-2.4471,-2.486,-2.4178,-2.2695,-2.314,-2.2578,-2.132,-2.2212,-2.2677,-2.2838,-2.4187,-2.489,-2.49,-2.5572,-2.6089,-2.6405,-2.7833,-2.8415,-2.8264,-2.8926,-2.8856,-2.7991,-2.7766,-2.8346,-2.9702,-2.9442,-2.9114,-2.8824,-2.9244,-2.977,-3.0401,-3.1362,-3.1366,-3.0435,-3.0718,-3.0401,-2.918,-2.9042,-2.8996,-2.8996,-2.9673,-3.0064,-3.014,-3.2008,-3.3026,-3.2906,-3.3377,0.0,0.0,0.0,0.0,0.0,0.0,0.0,0.0,0.0,-3.2684,-3.3043,0.0,-3.2217,0.0,-3.0035,-2.8726,-2.8008,-2.905,0.0,0.0,-3.2242,-3.3013,-3.3771,-3.3952,-3.3458,-3.196,-3.2563,-3.1987,-2.9115,-2.8081,-2.6947,-2.5123,-2.514,-2.5346,-2.5408,-2.3605,-2.2168,-2.2386,-2.2239,-2.1882,-2.2104,-2.2166,-2.2568,-2.3436,-2.3293,-2.4033,-2.6472,-2.7423,-2.8074,-2.8675,-2.8703,-2.8674,-2.8479,-2.7513,-2.6909,-2.7601,-2.8851,-2.9898,-2.9737,-2.996,-3.029,-2.6146,-2.5651,-2.4862,-2.4735,-2.4931,-2.4385,-2.3895,-2.3581,-2.3603,-2.2922,-2.1862,-2.1079,-2.0396,-1.9813,-2.0275,-2.087,-2.1642,-2.3365,-2.4517,-2.5159,-2.5563,-2.5884,-2.6207,-2.7333,-2.7685,-2.7391,-2.8038,-2.7775,-2.6526,-2.6521,-2.6726,-2.7193,-2.7868,-2.8643,-2.9469,-3.0398,-3.1247,-3.1901,-3.1951,-3.1609,-3.0879,-3.09,-3.0554,-2.9793,-2.9466,-2.928,-2.9249,-2.9813,-3.0103,-3.0173,-3.1811,-3.2918,-3.3323,-3.3582,-3.4045,0.0,0.0,0.0,0.0,0.0,0.0,0.0,0.0,0.0,0.0,0.0,-3.304,-3.2575,-3.1036,-2.9868,-2.952,-3.025,-3.1224,-3.2162,-3.3071,-3.3882,-3.4692,-3.484,-3.4466,-3.3339,-3.3372,-3.2578,-3.0208,-2.8344,-2.6761,-2.5521,-2.5266,-2.4923,-2.4283,-2.3231,-2.2464,-2.2246,-2.195,-2.1563,-2.1296,-2.1632,-2.2413,-2.363,-2.3259,-2.363,-2.6197,-2.6634,-2.6805,-2.7364,-2.7414,-2.6951,-2.5915,-2.5207,-2.4505,-2.4019,-2.4927,-2.6261,-2.7348,-2.8005,-2.8553,-2.6646,-2.569,-2.5252,-2.4345,-2.3194,-2.2305,-2.2198,-2.2616,-2.2163,-2.1549,-2.085,-1.894,-1.8438,-1.8962,-1.8896,-1.9442,-2.066,-2.2387,-2.4041,-2.5456,-2.5475,-2.5723,-2.6238,-2.6824,-2.6799,-2.6139,-2.6867,-2.6339,-2.485,-2.4802,-2.4657,-2.4333,-2.5462,-2.7348,-2.9839,-3.1649,-3.2651,-3.2945,-3.217,-3.1667,-3.1371,-3.1108,-3.0757,-3.0302,-2.9743,-2.9351,-2.9268,-2.9726,-2.9996,-3.0032,-3.1238,-3.2507,-3.3796,-3.3486,-3.4254,0.0,-3.5321,0.0,0.0,0.0,0.0,0.0,0.0,0.0,0.0,-3.4318,-3.3824,-3.3493,-3.2236,-3.1499,-3.1693,-3.1814,-3.2199,-3.2957,-3.3796,-3.4699,-3.5496,-3.545,-3.5098,-3.4447,-3.382,-3.2855,-3.104,-2.8883,-2.7111,-2.6074,-2.4597,-2.3671,-2.3326,-2.3021,-2.2774,-2.3128,-2.2982,-2.2581,-2.2266,-2.2052,-2.2626,-2.4066,-2.3301,-2.3099,-2.5566,-2.5497,-2.5123,-2.5544,-2.5923,-2.5512,-2.3256,-2.343,-2.3034,-2.1463,-2.1944,-2.3043,-2.4606,-2.581,-2.6704,-2.795,-2.6324,-2.5751,-2.4482,-2.2709,-2.179,-2.1596,-2.2097,-2.198,-2.1563,-2.0663,-1.8155,-1.7652,-1.8655,-1.8144,-1.9147,-2.1371,-2.2517,-2.3689,-2.4937,-2.4602,-2.4562,-2.4608,-2.4415,-2.423,-2.4108,-2.423,-2.4158,-2.3818,-2.3818,-2.5342,-2.8325,-2.7953,-2.9921,-3.4012,0.0,0.0,0.0,-3.4058,-3.3051,-3.1589,-3.2894,-3.2782,-3.1067,-3.0693,0.0,-3.045,-3.0566,-3.0654,-3.0691,-3.1445,0.0,0.0,0.0,0.0,0.0,0.0,0.0,0.0,0.0,0.0,0.0,-3.8983,-3.8833,-3.8488,-3.7942,-3.7189,-3.6191,-3.5205,-3.4153,-3.3003,-3.3494,-3.3948,-3.3962,-3.4311,-3.4878,-3.5538,-3.4716,-3.3751,-3.3055,-3.2841,-3.1957,-2.9883,-2.8586,-2.7434,-2.6013,-2.5012,-2.4531,-2.4481,-2.3457,-2.268,-2.2389,-2.2931,-2.3279,-2.3267,-2.2573,-2.2413,-2.2983,-2.2992,-2.2999,-2.3943,-2.4607,-2.4806,-2.4958,-2.4171,-2.3722,-2.3603,-2.3021,-2.2246,-2.1714,-2.2249,-2.2823,-2.2652,-2.3263,-2.4084,-2.8856,0.0,-2.5936,-2.4908,0.0,-2.239,-2.1859,-2.1869,-2.146,-2.1304,-2.1246,-1.9099,-1.8637,-1.9409,-1.9064,-1.9827,-2.1671,-2.2654,-2.3758,-2.4726,-2.4581,-2.447,-2.4447,-2.4279,-2.4167,-2.4167,-2.4167,-2.4033,-2.381,-2.381,-2.4889,-2.6887,-2.7575,-2.9322,-3.2304,-3.2927,-3.3583,-3.4352,-3.3668,-3.2829,-3.2046,-3.2942,-3.2758,-3.1268,0.0,0.0,0.0,0.0,0.0,0.0,0.0,0.0,0.0,0.0,0.0,-3.7755,-3.7754,-3.8536,-4.0338,-4.041,-4.0688,-4.1464,-4.1651,-4.0971,-3.9268,-3.8819,-3.8267,-3.7381,-3.6489,-3.5518,-3.4363,-3.4606,-3.4667,-3.4235,-3.4411,-3.4762,-3.4962,-3.4238,-3.3443,-3.313,-3.2788,-3.1931,-3.0334,-2.9305,-2.8091,-2.6518,-2.5756,-2.5256,-2.4872,-2.4459,-2.3966,-2.3534,-2.3838,-2.4255,-2.414,-2.3436,-2.2908,-2.3418,-2.3069,-2.2935,-2.3384,-2.3779,-2.4124,-2.429,-2.3776,-2.334,-2.2896,-2.238,-2.1753,-2.1439,-2.1916,-2.2372,-2.2002,-2.258,-2.3365,-2.9673,-2.7129,-2.614,-2.5189,-2.4322,-2.2867,-2.209,-2.167,0.0,0.0,0.0,-2.0115,-1.9709,-2.0138,-1.9805,-2.0219,-2.1301,-2.1978,-2.2941,-2.4175,-2.4089,-2.4147,-2.4407,-2.432,-2.4233,-2.4168,-2.4255,-2.4193,-2.3984,-2.405,-2.4346,-2.496,-2.6688,-2.8107,-2.9383,-3.1486,-3.2925,-3.375,-3.2939,-3.2574,-3.2652,-3.2706,-3.2294,-3.1396,-3.1765,-3.1949,-3.1824,-3.1951,-3.2271,-3.2791,-3.2928,-3.3372,-3.4243,-3.4972,-3.6122,-3.7727,-3.8473,-3.9852,-4.2145,-4.222,-4.2677,-4.3886,-4.373,-4.2337,-3.9589,-3.9317,-3.8986,-3.8402,-3.7319,-3.6295,-3.5483,-3.5164,-3.4703,-3.3785,-3.3849,-3.3921,-3.3855,-3.3239,-3.2725,-3.3011,-3.2327,-3.1732,-3.1099,-2.9987,-2.8721,-2.7256,-2.6496,-2.5929,-2.5242,-2.5219,-2.5386,-2.5208,-2.5247,-2.5274,-2.5126,-2.4425,-2.3927,-2.3975,-2.3329,-2.2937,-2.3128,-2.3227,-2.345,-2.3779,-2.3853,-2.3319,-2.2431,-2.2211,-2.1815,-2.0996,-2.1479,-2.2063,-2.2002,-2.2677,-2.3543,-3.0625,-2.6594,-2.6481,-2.4992,-2.2788,-2.1738,-2.1228,-2.1131,-2.032,-2.0059,-2.0123,-1.944,-1.945,-1.9944,-1.8357,-1.8383,-1.9712,-1.8851,-1.9676,0.0,-2.1453,-2.1835,-2.2804,-2.2446,-2.2068,-2.175,-2.2088,-2.2594,-2.3069,-2.3445,-2.478,-2.683,-2.7353,-2.8524,-3.0269,-3.1108,-3.2061,-3.3421,-3.3772,-3.3756,-3.338,-3.3349,-3.2951,-3.2117,-3.1495,-3.115,-3.115,-3.1691,-3.202,-3.2156,-3.2702,-3.3406,-3.4285,-3.5877,-3.7544,-3.919,-4.0154,-4.1613,-4.3506,-4.3079,-4.305,-4.3855,-4.3693,-4.3067,-4.2224,-4.167,-4.1104,-4.0479,-3.8718,-3.725,-3.6322,-3.5305,-3.4085,-3.2472,-3.1933,-3.1608,-3.154,-3.0529,-3.0319,-3.1331,-3.0283,-2.9875,-3.0269,-2.9633,-2.8663,-2.7253,-2.676,-2.6478,-2.5815,-2.5536,-2.5812,-2.617,-2.6277,-2.6277,-2.6127,-2.5438,-2.4564,-2.3685,-2.3408,-2.2968,-2.2313,-2.2736,-2.3121,-2.324,-2.3265,-2.313,-2.2884,-2.2944,-2.258,-2.1877,-2.231,-2.2641,-2.2125,-2.31,-2.4163,-3.1182,-2.831,-2.7763,-2.6582,-2.4715,-2.3467,-2.229,-2.1554,-2.1606,-2.1663,-2.1708,-2.1627,-2.1644,-2.1537,-2.0061,-1.9786,-2.0382,-1.9201,-1.9588,-2.1194,-2.1103,-2.1995,-2.3564,-2.2978,-2.278,-2.3081,-2.2695,-2.3142,-2.4328,-2.456,-2.6184,-2.895,-2.9656,-3.0471,-3.1319,-3.207,-3.2592,-3.2965,-3.3409,-3.382,-3.3999,-3.4068,-3.3565,-3.237,-3.236,-3.221,-3.1896,-3.2166,-3.2664,-3.3377,-3.3697,-3.4224,-3.4995,-3.6488,-3.7996,-3.9487,-4.0635,-4.2072,-4.3893,-4.3662,-4.3588,-4.393,-4.3693,-4.3428,-4.3178,-4.2306,-4.1516,-4.0932,-3.9716,-3.8525,-3.7286,-3.6591,-3.5614,-3.3943,-3.2905,-3.2098,-3.1565,-3.0554,-3.0034,-3.0303,-3.01,-2.9701,-2.9371,-2.9646,-2.9023,-2.7222,-2.6713,-2.6713,-2.6712,-2.6791,-2.6895,-2.7129,-2.7152,-2.6997,-2.6752,-2.6396,-2.5261,-2.3448,-2.3409,-2.3095,-2.2231,-2.258,-2.303,-2.3125,-2.315,-2.3125,-2.315,-2.3125,-2.2884,-2.2763,-2.2763,-2.2884,-2.2798,-2.3813,-2.4964,-3.1248,-2.9144,-2.8326,-2.717,-2.5792,-2.4963,-2.3694,-2.2344,-2.3322,-2.3706,-2.3604,-2.3624,-2.3457,-2.2969,-2.1836,-2.1098,-2.0729,-1.9685,-1.9803,-2.096,-2.0962,-2.2296,-2.4657,-2.3947,-2.3998,-2.483,-2.4255,-2.4661,-2.5846,-2.6154,-2.752,-3.0125,-3.1081,-3.1498,-3.1524,-3.2698,-3.301,-3.2632,-3.3281,-3.4025,-3.4729,-3.4673,-3.3998,-3.2907,-3.331,-3.3234,-3.2437,-3.2492,-3.3244,-3.4484,-3.4792,-3.521,-3.6084,-3.7456,-3.8713,-3.9838,-4.1099,-4.2448,-4.3706,-4.3937,-4.3974,-4.3881,-4.3627,-4.3463,-4.325,-4.2386,-4.1639,-4.1115,-4.0285,-3.9209,-3.7987,-3.7367,-3.6685,-3.5126,-3.3558,-3.2255,-3.1744,-3.0746,-2.9956,-2.978,-2.9943,-2.9602,-2.9227,-2.9673,-2.9334,-2.7385,-2.6712,-2.6921,-2.7235,-2.7633,-2.7974,-2.8094,-2.8007,-2.7916,-2.7436,-2.7193,-2.6127,-2.385,-2.4029,-2.3829,-2.3059,-2.3059,-2.3466,-2.3602,-2.3516,-2.3541,-2.3491,-2.3427,-2.3341,-2.3255,-2.3215,-2.3125,-2.3424,-2.4368,-2.5577,-3.0548,-2.8028,-2.6889,-2.5137,-2.3607,-2.4603,-2.4468,-2.3699,-2.4944,-2.5275,-2.4834,-2.3781,-2.3242,-2.2969,-2.1872,-2.0772,-1.9763,-1.8426,-1.8769,-2.0188,-1.9829,-2.1715,-2.518,-2.4911,-2.4975,-2.568,-2.5953,-2.64,-2.7262,-2.7696,-2.8591,-2.9704,-2.9959,-3.0112,-3.0291,-3.1785,-3.2626,-3.2621,-3.4409,-3.5362,-3.5443,-3.4945,-3.4359,-3.3593,-3.3643,-3.3023,-3.1802,-3.2272,-3.3215,-3.4617,-3.5247,-3.6206,-3.7618,-3.9373,-4.043,-4.0654,-4.2267,-4.3424,-4.3563,-4.3818,-4.3849,-4.3597,-4.3495,-4.3286,-4.2846,-4.2221,-4.181,-4.1429,-4.0084,-3.8799,-3.7815,-3.6731,-3.5462,-3.4009,-3.2245,-3.087,-3.0653,-2.9248,-2.8626,-2.9399,-2.9177,-2.8634,-2.9457,-2.951,-2.8924,-2.7773,-2.7105,-2.686,-2.681,-2.7537,-2.8372,-2.8898,-2.896,-2.8829,-2.8636,-2.8271,-2.7263,-2.5994,-2.5641,-2.5071,-2.4292,-2.4192,-2.4657,-2.4356,-2.4531,-2.4481,-2.4431,-2.4305,-2.3929,-2.3753,-2.3563,-2.3356,-2.4015,-2.4845,-2.5661,-3.0644,-2.9146,-2.7631,-2.5759,-2.4071,-2.5506,-2.5385,-2.4245,-2.5538,-2.582,-2.5506,-2.5349,-2.4824,-2.3799,-2.259,-2.1764,-2.124,-2.0063,-2.0301,-2.155,-2.1789,-2.3546,-2.6088,-2.6037,-2.6266,-2.7002,-2.6699,-2.6943,-2.8004,-2.922,-3.0369,-3.0984,-3.0801,-3.0801,-3.1112,-3.1577,-3.2049,-3.2653,-3.3935,-3.5115,-3.6035,-3.5949,-3.5341,-3.4329,-3.4654,-3.4198,-3.2883,-3.2972,-3.3597,-3.4492,-3.5281,-3.6149,-3.7153,-3.9101,-4.0348,-4.076,-4.2449,-4.3497,-4.3497,-4.3631,-4.3664,-4.3497,-4.3497,-4.3391,-4.3178,-4.2346,-4.181,-4.1639,-4.046,-3.9156,-3.7962,-3.7245,-3.6257,-3.4693,-3.2936,-3.1917,-3.2053,-3.0762,-3.0157,-3.067,-3.0342,-2.9751,-2.9449,-2.8507,-2.7902,-2.7919,-2.7706,-2.7488,-2.7792,-2.8509,-2.9,-2.9342,-2.9433,-2.9289,-2.9252,-2.9075,-2.8236,-2.7193,-2.6337,-2.5677,-2.5465,-2.4862,-2.4808,-2.4858,-2.4908,-2.4908,-2.4757,-2.4682,-2.4406,-2.4155,-2.3954,-2.3851,-2.4464,-2.5161,-2.5828,-3.0698,-3.0119,-2.8253,-2.6527,-2.5173,-2.6435,-2.6295,-2.5173,-2.6002,-2.6348,-2.6428,-2.6878,-2.6668,-2.5694,-2.4631,-2.3982,-2.3556,-2.2647,-2.2683,-2.3594,-2.3988,-2.5375,-2.7386,-2.7648,-2.817,-2.9016,-2.8979,-2.9163,-2.9952,-3.1104,-3.2145,-3.2573,-3.2004,-3.1774,-3.2011,-3.1628,-3.1724,-3.2427,-3.3436,-3.4698,-3.6009,-3.6466,-3.606,-3.4973,-3.5404,-3.5029,-3.3578,-3.3486,-3.391,-3.4752,-3.5584,-3.6486,-3.7519,-3.9341,-4.0707,-4.1443,-4.2741,-4.3497,-4.3497,-4.3356,-4.3321,-4.3426,-4.325,-4.3032,-4.2884,-4.2144,-4.1516,-4.1241,-4.0563,-3.9506,-3.8358,-3.7937,-3.7175,-3.5879,-3.4033,-3.2998,-3.3207,-3.2081,-3.1155,-3.1626,-3.1324,-3.0956,-2.9821,-2.8408,-2.7601,-2.7928,-2.8168,-2.8057,-2.8499,-2.8884,-2.9426,-2.9139,-2.9282,-2.9555,-2.9488,-2.9433,-2.8828,-2.8078,-2.7203,-2.7087,-2.672,-2.6048,-2.5651,-2.6128,-2.5597,-2.5285,-2.5435,-2.5285,-2.4883,-2.4494,-2.4418,-2.4682,-2.5126,-2.5942,-2.6544,-3.0394,-3.0439,-2.809,-2.708,-2.689,-2.7001,-2.6982,-2.6749,-2.6579,-2.6962,-2.7821,-2.7765,-2.8179,-2.8998,-2.8118,-2.7214,-2.6214,-2.6034,-2.5909,-2.5957,-2.5672,-2.6664,-2.8704,-2.9801,-3.0906,-3.2011,-3.3192,-3.3916,-3.4168,-3.3799,-3.3854,-3.4483,-3.3522,-3.272,-3.2425,-3.2146,-3.1993,-3.2434,-3.3452,-3.4418,-3.5131,-3.6118,-3.6259,-3.5641,-3.5636,-3.5,-3.3757,-3.3544,-3.4119,-3.5521,-3.6348,-3.7665,-3.9462,-4.0941,-4.2159,-4.314,-4.3389,-4.3497,-4.3391,-4.3069,-4.2957,-4.325,-4.2541,-4.1937,-4.2021,-4.1429,-4.0874,-4.0303,-4.0204,-3.9714,-3.8854,-3.8133,-3.7413,-3.6415,-3.4445,-3.3494,-3.3897,-3.219,-3.1199,-3.1668,-3.1653,-3.0966,-3.0342,-2.942,-2.8217,-2.7864,-2.8199,-2.8283,-2.7318,-2.834,-2.9005,-2.8571,-2.8798,-2.9594,-2.957,-2.9729,-2.9333,-2.8653,-2.8453,-2.8703,-2.8318,-2.785,-2.7588,-2.7314,-2.6745,-2.6384,-2.635,-2.5963,-2.5435,-2.5228,-2.5573,-2.5876,-2.5792,-2.7235,-2.7852,-3.0691,-2.9688,-2.9019,-2.8224,-2.7461,-2.7688,-2.7754,-2.7422,-2.7305,-2.7602,-2.8271,-2.8817,-2.9639,-3.0621,-3.1065,-3.0154,-2.8408,-2.8254,-2.8272,-2.8296,-2.8474,-2.9432,-3.0894,-3.2228,-3.3492,-3.4607,-3.5751,-3.6487,-3.6783,-3.658,-3.679,-3.696,-3.5698,-3.4731,-3.4297,-3.349,-3.3338,-3.3891,-3.4472,-3.5066,-3.5849,-3.6304,-3.6438,-3.6229,-3.6259,-3.5799,-3.4865,-3.4771,-3.5241,-3.6199,-3.7367,-3.8479,-3.9787,-4.1407,-4.2732,-4.3391,-4.3497,-4.3321,-4.2995,-4.2808,-4.2616,-4.2386,-4.2062,-4.1768,-4.1725,-4.1251,-4.0827,-4.0625,-4.022,-3.9765,-3.8962,-3.8246,-3.7294,-3.5946,-3.4604,-3.3955,-3.4359,-3.3203,-3.225,-3.2736,-3.1916,-3.036,-2.9372,-2.8315,-2.7784,-2.7669,-2.8341,-2.8553,-2.8493,-2.9347,-2.9784,-2.9114,-2.9253,-2.9594,-2.9594,-2.9983,-2.9937,-2.9451,-2.9229,-2.9174,-2.8866,-2.8401,-2.8039,-2.7709,-2.7338,-2.696,-2.668,-2.6077,-2.5627,-2.5946,-2.6284,-2.6463,-2.6411,-2.7809,-2.832,-3.1289,-2.9934,-2.9683,-2.9225,-2.8521,-2.8357,-2.8125,-2.7851,-2.7715,-2.8204,-2.9053,-2.9707,-3.0605,-3.192,-3.3063,-3.2735,-3.1136,-3.0754,-3.066,-3.0866,-3.16,-3.2525,-3.3819,-3.587,-3.7218,-3.7957,-3.8898,-3.9735,-4.0271,-4.0254,-4.0318,-4.0254,-3.8785,-3.7506,-3.6558,-3.5274,-3.4835,-3.5147,-3.5305,-3.5925,-3.6896,-3.7192,-3.7402,-3.7684,-3.7682,-3.7095,-3.594,-3.5619,-3.5812,-3.6662,-3.7915,-3.9311,-4.087,-4.2551,-4.3686,-4.3999,-4.3934,-4.3723,-4.3321,-4.2799,-4.2302,-4.2062,-4.1552,-4.1286,-4.1385,-4.0967,-4.072,-4.0528,-4.0319,-3.9747,-3.8745,-3.8076,-3.7294,-3.5946,-3.483,-3.4405,-3.4846,-3.3436,-3.2788,-3.2804,-3.2011,-3.0583,-2.9256,-2.8768,-2.847,-2.8171,-2.8876,-2.9374,-2.9106,-2.984,-3.0171,-2.9466,-2.9372,-2.9594,-2.9684,-3.0043,-3.0342,-2.9971,-3.0007,-2.99,-2.9638,-2.9043,-2.8512,-2.8201,-2.7736,-2.7297,-2.6799,-2.6221,-2.6177,-2.6483,-2.6857,-2.7091,-2.7588,-2.8329,-2.8842,-3.2317,-3.1417,-3.0057,-3.0056,-3.0057,-2.8986,-2.8388,-2.8396,-2.7976,-2.8805,-3.0245,-3.0231,-3.1407,-3.3057,-3.4485,-3.4768,-3.4733,-3.4094,-3.3871,-3.4046,-3.4831,-3.5894,-3.7301,-4.0542,-4.2166,-4.2362,-4.3465,-4.4359,-4.494,-4.4834,-4.4385,-4.3606,-4.2873,-4.1054,-3.8439,-3.7463,-3.6467,-3.6139,-3.6343,-3.6983,-3.8016,-3.8686,-3.9253,-3.9914,-3.9919,-3.8922,-3.6938,-3.6098,-3.6084,-3.6873,-3.7969,-4.0048,-4.2666,-4.4288,-4.5133,-4.5036,-4.4881,-4.4709,-4.4419,-4.2969,-4.2328,-4.2139,-4.1094,-4.0563,-4.078,-4.0431,-4.0154,-4.0154,-4.0003,-3.9454,-3.8222,-3.7828,-3.7417,-3.6569,-3.5142,-3.4339,-3.3964,-3.291,-3.1971,-3.1764,-3.1782,-3.1971,-3.1116,-3.0269,-2.9807,-2.9288,-2.947,-2.9704,-2.8979,-2.9842,-2.9862,-2.9224,-2.9478,-3.0073,-3.0073,-3.0073,-3.0342,-3.0526,-3.0768,-3.0834,-3.0629,-3.0133,-2.9468,-2.8939,-2.767,-2.7162,-2.6782,-2.6296,-2.6321,-2.6602,-2.7156,-2.7668,-2.7969,-2.8573,-2.9667,-3.3818,-3.3503,-3.3068,-3.2329,-3.16,-3.0224,-2.9702,-2.9493,-2.8549,-2.9166,-3.0559,-3.1353,-3.2859,-3.4999,-3.6604,-3.7901,-3.9025,-3.9323,-3.9031,-3.8282,-3.8829,-4.0416,-4.265,-4.4537,-4.632,-4.7803,-4.8762,-4.9191,-4.9269,-4.9222,-4.8643,-4.7435,-4.6175,-4.4232,-4.1678,-4.0758,-3.9949,-3.9277,-3.8873,-3.9404,-4.0507,-4.0372,-4.0845,-4.1847,-4.1211,-4.0508,-4.0282,-3.8207,-3.7748,-3.8886,-3.8697,-4.0163,-4.3152,-4.4967,-4.5655,-4.5692,-4.5624,-4.504,-4.4229,-4.3592,-4.2674,-4.1736,-4.0955,-4.0577,-4.0368,-4.0288,-4.0172,-4.0087,-3.961,-3.8799,-3.8026,-3.7736,-3.7188,-3.594,-3.483,-3.4176,-3.3722,-3.2472,-3.1253,-3.0607,-3.1088,-3.1261,-3.069,-3.0331,-3.0187,-2.985,-2.9722,-2.942,-2.9768,-3.0397,-3.1066,-3.0626,-3.0854,-3.0675,-3.0562,-3.0505,-3.0654,-3.0683,-3.0862,-3.101,-3.0952,-3.116,-3.0447,-2.9477,-2.8159,-2.7317,-2.6909,-2.6883,-2.7071,-2.7198,-2.7761,-2.8038,-2.8012,-2.8851,-3.0176,-3.4589,-3.47,-3.4039,-3.3577,-3.2742,-3.0788,-3.0113,-3.0402,-2.9167,-2.9663,-3.1649,-3.2723,-3.4719,-3.731,-3.9372,-4.1118,-4.2774,-4.4279,-4.4656,-4.3932,-4.336,-4.4792,-4.7102,-4.883,-5.0743,-5.2539,-5.2793,-5.2641,-5.2509,-5.2283,-5.1395,-4.9705,-4.8712,-4.6884,-4.432,-4.3235,-4.2398,-4.1772,-4.1296,-4.1598,-4.2478,-4.2551,-4.3186,-4.4509,-4.4234,-4.4524,-4.5182,-4.2902,-4.0951,-4.0313,-3.9916,-4.1287,-4.3572,-4.5176,-4.6177,-4.6177,-4.625,-4.5955,-4.5178,-4.4693,-4.3899,-4.2687,-4.1981,-4.1568,-4.1229,-4.1023,-4.0861,-4.0762,-4.0227,-3.9364,-3.8745,-3.8153,-3.7425,-3.6334,-3.5371,-3.4225,-3.3213,-3.1609,-3.0465,-3.0011,-3.0629,-3.1029,-3.0895,-3.1364,-3.1104,-3.0984,-3.0625,-3.0197,-3.0835,-3.1131,-3.1394,-3.1482,-3.1332,-3.1127,-3.1013,-3.1013,-3.1043,-3.0925,-3.0719,-3.0748,-3.069,-3.1515,-3.1424,-3.0524,-2.9255,-2.8834,-2.8421,-2.861,-2.8799,-2.881,-2.8702,-2.8848,-2.9156,-2.9955,-3.0977,-3.4594,-3.5244,-3.3717,-3.3618,-3.3734,-3.0603,-3.0076,-3.0943,-2.965,-3.0612,-3.3194,-3.4667,-3.6828,-3.9884,-4.2322,-4.4384,-4.611,-4.8247,-4.9889,-5.0091,-4.9287,-4.9136,-5.0745,-5.2931,-5.4918,-5.6405,-5.5612,-5.4885,-5.4633,-5.4341,-5.2977,-5.0975,-5.0562,-4.9045,-4.6387,-4.4923,-4.4047,-4.3256,-4.303,-4.334,-4.4252,-4.4803,-4.6102,-4.7736,-4.8449,-4.9531,-5.0758,-4.9116,-4.5535,-4.1179,-4.1806,-4.2929,-4.3733,-4.5513,-4.687,-4.6797,-4.6983,-4.702,-4.6798,-4.5909,-4.5084,-4.4669,-4.3679,-4.3101,-4.2882,-4.237,-4.2023,-4.2009,-4.1325,-4.0573,-3.9802,-3.9157,-3.8249,-3.7396,-3.6025,-3.4281,-3.1628,-3.042,-2.9908,-2.9681,-3.0599,-3.1792,-3.1736,-3.2987,-3.325,-3.2882,-3.2375,-3.181,-3.1634,-3.1632,-3.1571,-3.1511,-3.1394,-3.1014,-3.0689,-3.0329,-3.0329,-2.9964,-3.03,-3.0984,-3.0954,-3.1752,-3.2374,-3.1432,-3.0583,-3.0185,-2.9885,-2.9808,-3.0023,-3.0145,-3.0062,-3.0125,-3.0387,-3.101,-3.1276,-3.5521,-3.6088,-3.5575,-3.4862,-3.3695,-3.1698,-3.0963,-3.0979,-3.0303,-3.1715,-3.4461,-3.6828,-3.9504,-4.2402,-4.5445,-4.7815,-4.9721,-5.1764,-5.3263,-5.4146,-5.4188,-5.4271,-5.5151,-5.6528,-5.7676,-5.8358,-5.7998,-5.7375,-5.6661,-5.6459,-5.5224,-5.3019,-5.246,-5.1042,-4.8543,-4.7168,-4.613,-4.4833,-4.3769,-4.4182,-4.5495,-4.5757,-4.7352,-5.0302,-5.115,-5.3001,-5.5332,-5.4397,-4.9907,-4.3119,-4.4339,-4.4932,-4.4439,-4.6564,-4.7772,-4.7461,-4.7673,-4.7682,-4.7167,-4.676,-4.6166,-4.5233,-4.4854,-4.4348,-4.3882,-4.336,-4.3027,-4.2768,-4.1903,-4.086,-4.0119,-3.9628,-3.8872,-3.7652,-3.5882,-3.3606,-3.1525,-3.0539,-3.0331,-3.0337,-3.1809,-3.239,-3.2556,-3.3111,-3.3721,-3.3657,-3.3057,-3.2279,-3.205,-3.2018,-3.184,-3.1367,-3.1073,-3.0689,-3.0269,-2.9813,-2.9407,-2.8894,-2.9722,-3.154,-3.1716,-3.225,-3.2587,-3.2397,-3.1461,-3.1015,-3.0539,-3.0242,-3.0665,-3.1646,-3.131,-3.1228,-3.1042,-3.1367,-3.1545,-3.5814,-3.6332,-3.5515,-3.4702,-3.3622,-3.1278,-3.0749,-3.155,-3.1679,-3.3469,-3.6675,-3.9823,-4.2708,-4.5594,-4.8376,-5.0638,-5.256,-5.4219,-5.5195,-5.5747,-5.6276,-5.6875,-5.7658,-5.8645,-5.958,-6.0396,-6.0127,-5.9631,-5.8905,-5.8319,-5.6742,-5.479,-5.3689,-5.2038,-4.9887,-4.8383,-4.7145,-4.5909,-4.4829,-4.4932,-4.5909,-4.674,-4.8612,-5.1602,-5.3721,-5.7005,-6.0566,-6.0322,-5.5812,-4.9516,-4.7888,-4.7601,-4.6817,-4.7713,-4.855,-4.8359,-4.8397,-4.8049,-4.7755,-4.7609,-4.7274,-4.6567,-4.6161,-4.5787,-4.5342,-4.4653,-4.4095,-4.3999,-4.2841,-4.1972,-4.1355,-4.064,-3.9321,-3.7623,-3.5963,-3.4018,-3.1889,-3.1026,-3.0507,-3.0751,-3.1633,-3.2786,-3.2636,-3.3493,-3.395,-3.3925,-3.3295,-3.2613,-3.2109,-3.2139,-3.2048,-3.1573,-3.1132,-3.0836,-3.0597,-3.0266,-2.9988,-2.9358,-2.9891,-3.1714,-3.267,-3.2963,-3.3206,-3.3149,-3.236,-3.1858,-3.1723,-3.187,-3.292,-3.3354,-3.282,-3.2511,-3.2496,-3.2225,-3.2344,-3.6084,-3.637,-3.4437,-3.3837,-3.3422,-3.0078,-2.9943,-3.2085,-3.2962,-3.5461,-3.9206,-4.2875,-4.5738,-4.8835,-5.0593,-5.2778,-5.4333,-5.5397,-5.5968,-5.6445,-5.6927,-5.7582,-5.8252,-5.9279,-6.0589,-6.1758,-6.1742,-6.1429,-6.0757,-5.9614,-5.7884,-5.6074,-5.4363,-5.2604,-5.0763,-4.8901,-4.7409,-4.6385,-4.5248,-4.5069,-4.5719,-4.7039,-4.9068,-5.2257,-5.8091,-6.2333,-6.5793,-6.6164,-6.2741,-5.5733,-5.2612,-5.106,-5.0538,-4.9606,-4.9363,-4.9514,-4.9049,-4.8673,-4.8306,-4.8196,-4.8233,-4.7936,-4.7423,-4.7241,-4.69,-4.6054,-4.5478,-4.5478,-4.4272,-4.3465,-4.279,-4.1724,-4.004,-3.8335,-3.7419,-3.5967,-3.3927,-3.2018,-3.0716,-3.0186,-3.1249,-3.2203,-3.2919,-3.4023,-3.504,-3.4544,-3.4,-3.3637,-3.2968,-3.2661,-3.2361,-3.1887,-3.1511,-3.1131,-3.1013,-3.0804,-3.0592,-3.0344,-3.0873,-3.2134,-3.3546,-3.3963,-3.4056,-3.3914,-3.3203,-3.3317,-3.3715,-3.4309,-3.4794,-3.4718,-3.3972,-3.4077,-3.4239,-3.3819,-3.3695,-3.7416,-3.6802,-3.4942,-3.3441,-3.1999,-2.9904,-2.9548,-3.0789,-3.338,-3.657,-4.0315,-4.4376,-4.7585,-5.0228,-5.1882,-5.3414,-5.4747,-5.5714,-5.6225,-5.634,-5.6939,-5.7348,-5.797,-5.9147,-6.058,-6.1601,-6.2182,-6.2265,-6.1918,-6.0941,-5.9379,-5.7275,-5.5624,-5.389,-5.1415,-4.9551,-4.7903,-4.6516,-4.48,-4.4599,-4.5436,-4.629,-4.8734,-5.3193,-6.1544,-6.7615,-7.0496,-7.1899,-7.0351,-6.6061,-6.0402,-5.5848,-5.3739,-5.3104,-5.2174,-5.0697,-5.0222,-4.9664,-4.8636,-4.8416,-4.8343,-4.8343,-4.8159,-4.8049,-4.8011,-4.7306,-4.6888,-4.6704,-4.5775,-4.455,-4.3436,-4.2363,-4.1138,-3.9971,-3.9043,-3.815,-3.6665,-3.4573,-3.2618,-3.186,-3.2608,-3.3459,-3.2874,-3.4409,-3.5105,-3.4973,-3.4935,-3.4709,-3.4027,-3.3259,-3.2863,-3.2419,-3.2034,-3.175,-3.1605,-3.1455,-3.1302,-3.1245,-3.1781,-3.2348,-3.3698,-3.4729,-3.4727,-3.452,-3.4097,-3.4471,-3.508,-3.4647,-3.4787,-3.4901,-3.5105,-3.4961,-3.4878,-3.479,-3.5022,-4.0152,-3.8865,-3.6522,-3.4193,-3.1915,-2.9699,-2.916,-3.0629,-3.3833,-3.7563,-4.1517,-4.6096,-4.9343,-5.1404,-5.3073,-5.4349,-5.5039,-5.5784,-5.6092,-5.6103,-5.6414,-5.6602,-5.6926,-5.8201,-5.9599,-6.1218,-6.2617,-6.3029,-6.2814,-6.1962,-6.043,-5.8224,-5.6557,-5.4161,-5.183,-5.0097,-4.8661,-4.7084,-4.5313,-4.4713,-4.5395,-4.5896,-4.98,-5.5869,-6.3934,-6.9712,-7.385,-7.4983,-7.4474,-7.1817,-6.7047,-6.1924,-5.7982,-5.6132,-5.4375,-5.3453,-5.1255,-5.0875,-5.0031,-4.9003,-4.8489,-4.8857,-4.8563,-4.8343,-4.819,-4.7756,-4.7428,-4.7212,-4.646,-4.5321,-4.3863,-4.3075,-4.2236,-4.1396,-4.0461,-3.9455,-3.8282,-3.6095,-3.4176,-3.3327,-3.3833,-3.3912,-3.418,-3.506,-3.5422,-3.5428,-3.5949,-3.5679,-3.4699,-3.395,-3.3634,-3.3208,-3.2726,-3.2425,-3.2287,-3.2139,-3.2014,-3.2079,-3.2285,-3.2758,-3.356,-3.45,-3.5236,-3.5126,-3.515,-3.5607,-3.6041,-3.5439,-3.5014,-3.5275,-3.5413,-3.5422,-3.5645,-3.6069,-3.6368,-4.3608,-4.1776,-3.8667,-3.5765,-3.2879,-3.023,-2.9745,-3.1108,-3.4635,-3.843,-4.2267,-4.7378,-4.9791,-5.1804,-5.3184,-5.4246,-5.4675,-5.4771,-5.4674,-5.4984,-5.4789,-5.5009,-5.5433,-5.6576,-5.804,-6.0559,-6.2251,-6.307,-6.3194,-6.2593,-6.0991,-5.8943,-5.6668,-5.4314,-5.204,-5.0378,-4.9013,-4.7557,-4.581,-4.5049,-4.5241,-4.5797,-4.9983,-5.76,-6.3599,-6.9286,-7.4025,-7.617,-7.6642,-7.5925,-7.2391,-6.8288,-6.3994,-5.9445,-5.6394,-5.6772,-5.3543,-5.2035,-5.1406,-5.011,-4.915,-4.9701,-4.9003,-4.86,-4.8446,-4.8065,-4.7715,-4.7385,-4.691,-4.5993,-4.4545,-4.4034,-4.3224,-4.2363,-4.1462,-4.0665,-3.9476,-3.7476,-3.6155,-3.4692,-3.4724,-3.474,-3.4874,-3.5424,-3.5706,-3.6091,-3.6603,-3.669,-3.569,-3.4993,-3.48,-3.4697,-3.4408,-3.4311,-3.4147,-3.3956,-3.3666,-3.3156,-3.3261,-3.363,-3.4123,-3.5324,-3.6278,-3.6324,-3.6474,-3.6829,-3.6843,-3.6322,-3.6009,-3.591,-3.5882,-3.6013,-3.6596,-3.7345,-3.7568,-4.7361,-4.5122,-4.1792,-3.8688,-3.5711,-3.3173,-3.2462,-3.333,-3.6307,-3.9208,-4.2255,-4.5811,-4.863,-5.0083,-5.0529,-5.1557,-5.2285,-5.2291,-5.226,-5.2607,-5.2415,-5.2417,-5.3239,-5.4641,-5.5946,-5.7557,-6.0145,-6.2249,-6.2997,-6.2402,-6.1196,-5.9477,-5.6729,-5.4107,-5.1943,-5.0206,-4.8716,-4.7462,-4.5695,-4.4886,-4.508,-4.5464,-4.8149,-5.6245,-6.1803,-6.7427,-7.2522,-7.6093,-7.7597,-7.6801,-7.3193,-7.0344,-6.7083,-6.2546,-5.943,-5.7583,-5.5544,-5.3795,-5.2902,-5.1337,-5.0551,-5.0398,-4.9848,-4.9407,-4.9224,-4.8705,-4.8364,-4.8028,-4.7542,-4.6646,-4.5459,-4.5039,-4.4384,-4.3522,-4.2769,-4.2363,-4.1464,-4.0177,-3.8406,-3.6515,-3.6115,-3.571,-3.5917,-3.6205,-3.6878,-3.7435,-3.8019,-3.8097,-3.7484,-3.6818,-3.6434,-3.6397,-3.6332,-3.6311,-3.6253,-3.598,-3.5634,-3.474,-3.4659,-3.4952,-3.5678,-3.682,-3.7437,-3.7308,-3.7358,-3.768,-3.7435,-3.7144,-3.6966,-3.6846,-3.6784,-3.666,-3.7286,-3.7955,-3.8213,-5.44,-5.1992,-4.896,-4.5081,-4.0852,-3.7763,-3.6191,-3.6151,-3.8376,-4.0802,-4.3115,-4.5348,-4.7095,-4.8184,-4.8198,-4.8725,-4.9234,-4.9575,-4.9331,-4.9318,-4.937,-4.9651,-5.0522,-5.2361,-5.3577,-5.5182,-5.806,-6.1185,-6.2972,-6.2368,-6.1218,-5.9412,-5.6438,-5.3441,-5.1228,-4.9493,-4.8158,-4.6944,-4.5452,-4.4605,-4.5138,-4.5104,-4.8722,-5.34,-5.9421,-6.5023,-6.9848,-7.4113,-7.552,-7.4224,-7.1562,-6.921,-6.6574,-6.363,-6.0566,-5.9441,-5.745,-5.5798,-5.4603,-5.3162,-5.1787,-5.16,-5.0816,-5.0251,-5.0141,-4.9848,-4.937,-4.8849,-4.7943,-4.7212,-4.6542,-4.595,-4.518,-4.4529,-4.3848,-4.3196,-4.2645,-4.1917,-4.0349,-3.8601,-3.7972,-3.7407,-3.6743,-3.7292,-3.8087,-3.876,-3.9358,-3.932,-3.9023,-3.8589,-3.8069,-3.7599,-3.7458,-3.7326,-3.7265,-3.7125,-3.7038,-3.6324,-3.5894,-3.6236,-3.6766,-3.7682,-3.803,-3.8033,-3.8183,-3.8341,-3.8446,-3.8286,-3.8033,-3.7743,-3.7764,-3.7841,-3.8125,-3.846,-3.8799,-6.1121,-5.9013,-5.6506,-5.229,-4.7181,-4.3498,-4.1215,-4.0372,-4.1399,-4.3048,-4.4713,-4.5637,-4.6374,-4.6562,-4.6206,-4.5891,-4.6057,-4.6356,-4.6055,-4.5896,-4.6032,-4.6481,-4.75,-4.9403,-5.124,-5.2381,-5.6573,-5.975,-6.1569,-6.1939,-6.1006,-5.8885,-5.5737,-5.2614,-5.0119,-4.8782,-4.7537,-4.6372,-4.5294,-4.4816,-4.4895,-4.5912,-4.7965,-5.1179,-5.7199,-6.277,-6.7301,-7.1171,-7.2798,-7.1699,-6.9488,-6.7028,-6.4836,-6.2144,-6.1085,-6.1292,-5.8981,-5.7705,-5.67,-5.5157,-5.3714,-5.3379,-5.2234,-5.1599,-5.1032,-5.0812,-5.0398,-4.9731,-4.8976,-4.8019,-4.7599,-4.6779,-4.609,-4.5459,-4.4681,-4.3872,-4.3639,-4.3131,-4.2518,-4.1116,-4.007,-3.9235,-3.8754,-3.8716,-3.9591,-3.9943,-4.0569,-4.0548,-4.0257,-4.0155,-3.9615,-3.8791,-3.8387,-3.8097,-3.7981,-3.7737,-3.7672,-3.7423,-3.7126,-3.7286,-3.7707,-3.8256,-3.8569,-3.8891,-3.8656,-3.8753,-3.9063,-3.9115,-3.8592,-3.8329,-3.8679,-3.8799,-3.8657,-3.8983,-3.942,-6.4353,-6.3677,-6.204,-5.8839,-5.4524,-5.0921,-4.8363,-4.669,-4.6206,-4.614,-4.6793,-4.6777,-4.6505,-4.5493,-4.4155,-4.3168,-4.2742,-4.285,-4.3113,-4.3322,-4.306,-4.3315,-4.3797,-4.5975,-4.836,-5.0218,-5.5001,-5.8044,-5.9727,-6.076,-6.0316,-5.8121,-5.5524,-5.2539,-4.9444,-4.7793,-4.6981,-4.6072,-4.5095,-4.4327,-4.4007,-4.4971,-4.7058,-5.0348,-5.531,-6.0539,-6.4517,-6.8007,-6.9839,-7.0332,-6.7281,-6.5637,-6.487,-6.2335,-6.1489,-6.1134,-6.0147,-5.8664,-5.8339,-5.7087,-5.5842,-5.5174,-5.4326,-5.3553,-5.2419,-5.1406,-5.0875,-5.0729,-5.0314,-4.9596,-4.8684,-4.8299,-4.7543,-4.6779,-4.6035,-4.5494,-4.5146,-4.4238,-4.3689,-4.3191,-4.1913,-4.1405,-4.0959,-4.0929,-4.1082,-4.1342,-4.1555,-4.1634,-4.1271,-4.0899,-4.0561,-3.9631,-3.9126,-3.892,-3.8467,-3.8286,-3.8121,-3.8157,-3.7875,-3.7893,-3.8339,-3.8739,-3.9711,-3.9901,-3.9462,-3.9158,-3.953,-3.9373,-3.8935,-3.8949,-3.9249,-3.9156,-3.8908,-3.9368,-3.9901,-6.8125,-6.793,-6.6738,-6.4179,-6.0674,-5.7663,-5.491,-5.2672,-5.1144,-5.009,-4.9032,-4.7375,-4.5521,-4.3631,-4.2365,-4.2197,-4.2035,-4.2254,-4.2073,-4.2219,-4.2107,-4.2195,-4.2823,-4.4803,-4.6862,-4.9038,-5.2606,-5.5696,-5.7426,-5.9211,-5.9766,-5.8791,-5.4848,-5.1166,-4.8576,-4.6485,-4.4637,-4.3418,-4.2931,-4.3323,-4.4035,-4.5455,-4.7261,-4.9532,-5.4548,-5.851,-6.1575,-6.3985,-6.5634,-6.5663,-6.3163,-6.1855,-6.1603,-6.0368,-5.9633,-6.0416,-6.0315,-5.9741,-5.9192,-5.8501,-5.768,-5.6671,-5.5616,-5.4242,-5.3082,-5.2103,-5.1463,-5.1463,-5.1059,-5.035,-4.9555,-4.93,-4.8351,-4.7608,-4.7226,-4.6671,-4.621,-4.5442,-4.4736,-4.4328,-4.3972,-4.3469,-4.2982,-4.2769,-4.2734,-4.2883,-4.3103,-4.3204,-4.2185,-4.0865,-4.0493,-4.0054,-3.98,-3.9665,-3.9139,-3.8725,-3.8329,-3.8133,-3.7291,-3.7566,-3.8417,-3.9115,-3.9701,-3.9778,-3.9023,-3.9177,-3.9817,-3.9598,-3.9008,-3.9327,-3.9799,-3.9711,-3.9534,-3.961,-3.9935,-7.0547,-7.0664,-7.0351,-6.8804,-6.6435,-6.3804,-6.1096,-5.8396,-5.5898,-5.3833,-5.1466,-4.8446,-4.5053,-4.2873,-4.2589,-4.2847,-4.2817,-4.3636,-4.3252,-4.294,-4.2784,-4.2827,-4.3157,-4.471,-4.608,-4.7496,-5.1164,-5.3866,-5.5854,-5.7445,-5.8786,-5.9131,-5.4365,-5.0406,-4.7635,-4.5491,-4.3459,-4.1995,-4.1849,-4.2636,-4.4169,-4.5948,-4.7781,-5.056,-5.3842,-5.7252,-5.8984,-6.0705,-6.1671,-6.1084,-5.9586,-5.8537,-5.8536,-5.8274,-5.8224,-5.9037,-5.9511,-5.983,-5.9585,-5.9256,-5.8769,-5.7606,-5.6053,-5.4463,-5.3719,-5.2813,-5.2307,-5.2307,-5.194,-5.1169,-5.0464,-5.0356,-4.9719,-4.8988,-4.8353,-4.77,-4.7095,-4.6446,-4.5917,-4.5603,-4.5395,-4.5486,-4.5001,-4.4564,-4.4464,-4.4464,-4.4566,-4.4699,-4.3335,-4.1508,-4.0781,-4.0527,-4.0155,-4.0054,-3.9682,-3.9168,-3.8745,-3.8189,-3.7381,-3.7584,-3.869,-3.8799,-3.8876,-3.871,-3.8698,-3.9157,-3.9834,-3.9497,-3.9177,-3.9665,-4.0121,-4.0341,-4.0375,-4.0223,-3.9851,-7.0508,-7.082,-7.2305,-7.2617,-7.1942,-6.9091,-6.6588,-6.4047,-6.0227,-5.6905,-5.3735,-4.9934,-4.6519,-4.5147,-4.5089,-4.5029,-4.4304,-4.5361,-4.5945,-4.5598,-4.468,-4.4763,-4.4716,-4.4972,-4.5414,-4.6758,-5.0061,-5.2856,-5.4656,-5.5857,-5.6104,-5.5005,-5.3254,-5.0206,-4.7131,-4.4462,-4.281,-4.1597,-4.1426,-4.2415,-4.4146,-4.6001,-4.7898,-5.0367,-5.3873,-5.6789,-5.7549,-5.8569,-5.8868,-5.8376,-5.6863,-5.6406,-5.6777,-5.6669,-5.7012,-5.7908,-5.8612,-5.9025,-5.9128,-5.971,-5.958,-5.8067,-5.6197,-5.4525,-5.398,-5.3444,-5.3162,-5.2968,-5.2637,-5.2344,-5.194,-5.1715,-5.0988,-5.0168,-4.9378,-4.884,-4.8218,-4.7544,-4.7093,-4.6805,-4.6573,-4.6346,-4.6447,-4.595,-4.5689,-4.5656,-4.5018,-4.5094,-4.4181,-4.2678,-4.1664,-4.1053,-4.0595,-4.029,-4.0071,-3.9659,-3.9139,-3.8711,-3.8019,-3.8525,-3.942,-3.9156,-3.8613,-3.8983,-3.9291,-3.9613,-3.9747,-3.9577,-3.9577,-4.0087,-4.0358,-4.0426,-4.0324,-4.0087,-3.9681,-6.9687,-7.0742,-7.1445,-7.2226,-7.2967,-7.1626,-7.001,-6.7705,-6.354,-5.8387,-5.3436,-5.0118,-4.8356,-4.8119,-4.8443,-4.9336,-5.0304,-5.1275,-5.131,-5.1213,-5.0662,-4.9338,-4.8498,-4.7348,-4.7454,-4.7818,-4.9953,-5.1664,-5.2958,-5.4357,-5.5318,-5.4696,-5.2539,-4.9919,-4.6841,-4.3128,-4.0855,-4.0648,-4.0669,-4.1653,-4.3889,-4.593,-4.8153,-5.0962,-5.2572,-5.4734,-5.5554,-5.5962,-5.5973,-5.5623,-5.4721,-5.5038,-5.5585,-5.5585,-5.6116,-5.6992,-5.7568,-5.7949,-5.8527,-5.9191,-5.8985,-5.7063,-5.5508,-5.4574,-5.3981,-5.3396,-5.323,-5.3188,-5.3188,-5.2858,-5.2119,-5.1974,-5.1637,-5.0896,-5.0271,-4.971,-4.9068,-4.8277,-4.7513,-4.6828,-4.6767,-4.665,-4.6921,-4.7098,-4.6895,-4.6693,-4.6041,-4.5388,-4.4665,-4.3681,-4.2652,-4.2057,-4.163,-4.1137,-4.095,-4.0303,-3.9707,-3.9292,-3.8931,-3.9382,-3.9969,-3.9262,-3.8941,-3.9401,-3.9696,-3.9747,-3.9778,-3.9727,-3.9987,-4.0373,-4.0392,-4.029,-4.0155,-3.9986,-3.9546,-6.9805,-7.0625,-7.0664,-7.1953,-7.3711,-7.3691,-7.2745,-7.0606,-6.641,-6.0186,-5.3082,-5.0761,-4.9936,-5.0487,-5.1078,-5.2333,-5.4025,-5.5255,-5.5762,-5.5584,-5.4939,-5.3956,-5.2288,-5.0716,-4.9599,-4.9288,-4.9677,-5.0992,-5.1487,-5.2807,-5.3616,-5.3038,-5.1111,-4.8509,-4.668,-4.1738,-3.8409,-3.8636,-3.9789,-4.1435,-4.3799,-4.6086,-4.8369,-5.0946,-5.2292,-5.2957,-5.3818,-5.4175,-5.4185,-5.3937,-5.3662,-5.3873,-5.4461,-5.4945,-5.5282,-5.5928,-5.653,-5.6891,-5.7644,-5.7919,-5.7815,-5.6154,-5.5425,-5.4502,-5.3702,-5.3272,-5.3225,-5.3225,-5.3188,-5.2852,-5.1998,-5.1855,-5.1499,-5.0705,-5.0275,-4.9732,-4.91,-4.8355,-4.7507,-4.6806,-4.6816,-4.6887,-4.764,-4.8005,-4.8167,-4.7674,-4.6718,-4.6282,-4.6041,-4.4912,-4.3405,-4.3066,-4.2927,-4.2446,-4.195,-4.1866,-4.1797,-4.1458,-4.0984,-4.0358,-4.0391,-3.983,-3.9592,-4.0036,-4.017,-3.9866,-3.9863,-3.9945,-4.027,-4.0627,-4.0629,-4.0595,-4.0155,-3.9952,-3.9546,-7.1172,-7.0547,-7.0703,-7.2734,-7.5625,-7.5605,-7.4857,-7.335,-6.8744,-6.2142,-5.4622,-5.1813,-5.1065,-5.1792,-5.2474,-5.402,-5.5912,-5.7489,-5.8216,-5.8161,-5.8409,-5.7226,-5.5414,-5.3589,-5.186,-5.0726,-5.0462,-5.0413,-5.0136,-5.1049,-5.1592,-5.0849,-4.8895,-4.6668,-4.7405,-4.1954,-3.8567,-3.8054,-3.9773,-4.1952,-4.4342,-4.6466,-4.8687,-5.0398,-5.1257,-5.1712,-5.2058,-5.2563,-5.2647,-5.2502,-5.2906,-5.3286,-5.3625,-5.3905,-5.4271,-5.4836,-5.5486,-5.6336,-5.7396,-5.7201,-5.6673,-5.5898,-5.5287,-5.4535,-5.3903,-5.3481,-5.3225,-5.3225,-5.3188,-5.2492,-5.1936,-5.1463,-5.0964,-5.036,-4.9837,-4.9347,-4.8612,-4.8148,-4.7238,-4.6726,-4.6859,-4.7149,-4.8065,-4.8787,-4.9154,-4.8787,-4.7581,-4.7203,-4.7286,-4.6603,-4.5165,-4.4867,-4.4858,-4.4453,-4.413,-4.4061,-4.3895,-4.3568,-4.3092,-4.2437,-4.1899,-4.1601,-4.1374,-4.1185,-4.1216,-4.1435,-4.083,-4.0239,-4.0493,-4.0731,-4.1001,-4.0933,-4.0426,-3.9884,-3.9429,-7.1895,-7.2148,-7.2344,-7.4453,-7.7187,-7.6152,-7.5999,-7.5413,-6.9117,-6.1959,-5.5997,-5.2743,-5.1934,-5.2605,-5.3489,-5.4988,-5.7503,-5.9229,-6.0114,-6.068,-6.1114,-5.993,-5.8042,-5.6106,-5.4156,-5.1881,-5.0892,-5.0007,-4.9021,-4.9504,-4.985,-4.9224,-4.6658,-4.4362,-4.196,-3.8745,-3.7387,-3.8152,-3.9852,-4.198,-4.4425,-4.6432,-4.834,-5.0089,-5.0056,-5.0101,-5.0358,-5.0832,-5.1095,-5.1334,-5.1946,-5.2747,-5.3171,-5.3493,-5.3869,-5.4571,-5.5303,-5.5692,-5.6553,-5.6705,-5.6623,-5.599,-5.5243,-5.4626,-5.417,-5.3534,-5.3298,-5.3146,-5.3103,-5.2331,-5.1511,-5.0761,-5.0083,-4.9265,-4.8697,-4.8245,-4.7726,-4.7363,-4.6903,-4.6666,-4.665,-4.7933,-4.9034,-4.9673,-5.0063,-5.0305,-4.9358,-4.892,-4.8959,-4.8498,-4.7562,-4.732,-4.7145,-4.6731,-4.6361,-4.6043,-4.5864,-4.5614,-4.5123,-4.447,-4.3979,-4.3779,-4.3371,-4.3286,-4.3184,-4.308,-4.2367,-4.165,-4.0895,-4.0814,-4.1087,-4.0658,-3.974,-3.9376,-3.916,-7.329,-7.3906,-7.414,-7.6015,-7.8398,-7.7265,-7.6716,-7.5098,-6.8083,-6.1504,-5.6636,-5.3436,-5.2088,-5.241,-5.306,-5.4777,-5.7604,-5.891,-6.0413,-6.131,-6.2225,-6.0744,-5.9262,-5.7945,-5.5203,-5.2674,-5.109,-5.008,-4.7517,-4.7995,-4.7371,-4.5909,-4.4489,-4.1813,-3.9526,-3.849,-3.8306,-3.9037,-4.023,-4.2548,-4.4689,-4.6495,-4.7909,-4.8688,-4.8821,-4.8451,-4.853,-4.8895,-4.9445,-5.011,-5.0994,-5.1919,-5.2564,-5.3121,-5.3498,-5.4296,-5.5607,-5.5992,-5.6533,-5.7913,-5.7943,-5.7444,-5.5822,-5.481,-5.4363,-5.3628,-5.3335,-5.3146,-5.298,-5.2,-5.0879,-5.0104,-4.9273,-4.8452,-4.8085,-4.7582,-4.787,-4.7631,-4.7313,-4.7086,-4.7189,-4.8522,-4.9861,-5.0505,-5.0998,-5.1165,-5.1213,-5.0843,-5.0352,-4.9793,-4.9245,-4.9,-4.8659,-4.8135,-4.7811,-4.7789,-4.763,-4.7635,-4.7124,-4.647,-4.6823,-4.6693,-4.6054,-4.5444,-4.5392,-4.5036,-4.4082,-4.322,-4.2383,-4.161,-4.1172,-4.0404,-3.9169,-3.9043,-3.9209,-7.5447,-7.5696,-7.5898,-7.7422,-7.9336,-7.8789,-7.6601,-7.2851,-6.681,-6.1641,-5.7155,-5.3819,-5.2281,-5.1605,-5.1591,-5.3414,-5.5849,-5.7043,-5.85,-5.9946,-6.1224,-6.0166,-5.9152,-5.764,-5.5419,-5.3206,-5.0871,-4.8194,-4.5881,-4.4698,-4.3398,-4.2269,-4.1492,-4.0177,-3.956,-3.9873,-3.9741,-3.9717,-4.1231,-4.3493,-4.5492,-4.7033,-4.8172,-4.8651,-4.8279,-4.7503,-4.7352,-4.7489,-4.7885,-4.8575,-4.9555,-5.0426,-5.1209,-5.1999,-5.2864,-5.428,-5.6217,-5.6755,-5.7537,-5.9136,-5.9428,-5.8722,-5.6977,-5.5611,-5.4583,-5.3922,-5.3518,-5.3054,-5.2688,-5.1394,-5.0225,-4.9414,-4.8625,-4.81,-4.7752,-4.7893,-4.8428,-4.8373,-4.8091,-4.7935,-4.792,-4.8932,-5.0287,-5.1087,-5.1764,-5.1968,-5.1937,-5.1574,-5.1131,-5.0606,-5.0126,-4.9798,-4.9523,-4.9241,-4.9058,-4.8935,-4.9076,-4.8901,-4.8894,-4.8498,-4.9029,-4.8916,-4.8052,-4.7409,-4.7512,-4.7089,-4.5971,-4.4894,-4.3805,-4.3078,-4.2702,-4.098,-4.0026,-3.9681,-3.964,-7.6263,-7.7448,-7.7687,-7.8867,-8.0351,-7.9687,-7.7383,-7.3672,-6.8929,-6.3839,-5.8165,-5.5358,-5.3417,-5.2356,-5.3172,-5.4493,-5.5872,-5.7217,-5.8282,-5.9456,-6.0498,-6.0167,-5.9114,-5.7442,-5.5228,-5.2373,-4.9392,-4.6255,-4.3064,-4.1446,-4.0526,-3.9906,-3.9998,-3.9947,-4.0557,-4.1436,-4.0646,-4.078,-4.2604,-4.4537,-4.6578,-4.8172,-4.8963,-4.8955,-4.7872,-4.7054,-4.6888,-4.5982,-4.6313,-4.7564,-4.8049,-4.8692,-4.9543,-5.0822,-5.2254,-5.5359,-5.6811,-5.7773,-5.8905,-5.9882,-6.0346,-5.9905,-5.8364,-5.6748,-5.5537,-5.4546,-5.3849,-5.3156,-5.2409,-5.1155,-5.0076,-4.9215,-4.8504,-4.798,-4.8013,-4.8735,-4.934,-4.9793,-4.9543,-4.9722,-4.9722,-5.0068,-5.1371,-5.179,-5.234,-5.2615,-5.2541,-5.2023,-5.1621,-5.1061,-5.0727,-5.0387,-4.9915,-4.9515,-4.9695,-4.9687,-4.998,-5.0167,-4.9955,-4.9738,-4.9588,-4.9438,-4.9328,-4.9248,-4.9122,-4.8617,-4.7883,-4.6919,-4.6195,-4.5527,-4.4956,-4.2722,-4.0996,-4.0869,-4.0167,-7.6089,-7.762,-7.7798,-7.8789,-8.0002,-7.9375,-7.7226,-7.4023,-7.0039,-6.499,-5.9879,-5.6698,-5.4765,-5.3933,-5.423,-5.5172,-5.6749,-5.714,-5.7904,-5.8787,-5.9869,-5.9281,-5.8385,-5.6867,-5.4564,-5.1623,-4.8397,-4.4967,-4.1167,-3.8299,-3.7228,-3.862,-3.916,-4.017,-4.1152,-4.2136,-4.2541,-4.278,-4.3861,-4.5799,-4.76,-4.9126,-4.9296,-4.885,-4.7436,-4.6718,-4.5996,-4.4425,-4.4772,-4.5986,-4.6257,-4.7055,-4.8358,-5.0152,-5.2371,-5.5343,-5.7359,-5.8622,-5.9788,-6.094,-6.1091,-6.075,-5.9905,-5.8547,-5.6712,-5.5317,-5.4252,-5.3286,-5.2218,-5.1142,-5.0092,-4.9124,-4.8551,-4.7943,-4.8816,-4.9686,-5.0437,-5.1189,-5.1488,-5.1705,-5.1907,-5.2072,-5.249,-5.2717,-5.2708,-5.2498,-5.2077,-5.1527,-5.1234,-5.09,-5.079,-5.0652,-5.0101,-4.9664,-4.9881,-4.9918,-4.9918,-5.0065,-5.0362,-5.0141,-4.9994,-5.0031,-5.0031,-5.0248,-5.0501,-5.009,-4.9724,-4.9562,-4.8972,-4.8212,-4.7354,-4.5822,-4.3991,-4.2678,-4.1674,-7.5277,-7.6812,-7.6929,-7.7876,-7.8878,-7.8292,-7.6562,-7.398,-7.0312,-6.5898,-6.1523,-5.7935,-5.6194,-5.5745,-5.5798,-5.6665,-5.7761,-5.8201,-5.826,-5.8189,-5.8657,-5.8547,-5.7667,-5.5737,-5.3971,-5.139,-4.7858,-4.3519,-3.9409,-3.6691,-3.5642,-3.724,-3.7857,-3.9006,-4.1132,-4.2726,-4.3615,-4.4738,-4.5512,-4.6907,-4.8467,-4.9115,-4.8682,-4.7528,-4.6292,-4.508,-4.3718,-4.2858,-4.2498,-4.3731,-4.4805,-4.5727,-4.8119,-5.0075,-5.2566,-5.4979,-5.7328,-5.8992,-6.0334,-6.1618,-6.1961,-6.1851,-6.1484,-5.9905,-5.796,-5.6124,-5.495,-5.3756,-5.2808,-5.1798,-5.0796,-5.0283,-4.9781,-4.9889,-5.0649,-5.1756,-5.289,-5.3445,-5.3736,-5.3736,-5.3308,-5.3434,-5.3324,-5.3478,-5.2565,-5.2229,-5.1463,-5.0875,-5.0704,-5.052,-5.0444,-5.0441,-4.9811,-4.926,-4.9294,-4.9294,-4.9373,-4.963,-5.0034,-5.0031,-4.9517,-5.0034,-5.0772,-5.1173,-5.1614,-5.1824,-5.1602,-5.154,-5.1307,-5.0601,-4.9752,-4.8887,-4.738,-4.5641,-4.3576,-7.4928,-7.6005,-7.716,-7.7919,-7.8155,-7.7992,-7.6394,-7.3956,-7.1864,-6.7617,-6.2656,-5.9601,-5.8031,-5.785,-5.823,-5.9156,-5.9928,-5.9901,-5.9855,-5.9449,-5.9153,-5.8704,-5.781,-5.6129,-5.3892,-5.0888,-4.7067,-4.2023,-3.7543,-3.4939,-3.4272,-3.5991,-3.6983,-3.8941,-4.1389,-4.3104,-4.4837,-4.6392,-4.7685,-4.8287,-4.9126,-4.9985,-4.994,-4.8108,-4.6518,-4.4815,-4.3315,-4.1864,-4.2122,-4.3082,-4.3968,-4.6067,-4.9158,-5.0649,-5.276,-5.5131,-5.7333,-5.8983,-6.0409,-6.1761,-6.2333,-6.2045,-6.1435,-6.0188,-5.8804,-5.7189,-5.5742,-5.4546,-5.3453,-5.2454,-5.1726,-5.1369,-5.1286,-5.1864,-5.2563,-5.3924,-5.5244,-5.5574,-5.5868,-5.5471,-5.4846,-5.4479,-5.4338,-5.3676,-5.2601,-5.161,-5.0582,-4.9965,-5.0009,-4.9858,-4.9565,-4.9455,-4.9007,-4.86,-4.8708,-4.8781,-4.8932,-4.8822,-4.904,-4.904,-4.904,-4.9554,-5.0215,-5.1834,-5.2655,-5.2603,-5.2906,-5.3769,-5.3394,-5.2623,-5.219,-5.1417,-5.0812,-4.9379,-4.6779,-7.4752,-7.5543,-7.6159,-7.6236,-7.6005,-7.5938,-7.4938,-7.315,-7.1186,-6.8163,-6.4398,-6.1783,-6.0375,-6.0166,-6.0606,-6.1162,-6.189,-6.1996,-6.1232,-6.0608,-6.0209,-5.9743,-5.8446,-5.7021,-5.5115,-5.2123,-4.6088,-4.0761,-3.6754,-3.4274,-3.4112,-3.62,-3.7778,-3.9188,-4.1957,-4.4393,-4.6112,-4.8093,-4.9662,-5.0183,-5.007,-5.0441,-5.0005,-4.8195,-4.6316,-4.4525,-4.2797,-4.141,-4.1833,-4.3388,-4.5014,-4.6744,-4.9248,-5.0932,-5.3043,-5.5332,-5.7433,-5.9123,-6.0454,-6.1564,-6.2332,-6.1782,-6.1543,-6.0456,-5.9234,-5.7629,-5.6198,-5.4964,-5.3683,-5.266,-5.2295,-5.1916,-5.2535,-5.3142,-5.4326,-5.5705,-5.6308,-5.6528,-5.7007,-5.7302,-5.6533,-5.5614,-5.5432,-5.51,-5.3906,-5.2078,-5.0854,-4.9928,-4.9828,-4.9658,-4.9164,-4.8881,-4.8709,-4.8458,-4.8453,-4.8451,-4.8489,-4.8379,-4.8382,-4.8491,-4.8748,-4.9001,-4.9658,-5.122,-5.2397,-5.293,-5.3429,-5.4417,-5.4863,-5.4204,-5.4063,-5.3959,-5.3344,-5.2514,-5.0302,-7.4668,-7.5014,-7.4581,-7.3927,-7.3283,-7.3342,-7.2957,-7.1986,-6.9977,-6.8218,-6.6436,-6.4065,-6.3068,-6.2452,-6.1989,-6.2349,-6.2672,-6.2909,-6.2297,-6.1653,-6.133,-6.0778,-5.9946,-5.8805,-5.6219,-5.21,-4.6358,-4.2736,-3.9457,-3.6736,-3.5868,-3.7863,-3.8885,-3.9685,-4.3991,-4.6456,-4.7782,-4.9785,-5.1224,-5.172,-5.1404,-5.0598,-4.9404,-4.7788,-4.5883,-4.3862,-4.208,-4.1198,-4.1474,-4.3867,-4.6389,-4.8423,-5.0071,-5.1822,-5.3719,-5.5952,-5.7911,-5.9346,-6.0618,-6.1661,-6.1507,-6.1184,-6.1204,-6.059,-5.9249,-5.8235,-5.6809,-5.5484,-5.4154,-5.3377,-5.301,-5.3115,-5.3812,-5.4473,-5.5875,-5.6969,-5.7189,-5.739,-5.7968,-5.8527,-5.7602,-5.6556,-5.6099,-5.5852,-5.4409,-5.2666,-5.1496,-5.0732,-5.0128,-4.9901,-4.9579,-4.9416,-4.9326,-4.8982,-4.8532,-4.8458,-4.8532,-4.8532,-4.8567,-4.8495,-4.8532,-4.887,-4.9466,-5.043,-5.147,-5.2794,-5.3724,-5.4615,-5.4936,-5.5372,-5.5141,-5.4898,-5.4687,-5.3895,-5.3248,-7.4591,-7.3801,-7.302,-7.2184,-7.1591,-7.2101,-7.1986,-7.1245,-7.0837,-6.9784,-6.7795,-6.6251,-6.4825,-6.3507,-6.3142,-6.3271,-6.3681,-6.3787,-6.3207,-6.2444,-6.2293,-6.1752,-6.0833,-5.9561,-5.635,-5.2224,-4.792,-4.4293,-4.2,-3.9297,-3.8364,-4.0206,-4.0707,-4.2436,-4.5949,-4.7971,-4.9465,-5.1449,-5.2456,-5.2868,-5.2486,-5.128,-4.9233,-4.7357,-4.5364,-4.3229,-4.1389,-4.0101,-4.1169,-4.3706,-4.7206,-4.9789,-5.149,-5.2972,-5.4804,-5.6235,-5.8181,-5.9488,-6.059,-6.1298,-6.1034,-6.0711,-6.0521,-5.9807,-5.9053,-5.8931,-5.7603,-5.6462,-5.5347,-5.463,-5.4367,-5.4644,-5.5227,-5.5718,-5.6719,-5.7242,-5.7593,-5.7876,-5.8256,-5.8089,-5.7377,-5.6613,-5.595,-5.5094,-5.3429,-5.1982,-5.1036,-5.041,-5.0444,-5.0203,-5.0012,-5.0152,-5.0138,-4.9427,-4.8938,-4.8857,-4.8853,-4.881,-4.8762,-4.8786,-4.8813,-4.8907,-4.9567,-5.079,-5.203,-5.3401,-5.4234,-5.5488,-5.547,-5.5859,-5.5692,-5.5513,-5.54,-5.5054,-5.4175]}]]